Time,TemperatureF,DewpointF,PressureIn,WindDirection,WindDirectionDegrees,WindSpeedMPH,WindSpeedGustMPH,Humidity,HourlyPrecipIn,Conditions,Clouds,dailyrainin,SoftwareType,DateUTC
2013-03-18 00:00:00,64.2,59.9,30.04,SSW,203,0.0,23.0,86,0.00,,---,0.00,VWS V12.08,2013-03-18 04:00:00,
2013-03-18 00:01:00,64.2,60.3,30.04,SSW,203,0.0,23.0,87,0.00,,---,0.00,VWS V12.08,2013-03-18 04:01:00,
2013-03-18 00:02:00,64.1,60.2,30.04,SSW,203,0.0,23.0,87,0.00,,---,0.00,VWS V12.08,2013-03-18 04:02:00,
2013-03-18 00:03:00,64.1,60.2,30.04,SSW,203,0.0,23.0,87,0.00,,---,0.00,VWS V12.08,2013-03-18 04:03:00,
2013-03-18 00:04:00,64.1,60.2,30.04,SSW,203,0.0,23.0,87,0.00,,---,0.00,VWS V12.08,2013-03-18 04:04:00,
2013-03-18 00:05:00,64.1,60.2,30.04,SSW,203,0.0,23.0,87,0.00,,---,0.00,VWS V12.08,2013-03-18 04:05:00,
2013-03-18 00:06:00,64.1,60.2,30.04,SSW,203,0.0,23.0,87,0.00,,---,0.00,VWS V12.08,2013-03-18 04:06:00,
2013-03-18 00:07:00,64.1,60.2,30.04,SSW,203,0.0,23.0,87,0.00,,---,0.00,VWS V12.08,2013-03-18 04:07:00,
2013-03-18 00:08:00,64.0,60.1,30.04,SSW,203,0.0,23.0,87,0.00,,---,0.00,VWS V12.08,2013-03-18 04:08:00,
2013-03-18 00:09:00,64.0,60.1,30.04,SSW,203,0.0,23.0,87,0.00,,---,0.00,VWS V12.08,2013-03-18 04:09:00,
2013-03-18 00:10:00,64.2,59.9,30.04,SSW,203,0.0,23.0,86,0.00,,---,0.00,VWS V12.08,2013-03-18 04:10:00,
2013-03-18 00:11:00,64.0,60.4,30.03,SSW,203,0.0,23.0,88,0.00,,---,0.00,VWS V12.08,2013-03-18 04:11:00,
2013-03-18 00:12:00,64.0,60.4,30.04,SSW,203,0.0,23.0,88,0.00,,---,0.00,VWS V12.08,2013-03-18 04:12:00,
2013-03-18 00:13:00,64.0,60.4,30.03,SSW,203,0.0,23.0,88,0.00,,---,0.00,VWS V12.08,2013-03-18 04:13:00,
2013-03-18 00:14:00,64.0,60.4,30.04,SSW,203,0.0,23.0,88,0.00,,---,0.00,VWS V12.08,2013-03-18 04:14:00,
2013-03-18 00:15:00,64.1,60.2,30.04,SSW,203,0.0,23.0,87,0.00,,---,0.00,VWS V12.08,2013-03-18 04:15:00,
2013-03-18 00:16:00,63.9,60.3,30.04,SSW,203,0.0,23.0,88,0.00,,---,0.00,VWS V12.08,2013-03-18 04:16:00,
2013-03-18 00:17:00,63.9,60.3,30.04,SSW,203,0.0,23.0,88,0.00,,---,0.00,VWS V12.08,2013-03-18 04:17:00,
2013-03-18 00:18:00,63.8,60.2,30.04,SSW,203,0.0,23.0,88,0.00,,---,0.00,VWS V12.08,2013-03-18 04:18:00,
2013-03-18 00:19:00,63.8,60.2,30.04,SSW,203,0.0,23.0,88,0.00,,---,0.00,VWS V12.08,2013-03-18 04:19:00,
2013-03-18 00:20:00,64.0,60.1,30.04,SSW,203,0.0,23.0,87,0.00,,---,0.00,VWS V12.08,2013-03-18 04:20:00,
2013-03-18 00:21:00,63.7,60.4,30.04,SSW,203,0.0,23.0,89,0.00,,---,0.00,VWS V12.08,2013-03-18 04:21:00,
2013-03-18 00:23:00,63.6,60.3,30.04,SSW,203,0.0,23.0,89,0.00,,---,0.00,VWS V12.08,2013-03-18 04:23:00,
2013-03-18 00:24:00,63.6,60.3,30.04,SSW,203,0.0,23.0,89,0.00,,---,0.00,VWS V12.08,2013-03-18 04:24:00,
2013-03-18 00:25:00,63.9,60.3,30.04,SSW,203,0.0,23.0,88,0.00,,---,0.00,VWS V12.08,2013-03-18 04:25:00,
2013-03-18 00:26:00,63.4,60.1,30.04,SSW,203,0.0,23.0,89,0.00,,---,0.00,VWS V12.08,2013-03-18 04:26:00,
2013-03-18 00:27:00,63.4,60.1,30.04,SSW,203,0.0,23.0,89,0.00,,---,0.00,VWS V12.08,2013-03-18 04:27:00,
2013-03-18 00:30:00,63.7,60.4,30.04,SSW,203,0.0,23.0,89,0.00,,---,0.00,VWS V12.08,2013-03-18 04:30:00,
2013-03-18 00:31:00,63.3,60.0,30.03,SSW,203,0.0,23.0,89,0.00,,---,0.00,VWS V12.08,2013-03-18 04:31:00,
2013-03-18 00:32:00,63.2,59.9,30.02,SSW,203,0.0,23.0,89,0.00,,---,0.00,VWS V12.08,2013-03-18 04:32:00,
2013-03-18 00:33:00,63.2,59.9,30.02,SSW,203,0.0,23.0,89,0.00,,---,0.00,VWS V12.08,2013-03-18 04:33:00,
2013-03-18 00:34:00,63.2,59.9,30.02,SSW,203,0.0,23.0,89,0.00,,---,0.00,VWS V12.08,2013-03-18 04:34:00,
2013-03-18 00:35:00,63.1,59.8,30.02,SSW,203,0.0,23.0,89,0.00,,---,0.00,VWS V12.08,2013-03-18 04:35:00,
2013-03-18 00:36:00,63.5,60.2,30.04,SSW,203,0.0,23.0,89,0.00,,---,0.00,VWS V12.08,2013-03-18 04:36:00,
2013-03-18 00:37:00,63.1,59.8,30.01,SSW,203,0.0,23.0,89,0.00,,---,0.00,VWS V12.08,2013-03-18 04:37:00,
2013-03-18 00:38:00,63.0,60.0,30.01,SSW,203,0.0,23.0,90,0.00,,---,0.00,VWS V12.08,2013-03-18 04:38:00,
2013-03-18 00:39:00,63.0,60.0,30.01,SSW,203,0.0,23.0,90,0.00,,---,0.00,VWS V12.08,2013-03-18 04:39:00,
2013-03-18 00:40:00,63.0,60.0,30.01,SSW,203,0.0,23.0,90,0.00,,---,0.00,VWS V12.08,2013-03-18 04:40:00,
2013-03-18 00:41:00,63.3,60.0,30.03,SSW,203,0.0,23.0,89,0.00,,---,0.00,VWS V12.08,2013-03-18 04:41:00,
2013-03-18 00:46:00,63.1,59.8,30.02,SSW,203,0.0,23.0,89,0.00,,---,0.00,VWS V12.08,2013-03-18 04:46:00,
2013-03-18 00:47:00,62.7,60.0,30.01,SSW,203,0.0,23.0,91,0.00,,---,0.00,VWS V12.08,2013-03-18 04:47:00,
2013-03-18 00:51:00,62.9,59.9,30.01,SSW,203,0.0,23.0,90,0.00,,---,0.00,VWS V12.08,2013-03-18 04:51:00,
2013-03-18 00:55:00,62.7,60.0,30.02,SSW,203,0.0,23.0,91,0.00,,---,0.00,VWS V12.08,2013-03-18 04:55:00,
2013-03-18 00:56:00,62.7,60.0,30.01,SSW,203,0.0,23.0,91,0.00,,---,0.00,VWS V12.08,2013-03-18 04:56:00,
2013-03-18 00:59:00,62.6,59.9,30.02,SSW,203,0.0,23.0,91,0.00,,---,0.00,VWS V12.08,2013-03-18 04:59:00,
2013-03-18 01:00:00,62.6,59.9,30.01,SSW,203,0.0,23.0,91,0.00,,---,0.00,VWS V12.08,2013-03-18 05:00:00,
2013-03-18 01:01:00,62.6,59.9,30.01,SSW,203,0.0,23.0,91,0.00,,---,0.00,VWS V12.08,2013-03-18 05:01:00,
2013-03-18 01:02:00,62.7,60.0,30.01,SSW,203,0.0,23.0,91,0.00,,---,0.00,VWS V12.08,2013-03-18 05:02:00,
2013-03-18 01:03:00,62.5,59.8,30.01,SSW,203,0.0,23.0,91,0.00,,---,0.00,VWS V12.08,2013-03-18 05:03:00,
2013-03-18 01:04:00,62.5,59.8,30.01,SSW,203,0.0,23.0,91,0.00,,---,0.00,VWS V12.08,2013-03-18 05:04:00,
2013-03-18 01:05:00,62.5,59.8,30.01,SSW,203,0.0,23.0,91,0.00,,---,0.00,VWS V12.08,2013-03-18 05:05:00,
2013-03-18 01:06:00,62.5,59.8,30.01,SSW,203,0.0,23.0,91,0.00,,---,0.00,VWS V12.08,2013-03-18 05:06:00,
2013-03-18 01:07:00,62.7,60.0,30.02,SSW,203,0.0,23.0,91,0.00,,---,0.00,VWS V12.08,2013-03-18 05:07:00,
2013-03-18 01:08:00,62.5,59.8,30.01,SSW,203,0.0,23.0,91,0.00,,---,0.00,VWS V12.08,2013-03-18 05:08:00,
2013-03-18 01:09:00,62.4,59.7,30.01,SSW,203,0.0,23.0,91,0.00,,---,0.00,VWS V12.08,2013-03-18 05:09:00,
2013-03-18 01:10:00,62.4,59.7,30.01,SSW,203,0.0,23.0,91,0.00,,---,0.00,VWS V12.08,2013-03-18 05:10:00,
2013-03-18 01:11:00,62.4,59.7,30.01,SSW,203,0.0,23.0,91,0.00,,---,0.00,VWS V12.08,2013-03-18 05:11:00,
2013-03-18 01:12:00,62.6,59.9,30.01,SSW,203,0.0,23.0,91,0.00,,---,0.00,VWS V12.08,2013-03-18 05:12:00,
2013-03-18 01:13:00,62.4,60.0,30.01,SSW,203,0.0,23.0,92,0.00,,---,0.00,VWS V12.08,2013-03-18 05:13:00,
2013-03-18 01:14:00,62.4,60.0,30.01,SSW,203,0.0,23.0,92,0.00,,---,0.00,VWS V12.08,2013-03-18 05:14:00,
2013-03-18 01:15:00,62.4,60.0,30.01,SSW,203,0.0,23.0,92,0.00,,---,0.00,VWS V12.08,2013-03-18 05:15:00,
2013-03-18 01:17:00,62.5,59.8,30.01,SSW,203,0.0,23.0,91,0.00,,---,0.00,VWS V12.08,2013-03-18 05:17:00,
2013-03-18 01:18:00,62.4,60.0,30.01,SSW,203,0.0,23.0,92,0.00,,---,0.00,VWS V12.08,2013-03-18 05:18:00,
2013-03-18 01:19:00,62.3,60.0,30.01,SSW,203,0.0,23.0,92,0.00,,---,0.00,VWS V12.08,2013-03-18 05:19:00,
2013-03-18 01:20:00,62.3,60.0,30.01,SSW,203,0.0,23.0,92,0.00,,---,0.00,VWS V12.08,2013-03-18 05:20:00,
2013-03-18 01:21:00,62.3,60.0,30.01,SSW,203,0.0,23.0,92,0.00,,---,0.00,VWS V12.08,2013-03-18 05:21:00,
2013-03-18 01:22:00,62.4,59.7,30.01,SSW,203,0.0,23.0,91,0.00,,---,0.00,VWS V12.08,2013-03-18 05:22:00,
2013-03-18 01:23:00,62.3,60.0,30.01,SSW,203,0.0,23.0,92,0.00,,---,0.00,VWS V12.08,2013-03-18 05:23:00,
2013-03-18 01:24:00,62.3,60.0,30.01,SSW,203,0.0,23.0,92,0.00,,---,0.00,VWS V12.08,2013-03-18 05:24:00,
2013-03-18 01:25:00,62.2,59.8,30.01,SSW,203,0.0,23.0,92,0.00,,---,0.00,VWS V12.08,2013-03-18 05:25:00,
2013-03-18 01:26:00,62.2,59.8,30.01,SSW,203,0.0,23.0,92,0.00,,---,0.00,VWS V12.08,2013-03-18 05:26:00,
2013-03-18 01:27:00,62.4,60.0,30.01,SSW,203,0.0,23.0,92,0.00,,---,0.00,VWS V12.08,2013-03-18 05:27:00,
2013-03-18 01:28:00,62.2,59.8,30.01,SSW,203,0.0,23.0,92,0.00,,---,0.00,VWS V12.08,2013-03-18 05:28:00,
2013-03-18 01:29:00,62.2,59.8,30.00,SSW,203,0.0,23.0,92,0.00,,---,0.00,VWS V12.08,2013-03-18 05:29:00,
2013-03-18 01:30:00,62.2,59.8,30.01,SSW,203,0.0,23.0,92,0.00,,---,0.00,VWS V12.08,2013-03-18 05:30:00,
2013-03-18 01:31:00,62.2,59.8,30.01,SSW,203,0.0,23.0,92,0.00,,---,0.00,VWS V12.08,2013-03-18 05:31:00,
2013-03-18 01:32:00,62.3,60.0,30.01,SSW,203,0.0,23.0,92,0.00,,---,0.00,VWS V12.08,2013-03-18 05:32:00,
2013-03-18 01:33:00,62.1,59.8,30.01,SSW,203,0.0,23.0,92,0.00,,---,0.00,VWS V12.08,2013-03-18 05:33:00,
2013-03-18 01:34:00,62.1,59.8,30.01,SSW,203,0.0,23.0,92,0.00,,---,0.00,VWS V12.08,2013-03-18 05:34:00,
2013-03-18 01:35:00,62.1,59.8,30.01,SSW,203,0.0,23.0,92,0.00,,---,0.00,VWS V12.08,2013-03-18 05:35:00,
2013-03-18 01:36:00,62.1,59.8,30.00,SSW,203,0.0,23.0,92,0.00,,---,0.00,VWS V12.08,2013-03-18 05:36:00,
2013-03-18 01:37:00,62.2,59.8,30.00,SSW,203,0.0,23.0,92,0.00,,---,0.00,VWS V12.08,2013-03-18 05:37:00,
2013-03-18 01:38:00,62.2,59.8,30.00,SSW,203,0.0,23.0,92,0.00,,---,0.00,VWS V12.08,2013-03-18 05:38:00,
2013-03-18 01:39:00,62.1,59.8,30.00,SSW,203,0.0,23.0,92,0.00,,---,0.00,VWS V12.08,2013-03-18 05:39:00,
2013-03-18 01:40:00,62.2,59.8,30.00,SSW,203,0.0,23.0,92,0.00,,---,0.00,VWS V12.08,2013-03-18 05:40:00,
2013-03-18 01:41:00,62.1,59.8,30.00,SSW,203,0.0,23.0,92,0.00,,---,0.00,VWS V12.08,2013-03-18 05:41:00,
2013-03-18 01:42:00,62.1,59.8,30.00,SSW,203,0.0,23.0,92,0.00,,---,0.00,VWS V12.08,2013-03-18 05:42:00,
2013-03-18 01:43:00,62.2,59.8,30.01,SSW,203,0.0,23.0,92,0.00,,---,0.00,VWS V12.08,2013-03-18 05:43:00,
2013-03-18 01:45:00,62.1,59.8,30.00,SSW,203,0.0,23.0,92,0.00,,---,0.00,VWS V12.08,2013-03-18 05:45:00,
2013-03-18 01:46:00,62.1,59.8,30.00,SSW,203,0.0,23.0,92,0.00,,---,0.00,VWS V12.08,2013-03-18 05:46:00,
2013-03-18 01:47:00,62.0,59.7,30.00,SSW,203,0.0,23.0,92,0.00,,---,0.00,VWS V12.08,2013-03-18 05:47:00,
2013-03-18 01:48:00,62.0,59.7,30.01,SSW,203,0.0,23.0,92,0.00,,---,0.00,VWS V12.08,2013-03-18 05:48:00,
2013-03-18 01:49:00,62.2,59.8,30.00,SSW,203,0.0,23.0,92,0.00,,---,0.00,VWS V12.08,2013-03-18 05:49:00,
2013-03-18 01:50:00,62.0,59.7,30.00,SSW,203,0.0,23.0,92,0.00,,---,0.00,VWS V12.08,2013-03-18 05:50:00,
2013-03-18 01:52:00,61.9,59.5,30.00,SSW,203,0.0,23.0,92,0.00,,---,0.00,VWS V12.08,2013-03-18 05:52:00,
2013-03-18 01:54:00,62.1,59.8,30.00,SSW,203,1.0,23.0,92,0.00,,---,0.00,VWS V12.08,2013-03-18 05:54:00,
2013-03-18 01:55:00,61.8,59.8,30.00,SSW,203,0.0,23.0,93,0.00,,---,0.00,VWS V12.08,2013-03-18 05:55:00,
2013-03-18 01:56:00,61.8,59.8,30.00,SSW,203,0.0,23.0,93,0.00,,---,0.00,VWS V12.08,2013-03-18 05:56:00,
2013-03-18 01:57:00,61.8,59.8,30.00,SSW,203,0.0,23.0,93,0.00,,---,0.00,VWS V12.08,2013-03-18 05:57:00,
2013-03-18 01:58:00,61.8,59.8,30.00,SSW,203,0.0,23.0,93,0.00,,---,0.00,VWS V12.08,2013-03-18 05:58:00,
2013-03-18 01:59:00,62.0,59.7,30.01,SSW,203,0.0,23.0,92,0.00,,---,0.00,VWS V12.08,2013-03-18 05:59:00,
2013-03-18 02:00:00,61.8,59.8,30.00,SSW,203,0.0,23.0,93,0.00,,---,0.00,VWS V12.08,2013-03-18 06:00:00,
2013-03-18 02:01:00,61.8,59.8,30.01,SSW,203,0.0,23.0,93,0.00,,---,0.00,VWS V12.08,2013-03-18 06:01:00,
2013-03-18 02:02:00,61.8,59.8,30.00,SSW,203,0.0,23.0,93,0.00,,---,0.00,VWS V12.08,2013-03-18 06:02:00,
2013-03-18 02:03:00,61.8,59.8,30.00,SSW,203,0.0,23.0,93,0.00,,---,0.00,VWS V12.08,2013-03-18 06:03:00,
2013-03-18 02:04:00,61.8,59.5,30.00,SSW,203,0.0,23.0,92,0.00,,---,0.00,VWS V12.08,2013-03-18 06:04:00,
2013-03-18 02:05:00,61.9,59.9,30.01,SSW,203,3.0,23.0,93,0.00,,---,0.00,VWS V12.08,2013-03-18 06:05:00,
2013-03-18 02:06:00,61.9,59.9,30.00,SSW,203,0.0,23.0,93,0.00,,---,0.00,VWS V12.08,2013-03-18 06:06:00,
2013-03-18 02:07:00,61.9,59.9,30.00,SSW,203,0.0,23.0,93,0.00,,---,0.00,VWS V12.08,2013-03-18 06:07:00,
2013-03-18 02:08:00,61.9,59.9,30.00,SSW,203,3.0,23.0,93,0.00,,---,0.00,VWS V12.08,2013-03-18 06:08:00,
2013-03-18 02:09:00,61.8,59.8,30.00,SSW,203,0.0,23.0,93,0.00,,---,0.00,VWS V12.08,2013-03-18 06:09:00,
2013-03-18 02:10:00,61.9,59.9,30.00,SSW,203,0.0,23.0,93,0.00,,---,0.00,VWS V12.08,2013-03-18 06:10:00,
2013-03-18 02:11:00,61.9,59.9,30.00,SSW,203,0.0,23.0,93,0.00,,---,0.00,VWS V12.08,2013-03-18 06:11:00,
2013-03-18 02:12:00,61.9,59.9,30.00,SSW,203,0.0,23.0,93,0.00,,---,0.00,VWS V12.08,2013-03-18 06:12:00,
2013-03-18 02:13:00,61.9,59.9,30.00,SSW,203,0.0,23.0,93,0.00,,---,0.00,VWS V12.08,2013-03-18 06:13:00,
2013-03-18 02:14:00,61.9,59.9,30.00,SSW,203,0.0,23.0,93,0.00,,---,0.00,VWS V12.08,2013-03-18 06:14:00,
2013-03-18 02:15:00,61.8,59.8,30.00,SSW,203,1.0,23.0,93,0.00,,---,0.00,VWS V12.08,2013-03-18 06:15:00,
2013-03-18 02:16:00,61.9,59.9,30.00,SSW,203,0.0,23.0,93,0.00,,---,0.00,VWS V12.08,2013-03-18 06:16:00,
2013-03-18 02:17:00,61.9,59.9,30.00,SSW,203,0.0,23.0,93,0.00,,---,0.00,VWS V12.08,2013-03-18 06:17:00,
2013-03-18 02:18:00,61.9,59.9,30.00,SSW,203,0.0,23.0,93,0.00,,---,0.00,VWS V12.08,2013-03-18 06:18:00,
2013-03-18 02:19:00,62.0,60.0,30.00,SSW,203,0.0,23.0,93,0.00,,---,0.00,VWS V12.08,2013-03-18 06:19:00,
2013-03-18 02:20:00,62.0,60.0,30.00,SSW,203,0.0,23.0,93,0.00,,---,0.00,VWS V12.08,2013-03-18 06:20:00,
2013-03-18 02:21:00,62.0,60.0,30.00,SSW,203,0.0,23.0,93,0.00,,---,0.00,VWS V12.08,2013-03-18 06:21:00,
2013-03-18 02:22:00,62.0,60.0,30.00,SSW,203,1.0,23.0,93,0.00,,---,0.00,VWS V12.08,2013-03-18 06:22:00,
2013-03-18 02:23:00,62.0,60.0,29.99,SSW,203,0.0,23.0,93,0.00,,---,0.00,VWS V12.08,2013-03-18 06:23:00,
2013-03-18 02:24:00,62.0,60.0,29.99,SSW,203,0.0,23.0,93,0.00,,---,0.00,VWS V12.08,2013-03-18 06:24:00,
2013-03-18 02:25:00,62.0,60.0,29.99,SSW,203,0.0,23.0,93,0.00,,---,0.00,VWS V12.08,2013-03-18 06:25:00,
2013-03-18 02:26:00,61.9,59.9,30.00,SSW,203,0.0,23.0,93,0.00,,---,0.00,VWS V12.08,2013-03-18 06:26:00,
2013-03-18 02:27:00,62.0,60.0,29.99,SSW,203,0.0,23.0,93,0.00,,---,0.00,VWS V12.08,2013-03-18 06:27:00,
2013-03-18 02:28:00,62.1,60.1,29.99,SSW,203,0.0,23.0,93,0.00,,---,0.00,VWS V12.08,2013-03-18 06:28:00,
2013-03-18 02:31:00,62.1,60.1,29.99,SSW,203,0.0,23.0,93,0.00,,---,0.00,VWS V12.08,2013-03-18 06:31:00,
2013-03-18 02:32:00,62.0,60.0,30.00,SSW,203,2.0,23.0,93,0.00,,---,0.00,VWS V12.08,2013-03-18 06:32:00,
2013-03-18 02:33:00,62.1,60.1,29.99,SSW,203,0.0,23.0,93,0.00,,---,0.00,VWS V12.08,2013-03-18 06:33:00,
2013-03-18 02:34:00,62.1,60.1,29.99,SSW,203,0.0,23.0,93,0.00,,---,0.00,VWS V12.08,2013-03-18 06:34:00,
2013-03-18 02:35:00,62.2,60.2,29.99,SSW,203,0.0,23.0,93,0.00,,---,0.00,VWS V12.08,2013-03-18 06:35:00,
2013-03-18 02:36:00,62.2,60.2,29.99,SSW,203,0.0,23.0,93,0.00,,---,0.00,VWS V12.08,2013-03-18 06:36:00,
2013-03-18 02:37:00,62.0,60.0,29.99,SSW,203,0.0,23.0,93,0.00,,---,0.00,VWS V12.08,2013-03-18 06:37:00,
2013-03-18 02:38:00,62.2,60.2,29.99,SSW,203,0.0,23.0,93,0.00,,---,0.00,VWS V12.08,2013-03-18 06:38:00,
2013-03-18 02:39:00,62.2,60.2,29.99,SSW,203,0.0,23.0,93,0.00,,---,0.00,VWS V12.08,2013-03-18 06:39:00,
2013-03-18 02:40:00,62.3,60.2,29.99,SSW,203,0.0,23.0,93,0.00,,---,0.00,VWS V12.08,2013-03-18 06:40:00,
2013-03-18 02:41:00,62.3,60.2,29.99,SSW,203,0.0,23.0,93,0.00,,---,0.00,VWS V12.08,2013-03-18 06:41:00,
2013-03-18 02:42:00,62.3,60.2,29.99,SSW,203,0.0,23.0,93,0.00,,---,0.00,VWS V12.08,2013-03-18 06:42:00,
2013-03-18 02:43:00,62.1,60.1,29.99,SSW,203,0.0,23.0,93,0.00,,---,0.00,VWS V12.08,2013-03-18 06:43:00,
2013-03-18 02:44:00,62.3,60.2,29.99,SSW,203,0.0,23.0,93,0.00,,---,0.00,VWS V12.08,2013-03-18 06:44:00,
2013-03-18 02:45:00,62.3,60.2,29.99,SSW,203,0.0,23.0,93,0.00,,---,0.00,VWS V12.08,2013-03-18 06:45:00,
2013-03-18 02:46:00,62.3,60.2,29.99,SSW,203,0.0,23.0,93,0.00,,---,0.00,VWS V12.08,2013-03-18 06:46:00,
2013-03-18 02:47:00,62.3,60.2,29.99,SSW,203,0.0,23.0,93,0.00,,---,0.00,VWS V12.08,2013-03-18 06:47:00,
2013-03-18 02:48:00,62.2,60.2,29.99,SSW,203,2.0,23.0,93,0.00,,---,0.00,VWS V12.08,2013-03-18 06:48:00,
2013-03-18 02:50:00,62.3,60.2,29.99,SSW,203,0.0,23.0,93,0.00,,---,0.00,VWS V12.08,2013-03-18 06:50:00,
2013-03-18 02:51:00,62.3,60.2,29.99,SSW,203,0.0,23.0,93,0.00,,---,0.00,VWS V12.08,2013-03-18 06:51:00,
2013-03-18 02:52:00,62.3,60.2,29.99,SSW,203,0.0,23.0,93,0.00,,---,0.00,VWS V12.08,2013-03-18 06:52:00,
2013-03-18 02:53:00,62.3,60.2,29.99,SSW,203,0.0,23.0,93,0.00,,---,0.00,VWS V12.08,2013-03-18 06:53:00,
2013-03-18 02:54:00,62.3,60.2,29.99,SSW,203,0.0,23.0,93,0.00,,---,0.00,VWS V12.08,2013-03-18 06:54:00,
2013-03-18 02:55:00,62.3,60.2,29.99,SSW,203,0.0,23.0,93,0.00,,---,0.00,VWS V12.08,2013-03-18 06:55:00,
2013-03-18 02:56:00,62.3,60.2,29.99,SSW,203,0.0,23.0,93,0.00,,---,0.00,VWS V12.08,2013-03-18 06:56:00,
2013-03-18 02:57:00,62.3,60.2,29.98,SSW,203,0.0,23.0,93,0.00,,---,0.00,VWS V12.08,2013-03-18 06:57:00,
2013-03-18 02:58:00,62.3,60.0,29.98,SSW,203,0.0,23.0,92,0.00,,---,0.00,VWS V12.08,2013-03-18 06:58:00,
2013-03-18 02:59:00,62.3,60.2,29.99,SSW,203,0.0,23.0,93,0.00,,---,0.00,VWS V12.08,2013-03-18 06:59:00,
2013-03-18 03:00:00,62.3,60.0,29.98,SSW,203,0.0,23.0,92,0.00,,---,0.00,VWS V12.08,2013-03-18 07:00:00,
2013-03-18 03:01:00,62.3,60.0,29.98,SSW,203,0.0,23.0,92,0.00,,---,0.00,VWS V12.08,2013-03-18 07:01:00,
2013-03-18 03:02:00,62.3,60.0,29.98,SSW,203,0.0,23.0,92,0.00,,---,0.00,VWS V12.08,2013-03-18 07:02:00,
2013-03-18 03:03:00,62.3,60.0,29.98,SSW,203,0.0,23.0,92,0.00,,---,0.00,VWS V12.08,2013-03-18 07:03:00,
2013-03-18 03:04:00,62.3,60.2,29.99,SSW,203,0.0,23.0,93,0.00,,---,0.00,VWS V12.08,2013-03-18 07:04:00,
2013-03-18 03:05:00,62.3,60.0,29.98,SSW,203,0.0,23.0,92,0.00,,---,0.00,VWS V12.08,2013-03-18 07:05:00,
2013-03-18 03:07:00,62.3,60.0,29.98,SSW,203,0.0,23.0,92,0.00,,---,0.00,VWS V12.08,2013-03-18 07:07:00,
2013-03-18 03:08:00,62.3,60.0,29.98,SSW,203,0.0,23.0,92,0.00,,---,0.00,VWS V12.08,2013-03-18 07:08:00,
2013-03-18 03:09:00,62.3,60.0,29.98,SSW,203,0.0,23.0,92,0.00,,---,0.00,VWS V12.08,2013-03-18 07:09:00,
2013-03-18 03:10:00,62.3,60.0,29.98,SSW,203,0.0,23.0,92,0.00,,---,0.00,VWS V12.08,2013-03-18 07:10:00,
2013-03-18 03:11:00,62.3,60.0,29.98,SSW,203,0.0,23.0,92,0.00,,---,0.00,VWS V12.08,2013-03-18 07:11:00,
2013-03-18 03:12:00,62.3,60.0,29.98,SSW,203,0.0,23.0,92,0.00,,---,0.00,VWS V12.08,2013-03-18 07:12:00,
2013-03-18 03:13:00,62.3,60.0,29.98,SSW,203,0.0,23.0,92,0.00,,---,0.00,VWS V12.08,2013-03-18 07:13:00,
2013-03-18 03:14:00,62.3,60.0,29.98,SSW,203,0.0,23.0,92,0.00,,---,0.00,VWS V12.08,2013-03-18 07:14:00,
2013-03-18 03:15:00,62.3,60.0,29.98,SSW,203,0.0,23.0,92,0.00,,---,0.00,VWS V12.08,2013-03-18 07:15:00,
2013-03-18 03:16:00,62.4,60.0,29.98,SSW,203,0.0,23.0,92,0.00,,---,0.00,VWS V12.08,2013-03-18 07:16:00,
2013-03-18 03:17:00,62.4,60.0,29.98,SSW,203,0.0,23.0,92,0.00,,---,0.00,VWS V12.08,2013-03-18 07:17:00,
2013-03-18 03:18:00,62.3,60.0,29.98,SSW,203,0.0,23.0,92,0.00,,---,0.00,VWS V12.08,2013-03-18 07:18:00,
2013-03-18 03:19:00,62.3,60.0,29.98,SSW,203,0.0,23.0,92,0.00,,---,0.00,VWS V12.08,2013-03-18 07:19:00,
2013-03-18 03:20:00,62.3,60.0,29.98,SSW,203,0.0,23.0,92,0.00,,---,0.00,VWS V12.08,2013-03-18 07:20:00,
2013-03-18 03:21:00,62.3,60.0,29.98,SSW,203,0.0,23.0,92,0.00,,---,0.00,VWS V12.08,2013-03-18 07:21:00,
2013-03-18 03:22:00,62.3,60.0,29.98,SSW,203,0.0,23.0,92,0.00,,---,0.00,VWS V12.08,2013-03-18 07:22:00,
2013-03-18 03:23:00,62.3,60.0,29.98,SSW,203,0.0,23.0,92,0.00,,---,0.00,VWS V12.08,2013-03-18 07:23:00,
2013-03-18 03:24:00,62.3,60.0,29.98,SSW,203,0.0,23.0,92,0.00,,---,0.00,VWS V12.08,2013-03-18 07:24:00,
2013-03-18 03:25:00,62.3,60.0,29.98,SSW,203,0.0,23.0,92,0.00,,---,0.00,VWS V12.08,2013-03-18 07:25:00,
2013-03-18 03:26:00,62.3,60.0,29.99,SSW,203,0.0,23.0,92,0.00,,---,0.00,VWS V12.08,2013-03-18 07:26:00,
2013-03-18 03:27:00,62.2,59.8,29.99,SSW,203,0.0,23.0,92,0.00,,---,0.00,VWS V12.08,2013-03-18 07:27:00,
2013-03-18 03:28:00,62.2,59.8,29.99,SSW,203,0.0,23.0,92,0.00,,---,0.00,VWS V12.08,2013-03-18 07:28:00,
2013-03-18 03:29:00,62.3,60.0,29.98,SSW,203,0.0,23.0,92,0.00,,---,0.00,VWS V12.08,2013-03-18 07:29:00,
2013-03-18 03:30:00,62.2,59.8,29.98,SSW,203,0.0,23.0,92,0.00,,---,0.00,VWS V12.08,2013-03-18 07:30:00,
2013-03-18 03:31:00,62.1,59.8,29.98,SSW,203,0.0,23.0,92,0.00,,---,0.00,VWS V12.08,2013-03-18 07:31:00,
2013-03-18 03:32:00,62.1,59.8,29.98,SSW,203,0.0,23.0,92,0.00,,---,0.00,VWS V12.08,2013-03-18 07:32:00,
2013-03-18 03:33:00,62.1,59.8,29.98,SSW,203,0.0,23.0,92,0.00,,---,0.00,VWS V12.08,2013-03-18 07:33:00,
2013-03-18 03:34:00,62.3,60.0,29.98,SSW,203,0.0,23.0,92,0.00,,---,0.00,VWS V12.08,2013-03-18 07:34:00,
2013-03-18 03:35:00,62.1,59.8,29.98,SSW,203,0.0,23.0,92,0.00,,---,0.00,VWS V12.08,2013-03-18 07:35:00,
2013-03-18 03:36:00,62.1,59.8,29.98,SSW,203,0.0,23.0,92,0.00,,---,0.00,VWS V12.08,2013-03-18 07:36:00,
2013-03-18 03:37:00,62.0,60.0,29.98,SSW,203,0.0,23.0,93,0.00,,---,0.00,VWS V12.08,2013-03-18 07:37:00,
2013-03-18 03:38:00,62.0,60.0,29.98,SSW,203,0.0,23.0,93,0.00,,---,0.00,VWS V12.08,2013-03-18 07:38:00,
2013-03-18 03:39:00,62.0,60.0,29.98,SSW,203,0.0,23.0,93,0.00,,---,0.00,VWS V12.08,2013-03-18 07:39:00,
2013-03-18 03:40:00,62.0,60.0,29.98,SSW,203,0.0,23.0,93,0.00,,---,0.00,VWS V12.08,2013-03-18 07:40:00,
2013-03-18 03:41:00,62.0,60.0,29.99,SSW,203,0.0,23.0,93,0.00,,---,0.00,VWS V12.08,2013-03-18 07:41:00,
2013-03-18 03:42:00,62.0,60.0,29.98,SSW,203,0.0,23.0,93,0.00,,---,0.00,VWS V12.08,2013-03-18 07:42:00,
2013-03-18 03:43:00,62.0,60.0,29.98,SSW,203,0.0,23.0,93,0.00,,---,0.00,VWS V12.08,2013-03-18 07:43:00,
2013-03-18 03:44:00,61.9,59.9,29.98,SSW,203,0.0,23.0,93,0.00,,---,0.00,VWS V12.08,2013-03-18 07:44:00,
2013-03-18 03:45:00,61.9,59.9,29.98,SSW,203,0.0,23.0,93,0.00,,---,0.00,VWS V12.08,2013-03-18 07:45:00,
2013-03-18 03:46:00,61.9,59.9,29.98,SSW,203,0.0,23.0,93,0.00,,---,0.00,VWS V12.08,2013-03-18 07:46:00,
2013-03-18 03:47:00,62.0,59.7,29.98,SSW,203,0.0,23.0,92,0.00,,---,0.00,VWS V12.08,2013-03-18 07:47:00,
2013-03-18 03:48:00,61.8,59.8,29.98,SSW,203,0.0,23.0,93,0.00,,---,0.00,VWS V12.08,2013-03-18 07:48:00,
2013-03-18 03:49:00,61.8,59.8,29.99,SSW,203,0.0,23.0,93,0.00,,---,0.00,VWS V12.08,2013-03-18 07:49:00,
2013-03-18 03:50:00,61.8,59.8,29.99,SSW,203,0.0,23.0,93,0.00,,---,0.00,VWS V12.08,2013-03-18 07:50:00,
2013-03-18 03:51:00,61.8,59.8,29.99,SSW,203,0.0,23.0,93,0.00,,---,0.00,VWS V12.08,2013-03-18 07:51:00,
2013-03-18 03:52:00,62.0,60.0,29.99,SSW,203,0.0,23.0,93,0.00,,---,0.00,VWS V12.08,2013-03-18 07:52:00,
2013-03-18 03:54:00,61.7,59.4,29.99,SSW,203,0.0,23.0,92,0.00,,---,0.00,VWS V12.08,2013-03-18 07:54:00,
2013-03-18 03:55:00,61.6,59.3,29.99,SSW,203,0.0,23.0,92,0.00,,---,0.00,VWS V12.08,2013-03-18 07:55:00,
2013-03-18 03:56:00,61.6,59.3,29.99,SSW,203,0.0,23.0,92,0.00,,---,0.00,VWS V12.08,2013-03-18 07:56:00,
2013-03-18 03:57:00,61.9,59.9,29.98,SSW,203,0.0,23.0,93,0.00,,---,0.00,VWS V12.08,2013-03-18 07:57:00,
2013-03-18 03:58:00,61.5,59.2,29.99,SSW,203,1.0,23.0,92,0.00,,---,0.00,VWS V12.08,2013-03-18 07:58:00,
2013-03-18 03:59:00,61.4,59.1,29.99,SSW,203,0.0,23.0,92,0.00,,---,0.00,VWS V12.08,2013-03-18 07:59:00,
2013-03-18 04:00:00,61.4,59.4,29.99,SSW,203,0.0,23.0,93,0.00,,---,0.00,VWS V12.08,2013-03-18 08:00:00,
2013-03-18 04:01:00,61.3,59.3,29.99,SSW,203,0.0,23.0,93,0.00,,---,0.00,VWS V12.08,2013-03-18 08:01:00,
2013-03-18 04:02:00,61.3,59.3,29.99,SSW,203,0.0,23.0,93,0.00,,---,0.00,VWS V12.08,2013-03-18 08:02:00,
2013-03-18 04:03:00,61.7,59.7,29.99,SSW,203,0.0,23.0,93,0.00,,---,0.00,VWS V12.08,2013-03-18 08:03:00,
2013-03-18 04:04:00,61.3,59.3,29.99,SSW,203,0.0,23.0,93,0.00,,---,0.00,VWS V12.08,2013-03-18 08:04:00,
2013-03-18 04:05:00,61.3,59.3,29.99,SSW,203,0.0,23.0,93,0.00,,---,0.00,VWS V12.08,2013-03-18 08:05:00,
2013-03-18 04:06:00,61.3,59.3,29.98,SSW,203,0.0,23.0,93,0.00,,---,0.00,VWS V12.08,2013-03-18 08:06:00,
2013-03-18 04:07:00,61.3,59.3,29.98,SSW,203,0.0,23.0,93,0.00,,---,0.00,VWS V12.08,2013-03-18 08:07:00,
2013-03-18 04:08:00,61.6,59.3,29.99,SSW,203,0.0,23.0,92,0.00,,---,0.00,VWS V12.08,2013-03-18 08:08:00,
2013-03-18 04:09:00,61.3,59.3,29.98,SSW,203,0.0,23.0,93,0.00,,---,0.00,VWS V12.08,2013-03-18 08:09:00,
2013-03-18 04:10:00,61.2,59.2,29.98,SSW,203,0.0,23.0,93,0.00,,---,0.00,VWS V12.08,2013-03-18 08:10:00,
2013-03-18 04:11:00,61.2,59.2,29.98,SSW,203,0.0,23.0,93,0.00,,---,0.00,VWS V12.08,2013-03-18 08:11:00,
2013-03-18 04:12:00,61.2,59.2,29.98,SSW,203,0.0,23.0,93,0.00,,---,0.00,VWS V12.08,2013-03-18 08:12:00,
2013-03-18 04:13:00,61.3,59.3,29.99,SSW,203,0.0,23.0,93,0.00,,---,0.00,VWS V12.08,2013-03-18 08:13:00,
2013-03-18 04:14:00,61.2,59.2,29.99,SSW,203,0.0,23.0,93,0.00,,---,0.00,VWS V12.08,2013-03-18 08:14:00,
2013-03-18 04:15:00,61.2,59.5,29.99,SSW,203,0.0,23.0,94,0.00,,---,0.00,VWS V12.08,2013-03-18 08:15:00,
2013-03-18 04:16:00,61.2,59.5,29.99,SSW,203,0.0,23.0,94,0.00,,---,0.00,VWS V12.08,2013-03-18 08:16:00,
2013-03-18 04:17:00,61.3,59.6,29.99,SSW,203,0.0,23.0,94,0.00,,---,0.00,VWS V12.08,2013-03-18 08:17:00,
2013-03-18 04:18:00,61.3,59.6,29.99,SSW,203,0.0,23.0,94,0.00,,---,0.00,VWS V12.08,2013-03-18 08:18:00,
2013-03-18 04:19:00,61.3,59.3,29.98,SSW,203,0.0,23.0,93,0.00,,---,0.00,VWS V12.08,2013-03-18 08:19:00,
2013-03-18 04:20:00,61.3,59.6,29.99,SSW,203,0.0,23.0,94,0.00,,---,0.00,VWS V12.08,2013-03-18 08:20:00,
2013-03-18 04:24:00,61.2,59.2,29.99,SSW,203,0.0,23.0,93,0.00,,---,0.00,VWS V12.08,2013-03-18 08:24:00,
2013-03-18 04:25:00,61.3,59.6,29.99,SSW,203,0.0,23.0,94,0.00,,---,0.00,VWS V12.08,2013-03-18 08:25:00,
2013-03-18 04:26:00,61.3,59.6,29.99,SSW,203,0.0,23.0,94,0.00,,---,0.00,VWS V12.08,2013-03-18 08:26:00,
2013-03-18 04:27:00,61.3,59.6,29.99,SSW,203,0.0,23.0,94,0.00,,---,0.00,VWS V12.08,2013-03-18 08:27:00,
2013-03-18 04:28:00,61.2,59.5,29.99,SSW,203,0.0,23.0,94,0.00,,---,0.00,VWS V12.08,2013-03-18 08:28:00,
2013-03-18 04:29:00,61.3,59.6,29.99,SSW,203,0.0,23.0,94,0.00,,---,0.00,VWS V12.08,2013-03-18 08:29:00,
2013-03-18 04:30:00,61.2,59.5,29.98,SSW,203,0.0,23.0,94,0.00,,---,0.00,VWS V12.08,2013-03-18 08:30:00,
2013-03-18 04:31:00,61.2,59.5,29.98,SSW,203,0.0,23.0,94,0.00,,---,0.00,VWS V12.08,2013-03-18 08:31:00,
2013-03-18 04:32:00,61.2,59.5,29.98,SSW,203,0.0,23.0,94,0.00,,---,0.00,VWS V12.08,2013-03-18 08:32:00,
2013-03-18 04:33:00,61.2,59.5,29.98,SSW,203,0.0,23.0,94,0.00,,---,0.00,VWS V12.08,2013-03-18 08:33:00,
2013-03-18 04:34:00,61.3,59.6,29.99,SSW,203,0.0,23.0,94,0.00,,---,0.00,VWS V12.08,2013-03-18 08:34:00,
2013-03-18 04:35:00,61.2,59.5,29.98,SSW,203,0.0,23.0,94,0.00,,---,0.00,VWS V12.08,2013-03-18 08:35:00,
2013-03-18 04:36:00,61.1,59.4,29.98,SSW,203,0.0,23.0,94,0.00,,---,0.00,VWS V12.08,2013-03-18 08:36:00,
2013-03-18 04:37:00,61.1,59.4,29.98,SSW,203,0.0,23.0,94,0.00,,---,0.00,VWS V12.08,2013-03-18 08:37:00,
2013-03-18 04:38:00,61.1,59.4,29.98,SSW,203,0.0,23.0,94,0.00,,---,0.00,VWS V12.08,2013-03-18 08:38:00,
2013-03-18 04:39:00,61.2,59.5,29.98,SSW,203,0.0,23.0,94,0.00,,---,0.00,VWS V12.08,2013-03-18 08:39:00,
2013-03-18 04:40:00,61.1,59.4,29.98,SSW,203,0.0,23.0,94,0.00,,---,0.00,VWS V12.08,2013-03-18 08:40:00,
2013-03-18 04:41:00,61.0,59.3,29.98,SSW,203,0.0,23.0,94,0.00,,---,0.00,VWS V12.08,2013-03-18 08:41:00,
2013-03-18 04:42:00,61.0,59.3,29.98,SSW,203,0.0,23.0,94,0.00,,---,0.00,VWS V12.08,2013-03-18 08:42:00,
2013-03-18 04:43:00,61.0,59.3,29.98,SSW,203,0.0,23.0,94,0.00,,---,0.00,VWS V12.08,2013-03-18 08:43:00,
2013-03-18 04:44:00,61.0,59.3,29.98,SSW,203,0.0,23.0,94,0.00,,---,0.00,VWS V12.08,2013-03-18 08:44:00,
2013-03-18 04:45:00,61.2,59.5,29.98,SSW,203,0.0,23.0,94,0.00,,---,0.00,VWS V12.08,2013-03-18 08:45:00,
2013-03-18 04:46:00,60.9,59.2,29.98,SSW,203,0.0,23.0,94,0.00,,---,0.00,VWS V12.08,2013-03-18 08:46:00,
2013-03-18 04:47:00,60.9,59.2,29.98,SSW,203,0.0,23.0,94,0.00,,---,0.00,VWS V12.08,2013-03-18 08:47:00,
2013-03-18 04:48:00,60.9,59.2,29.98,SSW,203,0.0,23.0,94,0.00,,---,0.00,VWS V12.08,2013-03-18 08:48:00,
2013-03-18 04:49:00,60.9,59.2,29.98,SSW,203,0.0,23.0,94,0.00,,---,0.00,VWS V12.08,2013-03-18 08:49:00,
2013-03-18 04:50:00,61.1,59.4,29.98,SSW,203,0.0,23.0,94,0.00,,---,0.00,VWS V12.08,2013-03-18 08:50:00,
2013-03-18 04:51:00,60.9,59.2,29.98,SSW,203,0.0,23.0,94,0.00,,---,0.00,VWS V12.08,2013-03-18 08:51:00,
2013-03-18 04:52:00,60.9,59.2,29.98,SSW,203,0.0,23.0,94,0.00,,---,0.00,VWS V12.08,2013-03-18 08:52:00,
2013-03-18 04:53:00,60.9,59.2,29.98,SSW,203,0.0,23.0,94,0.00,,---,0.00,VWS V12.08,2013-03-18 08:53:00,
2013-03-18 04:54:00,60.8,59.1,29.98,SSW,203,0.0,23.0,94,0.00,,---,0.00,VWS V12.08,2013-03-18 08:54:00,
2013-03-18 04:55:00,61.0,59.3,29.98,SSW,203,0.0,23.0,94,0.00,,---,0.00,VWS V12.08,2013-03-18 08:55:00,
2013-03-18 04:57:00,60.8,59.1,29.97,SSW,203,0.0,23.0,94,0.00,,---,0.00,VWS V12.08,2013-03-18 08:57:00,
2013-03-18 04:58:00,60.8,59.1,29.97,SSW,203,2.0,23.0,94,0.00,,---,0.00,VWS V12.08,2013-03-18 08:58:00,
2013-03-18 04:59:00,60.7,59.0,29.98,SSW,203,1.0,23.0,94,0.00,,---,0.00,VWS V12.08,2013-03-18 08:59:00,
2013-03-18 05:00:00,60.7,59.0,29.98,SSW,203,2.0,23.0,94,0.00,,---,0.00,VWS V12.08,2013-03-18 09:00:00,
2013-03-18 05:01:00,60.9,59.2,29.98,SSW,203,0.0,23.0,94,0.00,,---,0.00,VWS V12.08,2013-03-18 09:01:00,
2013-03-18 05:02:00,60.8,59.1,29.98,SSW,203,0.0,23.0,94,0.00,,---,0.00,VWS V12.08,2013-03-18 09:02:00,
2013-03-18 05:04:00,60.9,59.2,29.98,SSW,203,0.0,23.0,94,0.00,,---,0.00,VWS V12.08,2013-03-18 09:04:00,
2013-03-18 05:05:00,60.9,59.2,29.98,SSW,203,0.0,23.0,94,0.00,,---,0.00,VWS V12.08,2013-03-18 09:05:00,
2013-03-18 05:06:00,60.9,59.2,29.98,SSW,203,0.0,23.0,94,0.00,,---,0.00,VWS V12.08,2013-03-18 09:06:00,
2013-03-18 05:07:00,60.8,59.1,29.97,SSW,203,0.0,23.0,94,0.00,,---,0.00,VWS V12.08,2013-03-18 09:07:00,
2013-03-18 05:12:00,60.7,59.0,29.98,SSW,203,0.0,23.0,94,0.00,,---,0.00,VWS V12.08,2013-03-18 09:12:00,
2013-03-18 05:14:00,61.1,59.4,29.97,SSW,203,0.0,23.0,94,0.00,,---,0.00,VWS V12.08,2013-03-18 09:14:00,
2013-03-18 05:16:00,61.1,59.4,29.97,SSW,203,4.0,23.0,94,0.00,,---,0.00,VWS V12.08,2013-03-18 09:16:00,
2013-03-18 05:17:00,60.9,59.2,29.98,SSW,203,1.0,23.0,94,0.00,,---,0.00,VWS V12.08,2013-03-18 09:17:00,
2013-03-18 05:18:00,61.1,59.4,29.97,SSW,203,2.0,23.0,94,0.00,,---,0.00,VWS V12.08,2013-03-18 09:18:00,
2013-03-18 05:19:00,61.2,59.5,29.97,SSW,203,4.0,23.0,94,0.00,,---,0.00,VWS V12.08,2013-03-18 09:19:00,
2013-03-18 05:21:00,61.2,59.5,29.97,SSW,203,1.0,23.0,94,0.00,,---,0.00,VWS V12.08,2013-03-18 09:21:00,
2013-03-18 05:22:00,61.0,59.3,29.97,SSW,203,0.0,23.0,94,0.00,,---,0.00,VWS V12.08,2013-03-18 09:22:00,
2013-03-18 05:23:00,61.3,59.6,29.97,SSW,203,4.0,23.0,94,0.00,,---,0.00,VWS V12.08,2013-03-18 09:23:00,
2013-03-18 05:24:00,61.3,59.6,29.97,SSW,203,0.0,23.0,94,0.00,,---,0.00,VWS V12.08,2013-03-18 09:24:00,
2013-03-18 05:25:00,61.3,59.6,29.97,SSW,203,2.0,23.0,94,0.00,,---,0.00,VWS V12.08,2013-03-18 09:25:00,
2013-03-18 05:26:00,61.3,59.6,29.97,SSW,203,0.0,23.0,94,0.00,,---,0.00,VWS V12.08,2013-03-18 09:26:00,
2013-03-18 05:27:00,61.1,59.4,29.97,SSW,203,4.0,23.0,94,0.00,,---,0.00,VWS V12.08,2013-03-18 09:27:00,
2013-03-18 05:28:00,61.4,59.7,29.97,SSW,203,0.0,23.0,94,0.00,,---,0.00,VWS V12.08,2013-03-18 09:28:00,
2013-03-18 05:29:00,61.4,59.7,29.98,SSW,203,0.0,23.0,94,0.00,,---,0.00,VWS V12.08,2013-03-18 09:29:00,
2013-03-18 05:30:00,61.4,59.7,29.98,SSW,203,0.0,23.0,94,0.00,,---,0.00,VWS V12.08,2013-03-18 09:30:00,
2013-03-18 05:31:00,61.5,59.8,29.98,SSW,203,0.0,23.0,94,0.00,,---,0.00,VWS V12.08,2013-03-18 09:31:00,
2013-03-18 05:32:00,61.2,59.5,29.97,SSW,203,2.0,23.0,94,0.00,,---,0.00,VWS V12.08,2013-03-18 09:32:00,
2013-03-18 05:33:00,61.6,59.9,29.98,SSW,203,3.0,23.0,94,0.00,,---,0.00,VWS V12.08,2013-03-18 09:33:00,
2013-03-18 05:34:00,61.6,59.6,29.98,SSW,203,4.0,23.0,93,0.00,,---,0.00,VWS V12.08,2013-03-18 09:34:00,
2013-03-18 05:35:00,61.7,59.7,29.98,SSW,203,4.0,23.0,93,0.00,,---,0.00,VWS V12.08,2013-03-18 09:35:00,
2013-03-18 05:36:00,61.8,59.8,29.98,SSW,203,2.0,23.0,93,0.00,,---,0.00,VWS V12.08,2013-03-18 09:36:00,
2013-03-18 05:37:00,61.3,59.6,29.97,SSW,203,2.0,23.0,94,0.00,,---,0.00,VWS V12.08,2013-03-18 09:37:00,
2013-03-18 05:40:00,62.0,60.0,29.99,SSW,203,3.0,23.0,93,0.00,,---,0.00,VWS V12.08,2013-03-18 09:40:00,
2013-03-18 05:41:00,62.0,60.0,29.98,SSW,203,3.0,23.0,93,0.00,,---,0.00,VWS V12.08,2013-03-18 09:41:00,
2013-03-18 05:42:00,62.0,60.0,29.98,SSW,203,2.0,23.0,93,0.00,,---,0.00,VWS V12.08,2013-03-18 09:42:00,
2013-03-18 05:43:00,61.5,59.8,29.98,SSW,203,0.0,23.0,94,0.00,,---,0.00,VWS V12.08,2013-03-18 09:43:00,
2013-03-18 05:44:00,62.1,60.1,29.98,SSW,203,2.0,23.0,93,0.00,,---,0.00,VWS V12.08,2013-03-18 09:44:00,
2013-03-18 05:45:00,62.1,59.8,29.98,SSW,203,3.0,23.0,92,0.00,,---,0.00,VWS V12.08,2013-03-18 09:45:00,
2013-03-18 05:46:00,62.1,59.8,29.99,SSW,203,1.0,23.0,92,0.00,,---,0.00,VWS V12.08,2013-03-18 09:46:00,
2013-03-18 05:47:00,62.2,59.8,29.99,SSW,203,0.0,23.0,92,0.00,,---,0.00,VWS V12.08,2013-03-18 09:47:00,
2013-03-18 05:48:00,61.8,59.8,29.98,SSW,203,0.0,23.0,93,0.00,,---,0.00,VWS V12.08,2013-03-18 09:48:00,
2013-03-18 05:49:00,62.3,60.0,29.99,SSW,203,2.0,23.0,92,0.00,,---,0.00,VWS V12.08,2013-03-18 09:49:00,
2013-03-18 05:50:00,62.3,60.0,29.99,SSW,203,3.0,23.0,92,0.00,,---,0.00,VWS V12.08,2013-03-18 09:50:00,
2013-03-18 05:51:00,62.3,60.0,29.99,SSW,203,4.0,23.0,92,0.00,,---,0.00,VWS V12.08,2013-03-18 09:51:00,
2013-03-18 05:52:00,62.4,60.0,29.99,SSW,203,5.0,23.0,92,0.00,,---,0.00,VWS V12.08,2013-03-18 09:52:00,
2013-03-18 05:53:00,62.0,60.0,29.98,SSW,203,2.0,23.0,93,0.00,,---,0.00,VWS V12.08,2013-03-18 09:53:00,
2013-03-18 05:54:00,62.5,60.2,29.99,SSW,203,3.0,23.0,92,0.00,,---,0.00,VWS V12.08,2013-03-18 09:54:00,
2013-03-18 05:55:00,62.5,60.2,29.99,SSW,203,1.0,23.0,92,0.00,,---,0.00,VWS V12.08,2013-03-18 09:55:00,
2013-03-18 05:56:00,62.6,60.2,29.99,SSW,203,3.0,23.0,92,0.00,,---,0.00,VWS V12.08,2013-03-18 09:56:00,
2013-03-18 05:57:00,62.6,60.2,29.99,SSW,203,3.0,23.0,92,0.00,,---,0.00,VWS V12.08,2013-03-18 09:57:00,
2013-03-18 05:58:00,62.7,60.0,29.99,SSW,203,0.0,23.0,91,0.00,,---,0.00,VWS V12.08,2013-03-18 09:58:00,
2013-03-18 05:59:00,62.7,60.0,29.99,SSW,203,0.0,23.0,91,0.00,,---,0.00,VWS V12.08,2013-03-18 09:59:00,
2013-03-18 06:00:00,62.7,60.0,29.99,SSW,203,0.0,23.0,91,0.00,,---,0.00,VWS V12.08,2013-03-18 10:00:00,
2013-03-18 06:01:00,62.8,60.1,29.99,SSW,203,0.0,23.0,91,0.00,,---,0.00,VWS V12.08,2013-03-18 10:01:00,
2013-03-18 06:03:00,62.8,60.1,29.99,SSW,203,0.0,23.0,91,0.00,,---,0.00,VWS V12.08,2013-03-18 10:03:00,
2013-03-18 06:04:00,62.8,60.1,29.99,SSW,203,0.0,23.0,91,0.00,,---,0.00,VWS V12.08,2013-03-18 10:04:00,
2013-03-18 06:05:00,62.8,60.1,29.99,SSW,203,0.0,23.0,91,0.00,,---,0.00,VWS V12.08,2013-03-18 10:05:00,
2013-03-18 06:06:00,62.8,60.1,29.99,SSW,203,0.0,23.0,91,0.00,,---,0.00,VWS V12.08,2013-03-18 10:06:00,
2013-03-18 06:07:00,62.6,60.2,29.99,SSW,203,3.0,23.0,92,0.00,,---,0.00,VWS V12.08,2013-03-18 10:07:00,
2013-03-18 06:08:00,62.8,60.1,29.99,SSW,203,0.0,23.0,91,0.00,,---,0.00,VWS V12.08,2013-03-18 10:08:00,
2013-03-18 06:09:00,62.7,60.0,29.99,SSW,203,0.0,23.0,91,0.00,,---,0.00,VWS V12.08,2013-03-18 10:09:00,
2013-03-18 06:10:00,62.7,60.0,29.99,SSW,203,0.0,23.0,91,0.00,,---,0.00,VWS V12.08,2013-03-18 10:10:00,
2013-03-18 06:11:00,62.7,60.0,29.99,SSW,203,0.0,23.0,91,0.00,,---,0.00,VWS V12.08,2013-03-18 10:11:00,
2013-03-18 06:12:00,62.7,60.0,29.99,SSW,203,0.0,23.0,91,0.00,,---,0.00,VWS V12.08,2013-03-18 10:12:00,
2013-03-18 06:13:00,62.7,60.0,29.99,SSW,203,0.0,23.0,91,0.00,,---,0.00,VWS V12.08,2013-03-18 10:13:00,
2013-03-18 06:14:00,62.7,60.0,29.99,SSW,203,0.0,23.0,91,0.00,,---,0.00,VWS V12.08,2013-03-18 10:14:00,
2013-03-18 06:17:00,62.8,60.1,29.99,SSW,203,0.0,23.0,91,0.00,,---,0.00,VWS V12.08,2013-03-18 10:17:00,
2013-03-18 06:20:00,62.6,59.9,29.99,SSW,203,0.0,23.0,91,0.00,,---,0.00,VWS V12.08,2013-03-18 10:20:00,
2013-03-18 06:21:00,62.6,59.9,30.00,SSW,203,0.0,23.0,91,0.00,,---,0.00,VWS V12.08,2013-03-18 10:21:00,
2013-03-18 06:22:00,62.6,59.9,30.00,SSW,203,0.0,23.0,91,0.00,,---,0.00,VWS V12.08,2013-03-18 10:22:00,
2013-03-18 06:23:00,62.7,60.0,29.99,SSW,203,0.0,23.0,91,0.00,,---,0.00,VWS V12.08,2013-03-18 10:23:00,
2013-03-18 06:24:00,62.6,59.9,30.00,SSW,203,0.0,23.0,91,0.00,,---,0.00,VWS V12.08,2013-03-18 10:24:00,
2013-03-18 06:25:00,62.6,59.9,30.00,SSW,203,0.0,23.0,91,0.00,,---,0.00,VWS V12.08,2013-03-18 10:25:00,
2013-03-18 06:26:00,62.6,59.9,30.00,SSW,203,0.0,23.0,91,0.00,,---,0.00,VWS V12.08,2013-03-18 10:26:00,
2013-03-18 06:27:00,62.6,59.9,30.00,SSW,203,0.0,23.0,91,0.00,,---,0.00,VWS V12.08,2013-03-18 10:27:00,
2013-03-18 06:28:00,62.6,59.9,29.99,SSW,203,0.0,23.0,91,0.00,,---,0.00,VWS V12.08,2013-03-18 10:28:00,
2013-03-18 06:29:00,62.6,59.9,30.00,SSW,203,1.0,23.0,91,0.00,,---,0.00,VWS V12.08,2013-03-18 10:29:00,
2013-03-18 06:30:00,62.6,59.9,30.00,SSW,203,4.0,23.0,91,0.00,,---,0.00,VWS V12.08,2013-03-18 10:30:00,
2013-03-18 06:31:00,62.6,59.9,30.00,SSW,203,2.0,23.0,91,0.00,,---,0.00,VWS V12.08,2013-03-18 10:31:00,
2013-03-18 06:32:00,62.6,59.9,30.00,SSW,203,2.0,23.0,91,0.00,,---,0.00,VWS V12.08,2013-03-18 10:32:00,
2013-03-18 06:33:00,62.6,59.9,30.00,SSW,203,0.0,23.0,91,0.00,,---,0.00,VWS V12.08,2013-03-18 10:33:00,
2013-03-18 06:34:00,62.7,60.0,30.01,SSW,203,2.0,23.0,91,0.00,,---,0.00,VWS V12.08,2013-03-18 10:34:00,
2013-03-18 06:35:00,62.7,60.0,30.01,SSW,203,2.0,23.0,91,0.00,,---,0.00,VWS V12.08,2013-03-18 10:35:00,
2013-03-18 06:36:00,62.7,60.0,30.01,SSW,203,1.0,23.0,91,0.00,,---,0.00,VWS V12.08,2013-03-18 10:36:00,
2013-03-18 06:37:00,62.7,60.0,30.01,SSW,203,0.0,23.0,91,0.00,,---,0.00,VWS V12.08,2013-03-18 10:37:00,
2013-03-18 06:38:00,62.7,60.0,30.01,SSW,203,3.0,23.0,91,0.00,,---,0.00,VWS V12.08,2013-03-18 10:38:00,
2013-03-18 06:39:00,62.6,59.9,30.00,SSW,203,0.0,23.0,91,0.00,,---,0.00,VWS V12.08,2013-03-18 10:39:00,
2013-03-18 06:40:00,62.8,60.1,30.01,SSW,203,0.0,23.0,91,0.00,,---,0.00,VWS V12.08,2013-03-18 10:40:00,
2013-03-18 06:41:00,62.8,60.1,30.01,SSW,203,1.0,23.0,91,0.00,,---,0.00,VWS V12.08,2013-03-18 10:41:00,
2013-03-18 06:42:00,62.8,60.1,30.01,SSW,203,0.0,23.0,91,0.00,,---,0.00,VWS V12.08,2013-03-18 10:42:00,
2013-03-18 06:43:00,62.8,60.1,30.01,SSW,203,2.0,23.0,91,0.00,,---,0.00,VWS V12.08,2013-03-18 10:43:00,
2013-03-18 06:44:00,62.7,60.0,30.01,SSW,203,2.0,23.0,91,0.00,,---,0.00,VWS V12.08,2013-03-18 10:44:00,
2013-03-18 06:45:00,62.8,60.1,30.01,SSW,203,0.0,23.0,91,0.00,,---,0.00,VWS V12.08,2013-03-18 10:45:00,
2013-03-18 06:46:00,62.8,60.1,30.01,SSW,203,0.0,23.0,91,0.00,,---,0.00,VWS V12.08,2013-03-18 10:46:00,
2013-03-18 06:47:00,62.8,60.1,30.01,SSW,203,0.0,23.0,91,0.00,,---,0.00,VWS V12.08,2013-03-18 10:47:00,
2013-03-18 06:48:00,62.9,60.2,30.01,SSW,203,0.0,23.0,91,0.00,,---,0.00,VWS V12.08,2013-03-18 10:48:00,
2013-03-18 06:49:00,62.8,60.1,30.01,SSW,203,0.0,23.0,91,0.00,,---,0.00,VWS V12.08,2013-03-18 10:49:00,
2013-03-18 06:50:00,62.9,60.2,30.01,SSW,203,0.0,23.0,91,0.00,,---,0.00,VWS V12.08,2013-03-18 10:50:00,
2013-03-18 06:51:00,62.9,60.2,30.01,SSW,203,0.0,23.0,91,0.00,,---,0.00,VWS V12.08,2013-03-18 10:51:00,
2013-03-18 06:52:00,62.8,60.1,30.01,SSW,203,0.0,23.0,91,0.00,,---,0.00,VWS V12.08,2013-03-18 10:52:00,
2013-03-18 06:53:00,62.8,60.1,30.00,SSW,203,0.0,23.0,91,0.00,,---,0.00,VWS V12.08,2013-03-18 10:53:00,
2013-03-18 06:54:00,62.8,60.1,30.00,SSW,203,0.0,23.0,91,0.00,,---,0.00,VWS V12.08,2013-03-18 10:54:00,
2013-03-18 06:55:00,62.8,60.1,30.01,SSW,203,0.0,23.0,91,0.00,,---,0.00,VWS V12.08,2013-03-18 10:55:00,
2013-03-18 06:56:00,62.7,60.0,30.01,SSW,203,0.0,23.0,91,0.00,,---,0.00,VWS V12.08,2013-03-18 10:56:00,
2013-03-18 06:57:00,62.7,60.0,30.01,SSW,203,0.0,23.0,91,0.00,,---,0.00,VWS V12.08,2013-03-18 10:57:00,
2013-03-18 06:58:00,62.7,60.0,30.01,SSW,203,0.0,23.0,91,0.00,,---,0.00,VWS V12.08,2013-03-18 10:58:00,
2013-03-18 06:59:00,62.7,60.0,30.01,SSW,203,0.0,23.0,91,0.00,,---,0.00,VWS V12.08,2013-03-18 10:59:00,
2013-03-18 07:00:00,62.9,60.2,30.01,SSW,203,0.0,23.0,91,0.00,,---,0.00,VWS V12.08,2013-03-18 11:00:00,
2013-03-18 07:01:00,62.6,59.9,30.01,SSW,203,0.0,23.0,91,0.00,,---,0.00,VWS V12.08,2013-03-18 11:01:00,
2013-03-18 07:02:00,62.6,59.9,30.01,SSW,203,0.0,23.0,91,0.00,,---,0.00,VWS V12.08,2013-03-18 11:02:00,
2013-03-18 07:03:00,62.6,59.9,30.01,SSW,203,0.0,23.0,91,0.00,,---,0.00,VWS V12.08,2013-03-18 11:03:00,
2013-03-18 07:04:00,62.6,59.9,30.01,SSW,203,0.0,23.0,91,0.00,,---,0.00,VWS V12.08,2013-03-18 11:04:00,
2013-03-18 07:05:00,62.8,60.1,30.01,SSW,203,0.0,23.0,91,0.00,,---,0.00,VWS V12.08,2013-03-18 11:05:00,
2013-03-18 07:06:00,62.6,59.9,30.01,SSW,203,0.0,23.0,91,0.00,,---,0.00,VWS V12.08,2013-03-18 11:06:00,
2013-03-18 07:07:00,62.6,59.9,30.01,SSW,203,0.0,23.0,91,0.00,,---,0.00,VWS V12.08,2013-03-18 11:07:00,
2013-03-18 07:08:00,62.6,59.9,30.01,SSW,203,0.0,23.0,91,0.00,,---,0.00,VWS V12.08,2013-03-18 11:08:00,
2013-03-18 07:10:00,62.7,60.0,30.01,SSW,203,0.0,23.0,91,0.00,,---,0.00,VWS V12.08,2013-03-18 11:10:00,
2013-03-18 07:11:00,62.5,59.8,30.01,SSW,203,0.0,23.0,91,0.00,,---,0.00,VWS V12.08,2013-03-18 11:11:00,
2013-03-18 07:12:00,62.5,60.2,30.01,SSW,203,0.0,23.0,92,0.00,,---,0.00,VWS V12.08,2013-03-18 11:12:00,
2013-03-18 07:13:00,62.5,60.2,30.01,SSW,203,0.0,23.0,92,0.00,,---,0.00,VWS V12.08,2013-03-18 11:13:00,
2013-03-18 07:14:00,62.5,60.2,30.01,SSW,203,0.0,23.0,92,0.00,,---,0.00,VWS V12.08,2013-03-18 11:14:00,
2013-03-18 07:15:00,62.6,59.9,30.01,SSW,203,0.0,23.0,91,0.00,,---,0.00,VWS V12.08,2013-03-18 11:15:00,
2013-03-18 07:17:00,62.5,60.2,30.01,SSW,203,0.0,23.0,92,0.00,,---,0.00,VWS V12.08,2013-03-18 11:17:00,
2013-03-18 07:18:00,62.4,60.0,30.01,SSW,203,0.0,23.0,92,0.00,,---,0.00,VWS V12.08,2013-03-18 11:18:00,
2013-03-18 07:19:00,62.4,60.0,30.01,SSW,203,0.0,23.0,92,0.00,,---,0.00,VWS V12.08,2013-03-18 11:19:00,
2013-03-18 07:20:00,62.5,59.8,30.01,SSW,203,0.0,23.0,91,0.00,,---,0.00,VWS V12.08,2013-03-18 11:20:00,
2013-03-18 07:21:00,62.4,60.0,30.01,SSW,203,0.0,23.0,92,0.00,,---,0.00,VWS V12.08,2013-03-18 11:21:00,
2013-03-18 07:22:00,62.4,60.0,30.01,SSW,203,0.0,23.0,92,0.00,,---,0.00,VWS V12.08,2013-03-18 11:22:00,
2013-03-18 07:23:00,62.4,60.0,30.01,SSW,203,0.0,23.0,92,0.00,,---,0.00,VWS V12.08,2013-03-18 11:23:00,
2013-03-18 07:24:00,62.4,60.0,30.01,SSW,203,0.0,23.0,92,0.00,,---,0.00,VWS V12.08,2013-03-18 11:24:00,
2013-03-18 07:25:00,62.5,59.8,30.01,SSW,203,0.0,23.0,91,0.00,,---,0.00,VWS V12.08,2013-03-18 11:25:00,
2013-03-18 07:26:00,62.3,60.0,30.01,SSW,203,0.0,23.0,92,0.00,,---,0.00,VWS V12.08,2013-03-18 11:26:00,
2013-03-18 07:27:00,62.3,60.0,30.01,SSW,203,0.0,23.0,92,0.00,,---,0.00,VWS V12.08,2013-03-18 11:27:00,
2013-03-18 07:28:00,62.3,60.0,30.01,SSW,203,0.0,23.0,92,0.00,,---,0.00,VWS V12.08,2013-03-18 11:28:00,
2013-03-18 07:29:00,62.3,60.0,30.01,SSW,203,0.0,23.0,92,0.00,,---,0.00,VWS V12.08,2013-03-18 11:29:00,
2013-03-18 07:30:00,62.4,60.0,30.01,SSW,203,0.0,23.0,92,0.00,,---,0.00,VWS V12.08,2013-03-18 11:30:00,
2013-03-18 07:31:00,62.2,59.8,30.00,SSW,203,0.0,23.0,92,0.00,,---,0.00,VWS V12.08,2013-03-18 11:31:00,
2013-03-18 07:32:00,62.2,59.8,30.00,SSW,203,0.0,23.0,92,0.00,,---,0.00,VWS V12.08,2013-03-18 11:32:00,
2013-03-18 07:33:00,62.2,59.8,30.00,SSW,203,0.0,23.0,92,0.00,,---,0.00,VWS V12.08,2013-03-18 11:33:00,
2013-03-18 07:34:00,62.2,59.8,30.00,SSW,203,0.0,23.0,92,0.00,,---,0.00,VWS V12.08,2013-03-18 11:34:00,
2013-03-18 07:35:00,62.2,59.8,30.00,SSW,203,0.0,23.0,92,0.00,,---,0.00,VWS V12.08,2013-03-18 11:35:00,
2013-03-18 07:36:00,62.3,60.0,30.01,SSW,203,0.0,23.0,92,0.00,,---,0.00,VWS V12.08,2013-03-18 11:36:00,
2013-03-18 07:38:00,62.2,59.8,30.00,SSW,203,2.0,23.0,92,0.00,,---,0.00,VWS V12.08,2013-03-18 11:38:00,
2013-03-18 07:39:00,62.2,59.8,30.00,SSW,203,0.0,23.0,92,0.00,,---,0.00,VWS V12.08,2013-03-18 11:39:00,
2013-03-18 07:40:00,62.2,59.8,30.00,SSW,203,0.0,23.0,92,0.00,,---,0.00,VWS V12.08,2013-03-18 11:40:00,
2013-03-18 07:41:00,62.2,59.8,30.01,SSW,203,0.0,23.0,92,0.00,,---,0.00,VWS V12.08,2013-03-18 11:41:00,
2013-03-18 07:42:00,62.3,60.0,30.00,SSW,203,0.0,23.0,92,0.00,,---,0.00,VWS V12.08,2013-03-18 11:42:00,
2013-03-18 07:43:00,62.3,60.0,30.00,SSW,203,0.0,23.0,92,0.00,,---,0.00,VWS V12.08,2013-03-18 11:43:00,
2013-03-18 07:44:00,62.3,60.0,30.00,SSW,203,0.0,23.0,92,0.00,,---,0.00,VWS V12.08,2013-03-18 11:44:00,
2013-03-18 07:45:00,62.3,60.2,30.00,SSW,203,0.0,23.0,93,0.00,,---,0.00,VWS V12.08,2013-03-18 11:45:00,
2013-03-18 07:46:00,62.2,59.8,30.00,SSW,203,0.0,23.0,92,0.00,,---,0.00,VWS V12.08,2013-03-18 11:46:00,
2013-03-18 07:47:00,62.4,60.0,30.00,SSW,203,0.0,23.0,92,0.00,,---,0.00,VWS V12.08,2013-03-18 11:47:00,
2013-03-18 07:51:00,62.2,59.8,30.00,SSW,203,2.0,23.0,92,0.00,,---,0.00,VWS V12.08,2013-03-18 11:51:00,
2013-03-18 07:52:00,62.7,60.3,30.00,SSW,203,0.0,23.0,92,0.00,,---,0.00,VWS V12.08,2013-03-18 11:52:00,
2013-03-18 07:53:00,62.7,60.3,30.00,SSW,203,0.0,23.0,92,0.00,,---,0.00,VWS V12.08,2013-03-18 11:53:00,
2013-03-18 07:55:00,62.7,60.3,30.00,SSW,203,0.0,23.0,92,0.00,,---,0.00,VWS V12.08,2013-03-18 11:55:00,
2013-03-18 07:56:00,62.8,60.5,30.00,SSW,203,0.0,23.0,92,0.00,,---,0.00,VWS V12.08,2013-03-18 11:56:00,
2013-03-18 07:57:00,62.4,60.0,30.01,SSW,203,0.0,23.0,92,0.00,,---,0.00,VWS V12.08,2013-03-18 11:57:00,
2013-03-18 07:58:00,62.8,60.5,29.99,SSW,203,4.0,23.0,92,0.00,,---,0.00,VWS V12.08,2013-03-18 11:58:00,
2013-03-18 07:59:00,62.9,60.5,29.99,SSW,203,4.0,23.0,92,0.00,,---,0.00,VWS V12.08,2013-03-18 11:59:00,
2013-03-18 08:01:00,62.9,60.5,29.99,South,188,2.0,23.0,92,0.00,,---,0.00,VWS V12.08,2013-03-18 12:01:00,
2013-03-18 08:02:00,62.6,60.5,30.00,SSW,203,0.0,23.0,93,0.00,,---,0.00,VWS V12.08,2013-03-18 12:02:00,
2013-03-18 08:03:00,63.0,60.6,29.99,South,184,2.0,23.0,92,0.00,,---,0.00,VWS V12.08,2013-03-18 12:03:00,
2013-03-18 08:04:00,63.0,60.6,29.99,South,184,3.0,23.0,92,0.00,,---,0.00,VWS V12.08,2013-03-18 12:04:00,
2013-03-18 08:05:00,63.0,60.6,29.99,South,184,2.0,23.0,92,0.00,,---,0.00,VWS V12.08,2013-03-18 12:05:00,
2013-03-18 08:06:00,63.0,60.3,29.99,South,176,5.0,23.0,91,0.00,,---,0.00,VWS V12.08,2013-03-18 12:06:00,
2013-03-18 08:07:00,62.8,60.5,30.00,SSW,203,0.0,23.0,92,0.00,,---,0.00,VWS V12.08,2013-03-18 12:07:00,
2013-03-18 08:10:00,63.1,60.4,29.99,SSE,159,6.0,23.0,91,0.00,,---,0.00,VWS V12.08,2013-03-18 12:10:00,
2013-03-18 08:11:00,63.2,60.5,29.99,SSE,161,6.0,23.0,91,0.00,,---,0.00,VWS V12.08,2013-03-18 12:11:00,
2013-03-18 08:12:00,62.9,60.5,29.99,South,188,3.0,23.0,92,0.00,,---,0.00,VWS V12.08,2013-03-18 12:12:00,
2013-03-18 08:13:00,63.3,60.6,29.99,SSE,160,4.0,23.0,91,0.00,,---,0.00,VWS V12.08,2013-03-18 12:13:00,
2013-03-18 08:14:00,63.3,60.6,29.99,SSE,160,2.0,23.0,91,0.00,,---,0.00,VWS V12.08,2013-03-18 12:14:00,
2013-03-18 08:15:00,63.4,60.7,29.99,SSE,160,0.0,23.0,91,0.00,,---,0.00,VWS V12.08,2013-03-18 12:15:00,
2013-03-18 08:16:00,63.4,60.7,30.00,SSE,160,0.0,23.0,91,0.00,,---,0.00,VWS V12.08,2013-03-18 12:16:00,
2013-03-18 08:17:00,63.0,60.3,29.99,South,175,6.0,23.0,91,0.00,,---,0.00,VWS V12.08,2013-03-18 12:17:00,
2013-03-18 08:18:00,63.5,60.8,30.00,SSE,160,0.0,23.0,91,0.00,,---,0.00,VWS V12.08,2013-03-18 12:18:00,
2013-03-18 08:19:00,63.5,60.8,30.01,SSE,160,0.0,23.0,91,0.00,,---,0.00,VWS V12.08,2013-03-18 12:19:00,
2013-03-18 08:20:00,63.5,60.5,30.01,SSE,160,0.0,23.0,90,0.00,,---,0.00,VWS V12.08,2013-03-18 12:20:00,
2013-03-18 08:21:00,63.5,60.8,30.01,SSE,160,0.0,23.0,91,0.00,,---,0.00,VWS V12.08,2013-03-18 12:21:00,
2013-03-18 08:22:00,63.2,60.5,29.99,SSE,161,6.0,23.0,91,0.00,,---,0.00,VWS V12.08,2013-03-18 12:22:00,
2013-03-18 08:23:00,63.6,60.9,30.01,SSE,160,1.0,23.0,91,0.00,,---,0.00,VWS V12.08,2013-03-18 12:23:00,
2013-03-18 08:24:00,63.6,60.9,30.02,SSE,160,2.0,23.0,91,0.00,,---,0.00,VWS V12.08,2013-03-18 12:24:00,
2013-03-18 08:25:00,63.7,61.0,30.02,SSE,160,0.0,23.0,91,0.00,,---,0.00,VWS V12.08,2013-03-18 12:25:00,
2013-03-18 08:26:00,63.7,60.7,30.01,SSE,160,4.0,23.0,90,0.00,,---,0.00,VWS V12.08,2013-03-18 12:26:00,
2013-03-18 08:27:00,63.4,60.7,30.00,SSE,160,0.0,23.0,91,0.00,,---,0.00,VWS V12.08,2013-03-18 12:27:00,
2013-03-18 08:28:00,63.8,61.1,30.01,SSE,160,0.0,23.0,91,0.00,,---,0.00,VWS V12.08,2013-03-18 12:28:00,
2013-03-18 08:29:00,63.8,61.1,30.01,SSE,160,2.0,23.0,91,0.00,,---,0.00,VWS V12.08,2013-03-18 12:29:00,
2013-03-18 08:30:00,63.8,60.8,30.02,SSE,160,0.0,23.0,90,0.00,,---,0.00,VWS V12.08,2013-03-18 12:30:00,
2013-03-18 08:31:00,63.9,60.9,30.02,SSE,160,0.0,23.0,90,0.00,,---,0.00,VWS V12.08,2013-03-18 12:31:00,
2013-03-18 08:32:00,63.5,60.8,30.01,SSE,160,0.0,23.0,91,0.00,,---,0.00,VWS V12.08,2013-03-18 12:32:00,
2013-03-18 08:33:00,63.9,60.9,30.02,SSE,160,0.0,23.0,90,0.00,,---,0.00,VWS V12.08,2013-03-18 12:33:00,
2013-03-18 08:36:00,64.0,61.0,30.02,SSE,160,0.0,23.0,90,0.00,,---,0.00,VWS V12.08,2013-03-18 12:36:00,
2013-03-18 08:37:00,63.7,60.7,30.01,SSE,160,1.0,23.0,90,0.00,,---,0.00,VWS V12.08,2013-03-18 12:37:00,
2013-03-18 08:38:00,64.1,61.1,30.02,SSE,160,0.0,23.0,90,0.00,,---,0.00,VWS V12.08,2013-03-18 12:38:00,
2013-03-18 08:39:00,64.1,61.1,30.02,SSE,160,0.0,23.0,90,0.00,,---,0.00,VWS V12.08,2013-03-18 12:39:00,
2013-03-18 08:40:00,64.1,61.1,30.02,SSE,160,4.0,23.0,90,0.00,,---,0.00,VWS V12.08,2013-03-18 12:40:00,
2013-03-18 08:41:00,64.1,61.1,30.02,SSE,160,4.0,23.0,90,0.00,,---,0.00,VWS V12.08,2013-03-18 12:41:00,
2013-03-18 08:42:00,63.9,60.9,30.02,SSE,160,0.0,23.0,90,0.00,,---,0.00,VWS V12.08,2013-03-18 12:42:00,
2013-03-18 08:43:00,64.2,61.2,30.02,SSE,160,2.0,23.0,90,0.00,,---,0.00,VWS V12.08,2013-03-18 12:43:00,
2013-03-18 08:44:00,64.2,61.2,30.02,SSE,160,4.0,23.0,90,0.00,,---,0.00,VWS V12.08,2013-03-18 12:44:00,
2013-03-18 08:45:00,64.2,61.2,30.02,SSE,160,1.0,23.0,90,0.00,,---,0.00,VWS V12.08,2013-03-18 12:45:00,
2013-03-18 08:46:00,64.3,61.3,30.02,SSE,160,5.0,23.0,90,0.00,,---,0.00,VWS V12.08,2013-03-18 12:46:00,
2013-03-18 08:47:00,64.0,61.0,30.02,SSE,160,0.0,23.0,90,0.00,,---,0.00,VWS V12.08,2013-03-18 12:47:00,
2013-03-18 08:48:00,64.4,61.4,30.02,SSE,160,4.0,23.0,90,0.00,,---,0.00,VWS V12.08,2013-03-18 12:48:00,
2013-03-18 08:49:00,64.4,61.4,30.01,SSE,161,2.0,23.0,90,0.00,,---,0.00,VWS V12.08,2013-03-18 12:49:00,
2013-03-18 08:50:00,64.5,61.5,30.01,SSE,161,4.0,23.0,90,0.00,,---,0.00,VWS V12.08,2013-03-18 12:50:00,
2013-03-18 08:51:00,64.6,61.6,30.01,SSE,161,5.0,23.0,90,0.00,,---,0.00,VWS V12.08,2013-03-18 12:51:00,
2013-03-18 08:52:00,64.7,61.7,30.01,SSE,165,5.0,23.0,90,0.00,,---,0.00,VWS V12.08,2013-03-18 12:52:00,
2013-03-18 08:53:00,64.1,61.1,30.02,SSE,160,0.0,23.0,90,0.00,,---,0.00,VWS V12.08,2013-03-18 12:53:00,
2013-03-18 08:54:00,64.9,61.9,30.01,South,178,5.0,23.0,90,0.00,,---,0.00,VWS V12.08,2013-03-18 12:54:00,
2013-03-18 08:55:00,65.0,62.0,30.01,South,178,8.0,23.0,90,0.00,,---,0.00,VWS V12.08,2013-03-18 12:55:00,
2013-03-18 08:56:00,65.1,61.8,30.01,South,175,5.0,23.0,89,0.00,,---,0.00,VWS V12.08,2013-03-18 12:56:00,
2013-03-18 08:57:00,65.2,61.9,30.01,South,175,7.0,23.0,89,0.00,,---,0.00,VWS V12.08,2013-03-18 12:57:00,
2013-03-18 08:58:00,64.3,61.3,30.02,SSE,160,4.0,23.0,90,0.00,,---,0.00,VWS V12.08,2013-03-18 12:58:00,
2013-03-18 08:59:00,65.3,62.0,30.01,South,176,5.0,23.0,89,0.00,,---,0.00,VWS V12.08,2013-03-18 12:59:00,
2013-03-18 09:00:00,65.4,62.1,30.01,South,177,4.0,23.0,89,0.00,,---,0.00,VWS V12.08,2013-03-18 13:00:00,
2013-03-18 09:01:00,65.5,62.2,30.01,South,177,4.0,23.0,89,0.00,,---,0.00,VWS V12.08,2013-03-18 13:01:00,
2013-03-18 09:02:00,65.5,62.2,30.01,South,177,4.0,23.0,89,0.00,,---,0.00,VWS V12.08,2013-03-18 13:02:00,
2013-03-18 09:03:00,65.6,62.3,30.01,South,177,6.0,23.0,89,0.00,,---,0.00,VWS V12.08,2013-03-18 13:03:00,
2013-03-18 09:04:00,65.7,62.4,30.01,South,178,4.0,23.0,89,0.00,,---,0.00,VWS V12.08,2013-03-18 13:04:00,
2013-03-18 09:05:00,65.0,62.0,30.01,South,178,6.0,23.0,90,0.00,,---,0.00,VWS V12.08,2013-03-18 13:05:00,
2013-03-18 09:06:00,65.7,62.0,30.01,South,179,2.0,23.0,88,0.00,,---,0.00,VWS V12.08,2013-03-18 13:06:00,
2013-03-18 09:07:00,65.8,62.2,30.01,South,179,4.0,23.0,88,0.00,,---,0.00,VWS V12.08,2013-03-18 13:07:00,
2013-03-18 09:08:00,65.8,62.2,30.01,South,179,1.0,23.0,88,0.00,,---,0.00,VWS V12.08,2013-03-18 13:08:00,
2013-03-18 09:09:00,65.8,62.2,30.01,South,179,2.0,23.0,88,0.00,,---,0.00,VWS V12.08,2013-03-18 13:09:00,
2013-03-18 09:10:00,65.9,62.2,30.01,South,178,5.0,23.0,88,0.00,,---,0.00,VWS V12.08,2013-03-18 13:10:00,
2013-03-18 09:11:00,65.9,62.2,30.01,South,179,4.0,23.0,88,0.00,,---,0.00,VWS V12.08,2013-03-18 13:11:00,
2013-03-18 09:12:00,65.5,62.2,30.01,South,177,1.0,23.0,89,0.00,,---,0.00,VWS V12.08,2013-03-18 13:12:00,
2013-03-18 09:13:00,66.0,62.3,30.01,South,178,0.0,23.0,88,0.00,,---,0.00,VWS V12.08,2013-03-18 13:13:00,
2013-03-18 09:14:00,66.0,62.3,30.01,South,178,1.0,23.0,88,0.00,,---,0.00,VWS V12.08,2013-03-18 13:14:00,
2013-03-18 09:15:00,66.1,62.5,30.01,South,178,0.0,23.0,88,0.00,,---,0.00,VWS V12.08,2013-03-18 13:15:00,
2013-03-18 09:16:00,66.1,62.5,30.01,South,178,5.0,23.0,88,0.00,,---,0.00,VWS V12.08,2013-03-18 13:16:00,
2013-03-18 09:17:00,66.1,62.5,30.02,South,187,4.0,23.0,88,0.00,,---,0.00,VWS V12.08,2013-03-18 13:17:00,
2013-03-18 09:18:00,65.8,62.2,30.01,South,179,5.0,23.0,88,0.00,,---,0.00,VWS V12.08,2013-03-18 13:18:00,
2013-03-18 09:19:00,66.2,62.2,30.02,South,187,4.0,23.0,87,0.00,,---,0.00,VWS V12.08,2013-03-18 13:19:00,
2013-03-18 09:20:00,66.2,62.2,30.02,South,187,1.0,23.0,87,0.00,,---,0.00,VWS V12.08,2013-03-18 13:20:00,
2013-03-18 09:21:00,66.2,62.2,30.02,South,187,4.0,23.0,87,0.00,,---,0.00,VWS V12.08,2013-03-18 13:21:00,
2013-03-18 09:22:00,66.2,62.2,30.01,South,187,0.0,23.0,87,0.00,,---,0.00,VWS V12.08,2013-03-18 13:22:00,
2013-03-18 09:23:00,66.0,62.3,30.01,South,178,4.0,23.0,88,0.00,,---,0.00,VWS V12.08,2013-03-18 13:23:00,
2013-03-18 09:24:00,66.3,62.3,30.01,South,178,0.0,23.0,87,0.00,,---,0.00,VWS V12.08,2013-03-18 13:24:00,
2013-03-18 09:25:00,66.3,62.3,30.01,South,179,4.0,23.0,87,0.00,,---,0.00,VWS V12.08,2013-03-18 13:25:00,
2013-03-18 09:26:00,66.3,62.3,30.02,South,179,0.0,23.0,87,0.00,,---,0.00,VWS V12.08,2013-03-18 13:26:00,
2013-03-18 09:27:00,66.4,62.4,30.02,South,179,5.0,23.0,87,0.00,,---,0.00,VWS V12.08,2013-03-18 13:27:00,
2013-03-18 09:28:00,66.1,62.5,30.02,South,187,3.0,23.0,88,0.00,,---,0.00,VWS V12.08,2013-03-18 13:28:00,
2013-03-18 09:29:00,66.4,62.4,30.02,South,180,4.0,23.0,87,0.00,,---,0.00,VWS V12.08,2013-03-18 13:29:00,
2013-03-18 09:30:00,66.5,62.5,30.02,South,181,4.0,23.0,87,0.00,,---,0.00,VWS V12.08,2013-03-18 13:30:00,
2013-03-18 09:31:00,66.5,62.5,30.02,South,181,4.0,23.0,87,0.00,,---,0.00,VWS V12.08,2013-03-18 13:31:00,
2013-03-18 09:32:00,66.5,62.5,30.02,South,181,4.0,23.0,87,0.00,,---,0.00,VWS V12.08,2013-03-18 13:32:00,
2013-03-18 09:33:00,66.3,62.3,30.01,South,178,5.0,23.0,87,0.00,,---,0.00,VWS V12.08,2013-03-18 13:33:00,
2013-03-18 09:34:00,66.7,62.7,30.02,South,180,1.0,23.0,87,0.00,,---,0.00,VWS V12.08,2013-03-18 13:34:00,
2013-03-18 09:35:00,66.7,62.7,30.02,South,180,4.0,23.0,87,0.00,,---,0.00,VWS V12.08,2013-03-18 13:35:00,
2013-03-18 09:36:00,66.8,62.8,30.02,South,182,4.0,23.0,87,0.00,,---,0.00,VWS V12.08,2013-03-18 13:36:00,
2013-03-18 09:37:00,66.9,62.9,30.02,South,182,5.0,23.0,87,0.00,,---,0.00,VWS V12.08,2013-03-18 13:37:00,
2013-03-18 09:38:00,66.4,62.4,30.02,South,181,4.0,23.0,87,0.00,,---,0.00,VWS V12.08,2013-03-18 13:38:00,
2013-03-18 09:39:00,67.0,63.0,30.02,South,182,2.0,23.0,87,0.00,,---,0.00,VWS V12.08,2013-03-18 13:39:00,
2013-03-18 09:40:00,67.1,63.1,30.02,South,182,4.0,23.0,87,0.00,,---,0.00,VWS V12.08,2013-03-18 13:40:00,
2013-03-18 09:41:00,67.2,63.2,30.02,South,184,4.0,23.0,87,0.00,,---,0.00,VWS V12.08,2013-03-18 13:41:00,
2013-03-18 09:42:00,67.3,63.0,30.02,South,190,3.0,23.0,86,0.00,,---,0.00,VWS V12.08,2013-03-18 13:42:00,
2013-03-18 09:43:00,67.4,63.4,30.02,South,187,4.0,23.0,87,0.00,,---,0.00,VWS V12.08,2013-03-18 13:43:00,
2013-03-18 09:44:00,66.6,62.6,30.02,South,180,5.0,23.0,87,0.00,,---,0.00,VWS V12.08,2013-03-18 13:44:00,
2013-03-18 09:45:00,67.7,64.0,30.02,South,188,4.0,23.0,88,0.00,,---,0.00,VWS V12.08,2013-03-18 13:45:00,
2013-03-18 09:46:00,67.8,63.8,30.02,South,188,4.0,23.0,87,0.00,,---,0.00,VWS V12.08,2013-03-18 13:46:00,
2013-03-18 09:47:00,67.9,63.6,30.02,South,190,4.0,23.0,86,0.00,,---,0.00,VWS V12.08,2013-03-18 13:47:00,
2013-03-18 09:48:00,68.0,63.7,30.02,South,190,3.0,23.0,86,0.00,,---,0.00,VWS V12.08,2013-03-18 13:48:00,
2013-03-18 09:49:00,67.0,63.0,30.02,South,182,0.0,23.0,87,0.00,,---,0.00,VWS V12.08,2013-03-18 13:49:00,
2013-03-18 09:50:00,68.1,63.8,30.02,SSW,192,3.0,23.0,86,0.00,,---,0.00,VWS V12.08,2013-03-18 13:50:00,
2013-03-18 09:51:00,68.2,63.5,30.02,SSW,193,5.0,23.0,85,0.00,,---,0.00,VWS V12.08,2013-03-18 13:51:00,
2013-03-18 09:52:00,68.3,63.6,30.02,SSW,192,5.0,23.0,85,0.00,,---,0.00,VWS V12.08,2013-03-18 13:52:00,
2013-03-18 09:53:00,68.3,64.0,30.02,SSW,192,5.0,23.0,86,0.00,,---,0.00,VWS V12.08,2013-03-18 13:53:00,
2013-03-18 09:54:00,67.5,63.5,30.02,South,188,4.0,23.0,87,0.00,,---,0.00,VWS V12.08,2013-03-18 13:54:00,
2013-03-18 09:55:00,68.5,63.8,30.02,SSW,192,3.0,23.0,85,0.00,,---,0.00,VWS V12.08,2013-03-18 13:55:00,
2013-03-18 09:56:00,68.6,63.9,30.02,South,189,4.0,23.0,85,0.00,,---,0.00,VWS V12.08,2013-03-18 13:56:00,
2013-03-18 09:57:00,68.6,64.2,30.02,SSW,203,4.0,23.0,86,0.00,,---,0.00,VWS V12.08,2013-03-18 13:57:00,
2013-03-18 09:58:00,68.7,64.0,30.02,SSW,202,3.0,23.0,85,0.00,,---,0.00,VWS V12.08,2013-03-18 13:58:00,
2013-03-18 09:59:00,68.8,64.1,30.02,SSW,202,6.0,23.0,85,0.00,,---,0.00,VWS V12.08,2013-03-18 13:59:00,
2013-03-18 10:00:00,68.1,63.8,30.02,South,190,7.0,23.0,86,0.00,,---,0.00,VWS V12.08,2013-03-18 14:00:00,
2013-03-18 10:01:00,68.9,63.9,30.03,SSW,192,8.0,23.0,84,0.00,,---,0.00,VWS V12.08,2013-03-18 14:01:00,
2013-03-18 10:02:00,69.0,64.3,30.03,South,183,9.0,23.0,85,0.00,,---,0.00,VWS V12.08,2013-03-18 14:02:00,
2013-03-18 10:03:00,69.3,64.3,30.03,SSW,197,4.0,23.0,84,0.00,,---,0.00,VWS V12.08,2013-03-18 14:03:00,
2013-03-18 10:04:00,69.4,64.4,30.03,SSW,205,4.0,23.0,84,0.00,,---,0.00,VWS V12.08,2013-03-18 14:04:00,
2013-03-18 10:05:00,68.4,63.7,30.02,South,189,6.0,23.0,85,0.00,,---,0.00,VWS V12.08,2013-03-18 14:05:00,
2013-03-18 10:06:00,69.7,64.3,30.02,SW,221,9.0,23.0,83,0.00,,---,0.00,VWS V12.08,2013-03-18 14:06:00,
2013-03-18 10:07:00,69.8,64.4,30.02,SSE,165,12.0,23.0,83,0.00,,---,0.00,VWS V12.08,2013-03-18 14:07:00,
2013-03-18 10:08:00,70.0,64.6,30.02,SSW,193,8.0,23.0,83,0.00,,---,0.00,VWS V12.08,2013-03-18 14:08:00,
2013-03-18 10:10:00,70.3,64.6,30.03,South,179,12.0,23.0,82,0.00,,---,0.00,VWS V12.08,2013-03-18 14:10:00,
2013-03-18 10:11:00,68.9,63.9,30.03,SSW,198,6.0,23.0,84,0.00,,---,0.00,VWS V12.08,2013-03-18 14:11:00,
2013-03-18 10:17:00,69.6,64.2,30.02,SW,218,8.0,23.0,83,0.00,,---,0.00,VWS V12.08,2013-03-18 14:17:00,
2013-03-18 10:22:00,70.4,64.7,30.03,SSW,202,9.0,23.0,82,0.00,,---,0.00,VWS V12.08,2013-03-18 14:22:00,
2013-03-18 10:25:00,71.5,64.7,30.02,SSW,207,4.0,23.0,79,0.00,,---,0.00,VWS V12.08,2013-03-18 14:25:00,
2013-03-18 10:26:00,71.6,65.1,30.02,SSW,192,6.0,23.0,80,0.00,,---,0.00,VWS V12.08,2013-03-18 14:26:00,
2013-03-18 10:27:00,70.9,64.8,30.03,South,188,6.0,23.0,81,0.00,,---,0.00,VWS V12.08,2013-03-18 14:27:00,
2013-03-18 10:28:00,71.8,64.9,30.02,South,180,8.0,23.0,79,0.00,,---,0.00,VWS V12.08,2013-03-18 14:28:00,
2013-03-18 10:29:00,72.1,65.6,30.02,South,175,11.0,23.0,80,0.00,,---,0.00,VWS V12.08,2013-03-18 14:29:00,
2013-03-18 10:30:00,72.1,65.6,30.02,South,182,7.0,23.0,80,0.00,,---,0.00,VWS V12.08,2013-03-18 14:30:00,
2013-03-18 10:31:00,72.3,65.1,30.02,SSW,203,9.0,23.0,78,0.00,,---,0.00,VWS V12.08,2013-03-18 14:31:00,
2013-03-18 10:32:00,71.2,64.7,30.02,South,182,7.0,23.0,80,0.00,,---,0.00,VWS V12.08,2013-03-18 14:32:00,
2013-03-18 10:33:00,72.6,65.0,30.02,SSW,193,9.0,23.0,77,0.00,,---,0.00,VWS V12.08,2013-03-18 14:33:00,
2013-03-18 10:34:00,72.6,65.0,30.02,SSW,194,9.0,23.0,77,0.00,,---,0.00,VWS V12.08,2013-03-18 14:34:00,
2013-03-18 10:35:00,72.6,65.0,30.02,SSW,211,8.0,23.0,77,0.00,,---,0.00,VWS V12.08,2013-03-18 14:35:00,
2013-03-18 10:36:00,72.6,65.0,30.02,South,181,8.0,23.0,77,0.00,,---,0.00,VWS V12.08,2013-03-18 14:36:00,
2013-03-18 10:37:00,71.6,65.1,30.02,South,190,6.0,23.0,80,0.00,,---,0.00,VWS V12.08,2013-03-18 14:37:00,
2013-03-18 10:38:00,72.5,64.9,30.02,SW,220,8.0,23.0,77,0.00,,---,0.00,VWS V12.08,2013-03-18 14:38:00,
2013-03-18 10:39:00,72.6,65.0,30.03,SSW,205,5.0,23.0,77,0.00,,---,0.00,VWS V12.08,2013-03-18 14:39:00,
2013-03-18 10:40:00,72.6,65.0,30.03,SSW,211,7.0,23.0,77,0.00,,---,0.00,VWS V12.08,2013-03-18 14:40:00,
2013-03-18 10:41:00,72.6,65.0,30.02,SSW,192,5.0,23.0,77,0.00,,---,0.00,VWS V12.08,2013-03-18 14:41:00,
2013-03-18 10:42:00,72.4,65.5,30.02,SSW,209,11.0,23.0,79,0.00,,---,0.00,VWS V12.08,2013-03-18 14:42:00,
2013-03-18 10:43:00,72.9,66.0,30.02,SSW,213,5.0,23.0,79,0.00,,---,0.00,VWS V12.08,2013-03-18 14:43:00,
2013-03-18 10:44:00,73.1,65.8,30.02,SW,214,6.0,23.0,78,0.00,,---,0.00,VWS V12.08,2013-03-18 14:44:00,
2013-03-18 10:45:00,73.2,65.6,30.03,South,184,6.0,23.0,77,0.00,,---,0.00,VWS V12.08,2013-03-18 14:45:00,
2013-03-18 10:46:00,73.4,65.8,30.02,SW,221,9.0,23.0,77,0.00,,---,0.00,VWS V12.08,2013-03-18 14:46:00,
2013-03-18 10:47:00,73.4,65.4,30.02,SW,215,8.0,23.0,76,0.00,,---,0.00,VWS V12.08,2013-03-18 14:47:00,
2013-03-18 10:48:00,73.4,65.4,30.03,SSW,209,6.0,23.0,76,0.00,,---,0.00,VWS V12.08,2013-03-18 14:48:00,
2013-03-18 10:49:00,72.5,64.9,30.02,SSW,209,7.0,23.0,77,0.00,,---,0.00,VWS V12.08,2013-03-18 14:49:00,
2013-03-18 10:50:00,73.4,65.4,30.02,SSW,211,5.0,23.0,76,0.00,,---,0.00,VWS V12.08,2013-03-18 14:50:00,
2013-03-18 10:51:00,73.4,65.0,30.03,South,191,8.0,23.0,75,0.00,,---,0.00,VWS V12.08,2013-03-18 14:51:00,
2013-03-18 10:52:00,73.3,64.9,30.03,South,181,8.0,23.0,75,0.00,,---,0.00,VWS V12.08,2013-03-18 14:52:00,
2013-03-18 10:53:00,73.3,64.9,30.03,SSW,198,7.0,23.0,75,0.00,,---,0.00,VWS V12.08,2013-03-18 14:53:00,
2013-03-18 10:54:00,73.0,65.7,30.02,SSW,204,6.0,23.0,78,0.00,,---,0.00,VWS V12.08,2013-03-18 14:54:00,
2013-03-18 10:55:00,73.5,65.9,30.02,SSW,212,8.0,23.0,77,0.00,,---,0.00,VWS V12.08,2013-03-18 14:55:00,
2013-03-18 10:56:00,73.7,65.7,30.02,SW,217,6.0,23.0,76,0.00,,---,0.00,VWS V12.08,2013-03-18 14:56:00,
2013-03-18 10:57:00,73.9,65.9,30.03,SW,224,9.0,23.0,76,0.00,,---,0.00,VWS V12.08,2013-03-18 14:57:00,
2013-03-18 10:58:00,74.1,65.7,30.03,SSW,209,11.0,23.0,75,0.00,,---,0.00,VWS V12.08,2013-03-18 14:58:00,
2013-03-18 10:59:00,73.4,65.4,30.03,South,183,9.0,23.0,76,0.00,,---,0.00,VWS V12.08,2013-03-18 14:59:00,
2013-03-18 11:00:00,74.4,66.3,30.02,SW,227,16.0,23.0,76,0.00,,---,0.00,VWS V12.08,2013-03-18 15:00:00,
2013-03-18 11:01:00,74.5,66.1,30.03,South,181,11.0,23.0,75,0.00,,---,0.00,VWS V12.08,2013-03-18 15:01:00,
2013-03-18 11:02:00,74.5,65.7,30.02,SW,219,8.0,23.0,74,0.00,,---,0.00,VWS V12.08,2013-03-18 15:02:00,
2013-03-18 11:03:00,74.5,65.7,30.02,SW,223,17.0,23.0,74,0.00,,---,0.00,VWS V12.08,2013-03-18 15:03:00,
2013-03-18 11:04:00,73.3,65.3,30.02,SSW,202,10.0,23.0,76,0.00,,---,0.00,VWS V12.08,2013-03-18 15:04:00,
2013-03-18 11:05:00,74.3,65.5,30.02,SW,214,10.0,23.0,74,0.00,,---,0.00,VWS V12.08,2013-03-18 15:05:00,
2013-03-18 11:06:00,74.3,65.5,30.02,SW,218,12.0,23.0,74,0.00,,---,0.00,VWS V12.08,2013-03-18 15:06:00,
2013-03-18 11:07:00,74.3,65.9,30.02,SW,227,12.0,23.0,75,0.00,,---,0.00,VWS V12.08,2013-03-18 15:07:00,
2013-03-18 11:08:00,74.5,66.1,30.02,WSW,237,15.0,23.0,75,0.00,,---,0.00,VWS V12.08,2013-03-18 15:08:00,
2013-03-18 11:09:00,74.1,65.7,30.03,SSW,211,4.0,23.0,75,0.00,,---,0.00,VWS V12.08,2013-03-18 15:09:00,
2013-03-18 11:10:00,75.0,66.2,30.02,SSW,202,13.0,23.0,74,0.00,,---,0.00,VWS V12.08,2013-03-18 15:10:00,
2013-03-18 11:11:00,75.2,66.0,30.02,SW,219,16.0,23.0,73,0.00,,---,0.00,VWS V12.08,2013-03-18 15:11:00,
2013-03-18 11:12:00,75.3,66.1,30.02,SSW,194,10.0,23.0,73,0.00,,---,0.00,VWS V12.08,2013-03-18 15:12:00,
2013-03-18 11:13:00,75.4,65.8,30.02,SSW,197,15.0,23.0,72,0.00,,---,0.00,VWS V12.08,2013-03-18 15:13:00,
2013-03-18 11:15:00,74.5,65.3,30.02,SSW,201,10.0,23.0,73,0.00,,---,0.00,VWS V12.08,2013-03-18 15:15:00,
2013-03-18 11:16:00,75.6,65.9,30.02,South,184,16.0,23.0,72,0.00,,---,0.00,VWS V12.08,2013-03-18 15:16:00,
2013-03-18 11:17:00,75.5,65.4,30.02,South,181,13.0,23.0,71,0.00,,---,0.00,VWS V12.08,2013-03-18 15:17:00,
2013-03-18 11:18:00,75.5,65.4,30.02,South,182,9.0,23.0,71,0.00,,---,0.00,VWS V12.08,2013-03-18 15:18:00,
2013-03-18 11:19:00,75.4,65.3,30.02,South,180,10.0,23.0,71,0.00,,---,0.00,VWS V12.08,2013-03-18 15:19:00,
2013-03-18 11:20:00,74.7,66.3,30.02,SW,232,12.0,23.0,75,0.00,,---,0.00,VWS V12.08,2013-03-18 15:20:00,
2013-03-18 11:21:00,75.3,65.3,30.02,SW,215,8.0,23.0,71,0.00,,---,0.00,VWS V12.08,2013-03-18 15:21:00,
2013-03-18 11:22:00,75.2,65.6,30.02,SW,229,16.0,23.0,72,0.00,,---,0.00,VWS V12.08,2013-03-18 15:22:00,
2013-03-18 11:23:00,75.3,65.7,30.02,SW,221,9.0,23.0,72,0.00,,---,0.00,VWS V12.08,2013-03-18 15:23:00,
2013-03-18 11:24:00,75.3,65.7,30.02,SW,224,11.0,23.0,72,0.00,,---,0.00,VWS V12.08,2013-03-18 15:24:00,
2013-03-18 11:25:00,75.5,66.2,30.02,SSW,209,12.0,23.0,73,0.00,,---,0.00,VWS V12.08,2013-03-18 15:25:00,
2013-03-18 11:26:00,75.6,65.9,30.02,WSW,240,14.0,23.0,72,0.00,,---,0.00,VWS V12.08,2013-03-18 15:26:00,
2013-03-18 11:27:00,75.7,65.6,30.02,SW,232,14.0,23.0,71,0.00,,---,0.00,VWS V12.08,2013-03-18 15:27:00,
2013-03-18 11:28:00,75.7,65.6,30.02,WSW,240,15.0,23.0,71,0.00,,---,0.00,VWS V12.08,2013-03-18 15:28:00,
2013-03-18 11:29:00,75.6,65.5,30.03,SW,215,12.0,23.0,71,0.00,,---,0.00,VWS V12.08,2013-03-18 15:29:00,
2013-03-18 11:30:00,75.5,65.4,30.02,South,181,12.0,23.0,71,0.00,,---,0.00,VWS V12.08,2013-03-18 15:30:00,
2013-03-18 11:31:00,75.6,65.9,30.02,SW,231,8.0,23.0,72,0.00,,---,0.00,VWS V12.08,2013-03-18 15:31:00,
2013-03-18 11:32:00,75.7,65.6,30.02,SW,227,7.0,23.0,71,0.00,,---,0.00,VWS V12.08,2013-03-18 15:32:00,
2013-03-18 11:33:00,75.7,65.6,30.02,SW,217,8.0,23.0,71,0.00,,---,0.00,VWS V12.08,2013-03-18 15:33:00,
2013-03-18 11:34:00,75.8,66.1,30.02,SSW,209,11.0,23.0,72,0.00,,---,0.00,VWS V12.08,2013-03-18 15:34:00,
2013-03-18 11:35:00,75.3,65.7,30.02,SW,229,8.0,23.0,72,0.00,,---,0.00,VWS V12.08,2013-03-18 15:35:00,
2013-03-18 11:36:00,75.9,65.4,30.02,South,189,7.0,23.0,70,0.00,,---,0.00,VWS V12.08,2013-03-18 15:36:00,
2013-03-18 11:37:00,75.9,65.8,30.02,SSW,192,9.0,23.0,71,0.00,,---,0.00,VWS V12.08,2013-03-18 15:37:00,
2013-03-18 11:38:00,75.9,65.8,30.02,South,188,8.0,23.0,71,0.00,,---,0.00,VWS V12.08,2013-03-18 15:38:00,
2013-03-18 11:39:00,76.0,65.9,30.02,SSW,202,4.0,23.0,71,0.00,,---,0.00,VWS V12.08,2013-03-18 15:39:00,
2013-03-18 11:40:00,75.6,65.5,30.02,SW,236,8.0,23.0,71,0.00,,---,0.00,VWS V12.08,2013-03-18 15:40:00,
2013-03-18 11:41:00,76.2,66.5,30.02,SW,222,11.0,23.0,72,0.00,,---,0.00,VWS V12.08,2013-03-18 15:41:00,
2013-03-18 11:42:00,76.4,65.9,30.02,SW,225,7.0,23.0,70,0.00,,---,0.00,VWS V12.08,2013-03-18 15:42:00,
2013-03-18 11:45:00,75.8,66.1,30.02,South,184,8.0,23.0,72,0.00,,---,0.00,VWS V12.08,2013-03-18 15:45:00,
2013-03-18 11:46:00,76.8,66.3,30.02,SSW,198,11.0,23.0,70,0.00,,---,0.00,VWS V12.08,2013-03-18 15:46:00,
2013-03-18 11:47:00,76.7,65.3,30.02,South,182,8.0,23.0,68,0.00,,---,0.00,VWS V12.08,2013-03-18 15:47:00,
2013-03-18 11:48:00,76.7,65.8,30.02,SW,219,6.0,23.0,69,0.00,,---,0.00,VWS V12.08,2013-03-18 15:48:00,
2013-03-18 11:49:00,76.6,66.1,30.02,SW,230,11.0,23.0,70,0.00,,---,0.00,VWS V12.08,2013-03-18 15:49:00,
2013-03-18 11:50:00,76.0,65.9,30.02,WSW,241,10.0,23.0,71,0.00,,---,0.00,VWS V12.08,2013-03-18 15:50:00,
2013-03-18 11:51:00,76.7,66.2,30.01,SW,219,6.0,23.0,70,0.00,,---,0.00,VWS V12.08,2013-03-18 15:51:00,
2013-03-18 11:52:00,76.8,65.9,30.01,SW,236,8.0,23.0,69,0.00,,---,0.00,VWS V12.08,2013-03-18 15:52:00,
2013-03-18 11:53:00,76.9,66.4,30.01,SW,220,3.0,23.0,70,0.00,,---,0.00,VWS V12.08,2013-03-18 15:53:00,
2013-03-18 11:54:00,77.2,67.1,30.01,SSW,213,11.0,23.0,71,0.00,,---,0.00,VWS V12.08,2013-03-18 15:54:00,
2013-03-18 11:55:00,76.6,66.1,30.02,South,173,11.0,23.0,70,0.00,,---,0.00,VWS V12.08,2013-03-18 15:55:00,
2013-03-18 11:56:00,77.7,66.3,30.01,South,182,7.0,23.0,68,0.00,,---,0.00,VWS V12.08,2013-03-18 15:56:00,
2013-03-18 11:57:00,77.9,66.5,30.01,SSW,200,6.0,23.0,68,0.00,,---,0.00,VWS V12.08,2013-03-18 15:57:00,
2013-03-18 11:58:00,78.0,66.6,30.01,SW,223,13.0,23.0,68,0.00,,---,0.00,VWS V12.08,2013-03-18 15:58:00,
2013-03-18 11:59:00,78.1,66.7,30.01,SSW,206,10.0,23.0,68,0.00,,---,0.00,VWS V12.08,2013-03-18 15:59:00,
2013-03-18 12:00:00,78.0,66.2,30.01,South,186,8.0,23.0,67,0.00,,---,0.00,VWS V12.08,2013-03-18 16:00:00,
2013-03-18 12:01:00,78.0,66.6,30.01,SSW,207,6.0,23.0,68,0.00,,---,0.00,VWS V12.08,2013-03-18 16:01:00,
2013-03-18 12:02:00,76.7,66.2,30.01,WSW,239,7.0,23.0,70,0.00,,---,0.00,VWS V12.08,2013-03-18 16:02:00,
2013-03-18 12:03:00,77.8,66.0,30.01,SSW,202,11.0,23.0,67,0.00,,---,0.00,VWS V12.08,2013-03-18 16:03:00,
2013-03-18 12:04:00,77.7,66.3,30.01,SW,234,7.0,23.0,68,0.00,,---,0.00,VWS V12.08,2013-03-18 16:04:00,
2013-03-18 12:05:00,77.7,65.9,30.01,SW,217,10.0,23.0,67,0.00,,---,0.00,VWS V12.08,2013-03-18 16:05:00,
2013-03-18 12:06:00,77.6,66.2,30.01,SW,215,6.0,23.0,68,0.00,,---,0.00,VWS V12.08,2013-03-18 16:06:00,
2013-03-18 12:07:00,77.7,66.3,30.01,South,171,9.0,23.0,68,0.00,,---,0.00,VWS V12.08,2013-03-18 16:07:00,
2013-03-18 12:08:00,77.6,66.2,30.01,SSW,197,7.0,23.0,68,0.00,,---,0.00,VWS V12.08,2013-03-18 16:08:00,
2013-03-18 12:09:00,77.5,65.7,30.01,SSW,205,7.0,23.0,67,0.00,,---,0.00,VWS V12.08,2013-03-18 16:09:00,
2013-03-18 12:10:00,77.5,65.7,30.01,SW,236,5.0,23.0,67,0.00,,---,0.00,VWS V12.08,2013-03-18 16:10:00,
2013-03-18 12:11:00,77.4,66.0,30.01,SW,220,9.0,23.0,68,0.00,,---,0.00,VWS V12.08,2013-03-18 16:11:00,
2013-03-18 12:12:00,78.0,66.6,30.01,SW,217,8.0,23.0,68,0.00,,---,0.00,VWS V12.08,2013-03-18 16:12:00,
2013-03-18 12:13:00,77.5,66.1,30.01,SW,234,6.0,23.0,68,0.00,,---,0.00,VWS V12.08,2013-03-18 16:13:00,
2013-03-18 12:14:00,77.6,66.2,30.01,WSW,250,7.0,23.0,68,0.00,,---,0.00,VWS V12.08,2013-03-18 16:14:00,
2013-03-18 12:15:00,77.7,65.9,30.01,WSW,252,6.0,23.0,67,0.00,,---,0.00,VWS V12.08,2013-03-18 16:15:00,
2013-03-18 12:16:00,77.8,66.0,30.01,WSW,246,3.0,23.0,67,0.00,,---,0.00,VWS V12.08,2013-03-18 16:16:00,
2013-03-18 12:17:00,77.8,66.0,30.01,WSW,244,7.0,23.0,67,0.00,,---,0.00,VWS V12.08,2013-03-18 16:17:00,
2013-03-18 12:18:00,77.9,66.1,30.01,South,188,4.0,23.0,67,0.00,,---,0.00,VWS V12.08,2013-03-18 16:18:00,
2013-03-18 12:19:00,77.7,66.3,30.01,SSW,194,12.0,23.0,68,0.00,,---,0.00,VWS V12.08,2013-03-18 16:19:00,
2013-03-18 12:20:00,78.1,65.8,30.00,SSW,200,8.0,23.0,66,0.00,,---,0.00,VWS V12.08,2013-03-18 16:20:00,
2013-03-18 12:21:00,78.1,65.8,30.00,SSW,194,8.0,23.0,66,0.00,,---,0.00,VWS V12.08,2013-03-18 16:21:00,
2013-03-18 12:22:00,78.2,66.4,30.01,SSW,202,9.0,23.0,67,0.00,,---,0.00,VWS V12.08,2013-03-18 16:22:00,
2013-03-18 12:23:00,78.3,66.0,30.00,SSW,194,7.0,23.0,66,0.00,,---,0.00,VWS V12.08,2013-03-18 16:23:00,
2013-03-18 12:24:00,77.5,66.1,30.01,SW,219,9.0,23.0,68,0.00,,---,0.00,VWS V12.08,2013-03-18 16:24:00,
2013-03-18 12:25:00,78.3,65.6,30.00,South,184,6.0,23.0,65,0.00,,---,0.00,VWS V12.08,2013-03-18 16:25:00,
2013-03-18 12:26:00,78.2,65.5,30.00,SSW,206,6.0,23.0,65,0.00,,---,0.00,VWS V12.08,2013-03-18 16:26:00,
2013-03-18 12:27:00,78.2,65.5,30.00,SSW,203,5.0,23.0,65,0.00,,---,0.00,VWS V12.08,2013-03-18 16:27:00,
2013-03-18 12:28:00,78.1,65.4,30.00,South,180,8.0,23.0,65,0.00,,---,0.00,VWS V12.08,2013-03-18 16:28:00,
2013-03-18 12:29:00,77.9,66.1,30.01,SW,225,6.0,23.0,67,0.00,,---,0.00,VWS V12.08,2013-03-18 16:29:00,
2013-03-18 12:30:00,77.8,65.1,29.99,South,180,6.0,23.0,65,0.00,,---,0.00,VWS V12.08,2013-03-18 16:30:00,
2013-03-18 12:31:00,77.7,65.0,29.99,South,178,7.0,23.0,65,0.00,,---,0.00,VWS V12.08,2013-03-18 16:31:00,
2013-03-18 12:32:00,77.6,65.3,30.00,SSW,212,12.0,23.0,66,0.00,,---,0.00,VWS V12.08,2013-03-18 16:32:00,
2013-03-18 12:33:00,77.5,65.3,30.00,SW,231,10.0,23.0,66,0.00,,---,0.00,VWS V12.08,2013-03-18 16:33:00,
2013-03-18 12:34:00,77.3,65.1,30.00,SW,234,7.0,23.0,66,0.00,,---,0.00,VWS V12.08,2013-03-18 16:34:00,
2013-03-18 12:35:00,78.3,66.0,30.00,South,177,9.0,23.0,66,0.00,,---,0.00,VWS V12.08,2013-03-18 16:35:00,
2013-03-18 12:36:00,77.0,65.2,30.00,SW,217,10.0,23.0,67,0.00,,---,0.00,VWS V12.08,2013-03-18 16:36:00,
2013-03-18 12:37:00,76.9,65.1,30.00,SW,218,10.0,23.0,67,0.00,,---,0.00,VWS V12.08,2013-03-18 16:37:00,
2013-03-18 12:38:00,76.8,65.0,30.00,SW,215,7.0,23.0,67,0.00,,---,0.00,VWS V12.08,2013-03-18 16:38:00,
2013-03-18 12:39:00,76.8,65.0,30.00,SW,217,8.0,23.0,67,0.00,,---,0.00,VWS V12.08,2013-03-18 16:39:00,
2013-03-18 12:40:00,76.7,64.5,30.00,SW,224,9.0,23.0,66,0.00,,---,0.00,VWS V12.08,2013-03-18 16:40:00,
2013-03-18 12:41:00,77.9,65.2,30.00,SW,215,6.0,23.0,65,0.00,,---,0.00,VWS V12.08,2013-03-18 16:41:00,
2013-03-18 12:42:00,76.7,64.5,30.00,SW,236,6.0,23.0,66,0.00,,---,0.00,VWS V12.08,2013-03-18 16:42:00,
2013-03-18 12:43:00,76.7,64.9,30.00,SW,228,6.0,23.0,67,0.00,,---,0.00,VWS V12.08,2013-03-18 16:43:00,
2013-03-18 12:44:00,76.8,65.0,30.00,SW,227,10.0,23.0,67,0.00,,---,0.00,VWS V12.08,2013-03-18 16:44:00,
2013-03-18 12:45:00,76.8,65.0,30.00,SW,231,7.0,23.0,67,0.00,,---,0.00,VWS V12.08,2013-03-18 16:45:00,
2013-03-18 12:46:00,77.2,65.0,30.00,SW,220,7.0,23.0,66,0.00,,---,0.00,VWS V12.08,2013-03-18 16:46:00,
2013-03-18 12:47:00,76.9,65.1,30.00,SW,233,12.0,23.0,67,0.00,,---,0.00,VWS V12.08,2013-03-18 16:47:00,
2013-03-18 12:48:00,76.9,65.5,30.00,SW,227,13.0,23.0,68,0.00,,---,0.00,VWS V12.08,2013-03-18 16:48:00,
2013-03-18 12:49:00,76.8,65.4,30.00,SW,215,6.0,23.0,68,0.00,,---,0.00,VWS V12.08,2013-03-18 16:49:00,
2013-03-18 12:50:00,76.7,65.8,30.00,SW,215,9.0,23.0,69,0.00,,---,0.00,VWS V12.08,2013-03-18 16:50:00,
2013-03-18 12:51:00,76.6,65.3,30.00,SW,224,7.0,23.0,68,0.00,,---,0.00,VWS V12.08,2013-03-18 16:51:00,
2013-03-18 12:52:00,76.7,64.5,30.00,SW,219,8.0,23.0,66,0.00,,---,0.00,VWS V12.08,2013-03-18 16:52:00,
2013-03-18 12:53:00,76.5,64.7,30.00,SW,221,4.0,23.0,67,0.00,,---,0.00,VWS V12.08,2013-03-18 16:53:00,
2013-03-18 12:54:00,76.5,65.2,30.00,SSW,194,8.0,23.0,68,0.00,,---,0.00,VWS V12.08,2013-03-18 16:54:00,
2013-03-18 12:55:00,76.5,65.2,30.00,SW,227,11.0,23.0,68,0.00,,---,0.00,VWS V12.08,2013-03-18 16:55:00,
2013-03-18 12:56:00,76.7,65.3,30.00,SW,233,4.0,23.0,68,0.00,,---,0.00,VWS V12.08,2013-03-18 16:56:00,
2013-03-18 12:57:00,76.8,65.4,30.00,WSW,245,5.0,23.0,68,0.00,,---,0.00,VWS V12.08,2013-03-18 16:57:00,
2013-03-18 12:58:00,76.9,65.5,30.00,SW,232,7.0,23.0,68,0.00,,---,0.00,VWS V12.08,2013-03-18 16:58:00,
2013-03-18 12:59:00,77.1,65.7,30.00,WSW,244,10.0,23.0,68,0.00,,---,0.00,VWS V12.08,2013-03-18 16:59:00,
2013-03-18 13:00:00,77.2,65.4,30.00,SW,235,12.0,23.0,67,0.00,,---,0.00,VWS V12.08,2013-03-18 17:00:00,
2013-03-18 13:01:00,77.3,65.1,29.99,WSW,238,7.0,23.0,66,0.00,,---,0.00,VWS V12.08,2013-03-18 17:01:00,
2013-03-18 13:02:00,77.4,65.2,30.00,WSW,246,3.0,23.0,66,0.00,,---,0.00,VWS V12.08,2013-03-18 17:02:00,
2013-03-18 13:03:00,77.5,65.7,29.99,SSW,193,8.0,23.0,67,0.00,,---,0.00,VWS V12.08,2013-03-18 17:03:00,
2013-03-18 13:04:00,77.6,65.3,29.99,SSW,213,6.0,23.0,66,0.00,,---,0.00,VWS V12.08,2013-03-18 17:04:00,
2013-03-18 13:05:00,77.6,65.3,30.00,SW,225,7.0,23.0,66,0.00,,---,0.00,VWS V12.08,2013-03-18 17:05:00,
2013-03-18 13:06:00,77.6,64.9,30.00,SW,229,4.0,23.0,65,0.00,,---,0.00,VWS V12.08,2013-03-18 17:06:00,
2013-03-18 13:07:00,77.7,65.4,29.99,WSW,238,6.0,23.0,66,0.00,,---,0.00,VWS V12.08,2013-03-18 17:07:00,
2013-03-18 13:08:00,76.9,65.5,29.99,WSW,246,6.0,23.0,68,0.00,,---,0.00,VWS V12.08,2013-03-18 17:08:00,
2013-03-18 13:09:00,77.6,64.9,29.99,West,264,4.0,23.0,65,0.00,,---,0.00,VWS V12.08,2013-03-18 17:09:00,
2013-03-18 13:10:00,77.6,64.9,29.99,WSW,252,6.0,23.0,65,0.00,,---,0.00,VWS V12.08,2013-03-18 17:10:00,
2013-03-18 13:11:00,77.6,64.9,29.99,SW,225,5.0,23.0,65,0.00,,---,0.00,VWS V12.08,2013-03-18 17:11:00,
2013-03-18 13:12:00,77.5,64.8,29.99,SSW,199,7.0,23.0,65,0.00,,---,0.00,VWS V12.08,2013-03-18 17:12:00,
2013-03-18 13:13:00,77.5,65.3,29.99,SSW,193,7.0,23.0,66,0.00,,---,0.00,VWS V12.08,2013-03-18 17:13:00,
2013-03-18 13:14:00,77.5,64.8,29.99,SSW,206,7.0,23.0,65,0.00,,---,0.00,VWS V12.08,2013-03-18 17:14:00,
2013-03-18 13:15:00,77.6,64.9,29.99,WSW,248,11.0,23.0,65,0.00,,---,0.00,VWS V12.08,2013-03-18 17:15:00,
2013-03-18 13:16:00,77.7,65.0,29.99,SSW,212,9.0,23.0,65,0.00,,---,0.00,VWS V12.08,2013-03-18 17:16:00,
2013-03-18 13:17:00,77.8,64.7,29.99,SSW,205,9.0,23.0,64,0.00,,---,0.00,VWS V12.08,2013-03-18 17:17:00,
2013-03-18 13:18:00,77.6,65.3,29.99,SW,229,7.0,23.0,66,0.00,,---,0.00,VWS V12.08,2013-03-18 17:18:00,
2013-03-18 13:19:00,77.8,65.1,29.99,SW,236,12.0,23.0,65,0.00,,---,0.00,VWS V12.08,2013-03-18 17:19:00,
2013-03-18 13:20:00,77.8,64.7,29.98,SW,219,7.0,23.0,64,0.00,,---,0.00,VWS V12.08,2013-03-18 17:20:00,
2013-03-18 13:23:00,77.5,64.8,29.99,SSW,202,4.0,23.0,65,0.00,,---,0.00,VWS V12.08,2013-03-18 17:23:00,
2013-03-18 13:24:00,77.8,64.2,29.99,SW,217,4.0,23.0,63,0.00,,---,0.00,VWS V12.08,2013-03-18 17:24:00,
2013-03-18 13:25:00,77.7,64.6,29.99,WSW,243,5.0,23.0,64,0.00,,---,0.00,VWS V12.08,2013-03-18 17:25:00,
2013-03-18 13:26:00,77.7,65.0,29.99,WSW,242,3.0,23.0,65,0.00,,---,0.00,VWS V12.08,2013-03-18 17:26:00,
2013-03-18 13:27:00,77.8,65.1,29.99,WSW,252,5.0,23.0,65,0.00,,---,0.00,VWS V12.08,2013-03-18 17:27:00,
2013-03-18 13:28:00,77.8,65.1,29.99,SW,224,7.0,23.0,65,0.00,,---,0.00,VWS V12.08,2013-03-18 17:28:00,
2013-03-18 13:29:00,77.9,64.8,29.98,WSW,246,5.0,23.0,64,0.00,,---,0.00,VWS V12.08,2013-03-18 17:29:00,
2013-03-18 13:30:00,77.9,64.8,29.98,SW,233,6.0,23.0,64,0.00,,---,0.00,VWS V12.08,2013-03-18 17:30:00,
2013-03-18 13:31:00,77.9,64.8,29.98,SW,231,7.0,23.0,64,0.00,,---,0.00,VWS V12.08,2013-03-18 17:31:00,
2013-03-18 13:32:00,78.0,64.8,29.98,SSW,204,8.0,23.0,64,0.00,,---,0.00,VWS V12.08,2013-03-18 17:32:00,
2013-03-18 13:33:00,78.1,64.9,29.98,SW,219,9.0,23.0,64,0.00,,---,0.00,VWS V12.08,2013-03-18 17:33:00,
2013-03-18 13:34:00,77.8,64.7,29.99,SSW,213,4.0,23.0,64,0.00,,---,0.00,VWS V12.08,2013-03-18 17:34:00,
2013-03-18 13:35:00,78.1,64.5,29.98,SW,231,8.0,23.0,63,0.00,,---,0.00,VWS V12.08,2013-03-18 17:35:00,
2013-03-18 13:37:00,78.0,64.4,29.98,SW,219,10.0,23.0,63,0.00,,---,0.00,VWS V12.08,2013-03-18 17:37:00,
2013-03-18 13:39:00,77.9,64.8,29.98,WSW,241,7.0,23.0,64,0.00,,---,0.00,VWS V12.08,2013-03-18 17:39:00,
2013-03-18 13:40:00,78.0,64.4,29.97,SW,231,7.0,23.0,63,0.00,,---,0.00,VWS V12.08,2013-03-18 17:40:00,
2013-03-18 13:41:00,78.0,64.8,29.97,SW,221,8.0,23.0,64,0.00,,---,0.00,VWS V12.08,2013-03-18 17:41:00,
2013-03-18 13:42:00,78.0,64.8,29.97,SW,223,6.0,23.0,64,0.00,,---,0.00,VWS V12.08,2013-03-18 17:42:00,
2013-03-18 13:43:00,78.0,64.4,29.97,WSW,245,4.0,23.0,63,0.00,,---,0.00,VWS V12.08,2013-03-18 17:43:00,
2013-03-18 13:44:00,78.1,64.5,29.98,SSW,206,6.0,23.0,63,0.00,,---,0.00,VWS V12.08,2013-03-18 17:44:00,
2013-03-18 13:45:00,78.2,65.0,29.97,SW,228,8.0,23.0,64,0.00,,---,0.00,VWS V12.08,2013-03-18 17:45:00,
2013-03-18 13:46:00,78.4,65.2,29.97,SW,227,7.0,23.0,64,0.00,,---,0.00,VWS V12.08,2013-03-18 17:46:00,
2013-03-18 13:47:00,78.4,65.2,29.97,SW,233,10.0,23.0,64,0.00,,---,0.00,VWS V12.08,2013-03-18 17:47:00,
2013-03-18 13:48:00,78.6,64.5,29.97,SW,236,5.0,23.0,62,0.00,,---,0.00,VWS V12.08,2013-03-18 17:48:00,
2013-03-18 13:49:00,78.0,64.4,29.97,WSW,238,7.0,23.0,63,0.00,,---,0.00,VWS V12.08,2013-03-18 17:49:00,
2013-03-18 13:50:00,78.8,64.7,29.97,WSW,248,8.0,23.0,62,0.00,,---,0.00,VWS V12.08,2013-03-18 17:50:00,
2013-03-18 13:51:00,78.9,65.2,29.97,SW,228,10.0,23.0,63,0.00,,---,0.00,VWS V12.08,2013-03-18 17:51:00,
2013-03-18 13:52:00,79.0,64.9,29.97,SW,221,6.0,23.0,62,0.00,,---,0.00,VWS V12.08,2013-03-18 17:52:00,
2013-03-18 13:53:00,79.0,64.4,29.97,SSW,207,8.0,23.0,61,0.00,,---,0.00,VWS V12.08,2013-03-18 17:53:00,
2013-03-18 13:54:00,78.1,64.9,29.97,SW,217,8.0,23.0,64,0.00,,---,0.00,VWS V12.08,2013-03-18 17:54:00,
2013-03-18 13:55:00,79.0,64.4,29.96,South,188,9.0,23.0,61,0.00,,---,0.00,VWS V12.08,2013-03-18 17:55:00,
2013-03-18 13:56:00,79.0,64.4,29.96,South,180,8.0,23.0,61,0.00,,---,0.00,VWS V12.08,2013-03-18 17:56:00,
2013-03-18 13:57:00,79.0,64.4,29.96,South,186,4.0,23.0,61,0.00,,---,0.00,VWS V12.08,2013-03-18 17:57:00,
2013-03-18 13:58:00,78.9,64.3,29.96,South,180,6.0,23.0,61,0.00,,---,0.00,VWS V12.08,2013-03-18 17:58:00,
2013-03-18 13:59:00,78.7,65.1,29.97,SW,231,7.0,23.0,63,0.00,,---,0.00,VWS V12.08,2013-03-18 17:59:00,
2013-03-18 14:00:00,79.0,64.4,29.96,SSW,198,6.0,23.0,61,0.00,,---,0.00,VWS V12.08,2013-03-18 18:00:00,
2013-03-18 14:01:00,79.0,64.4,29.96,SSW,211,4.0,23.0,61,0.00,,---,0.00,VWS V12.08,2013-03-18 18:01:00,
2013-03-18 14:02:00,79.0,64.4,29.96,SW,219,4.0,23.0,61,0.00,,---,0.00,VWS V12.08,2013-03-18 18:02:00,
2013-03-18 14:03:00,79.0,64.4,29.95,SSW,199,7.0,23.0,61,0.00,,---,0.00,VWS V12.08,2013-03-18 18:03:00,
2013-03-18 14:04:00,79.0,64.4,29.96,SSW,202,5.0,23.0,61,0.00,,---,0.00,VWS V12.08,2013-03-18 18:04:00,
2013-03-18 14:05:00,79.1,64.5,29.95,SSW,196,4.0,23.0,61,0.00,,---,0.00,VWS V12.08,2013-03-18 18:05:00,
2013-03-18 14:06:00,79.1,64.5,29.95,SSW,207,5.0,23.0,61,0.00,,---,0.00,VWS V12.08,2013-03-18 18:06:00,
2013-03-18 14:07:00,79.1,64.5,29.95,SSW,200,6.0,23.0,61,0.00,,---,0.00,VWS V12.08,2013-03-18 18:07:00,
2013-03-18 14:08:00,79.1,64.0,29.95,South,182,1.0,23.0,60,0.00,,---,0.00,VWS V12.08,2013-03-18 18:08:00,
2013-03-18 14:09:00,79.0,64.4,29.96,SSW,209,7.0,23.0,61,0.00,,---,0.00,VWS V12.08,2013-03-18 18:09:00,
2013-03-18 14:10:00,79.1,64.5,29.95,SSW,206,9.0,23.0,61,0.00,,---,0.00,VWS V12.08,2013-03-18 18:10:00,
2013-03-18 14:11:00,79.0,64.4,29.95,SSW,200,6.0,23.0,61,0.00,,---,0.00,VWS V12.08,2013-03-18 18:11:00,
2013-03-18 14:12:00,79.0,64.4,29.95,SW,221,9.0,23.0,61,0.00,,---,0.00,VWS V12.08,2013-03-18 18:12:00,
2013-03-18 14:13:00,79.0,64.9,29.96,SSW,195,7.0,23.0,62,0.00,,---,0.00,VWS V12.08,2013-03-18 18:13:00,
2013-03-18 14:15:00,79.0,64.4,29.95,SSW,199,5.0,23.0,61,0.00,,---,0.00,VWS V12.08,2013-03-18 18:15:00,
2013-03-18 14:16:00,78.9,64.3,29.95,SW,220,9.0,23.0,61,0.00,,---,0.00,VWS V12.08,2013-03-18 18:16:00,
2013-03-18 14:17:00,78.9,64.3,29.95,SW,229,7.0,23.0,61,0.00,,---,0.00,VWS V12.08,2013-03-18 18:17:00,
2013-03-18 14:18:00,78.9,64.3,29.95,SSW,192,8.0,23.0,61,0.00,,---,0.00,VWS V12.08,2013-03-18 18:18:00,
2013-03-18 14:19:00,78.9,64.3,29.95,SW,217,5.0,23.0,61,0.00,,---,0.00,VWS V12.08,2013-03-18 18:19:00,
2013-03-18 14:20:00,79.1,64.5,29.95,SW,219,7.0,23.0,61,0.00,,---,0.00,VWS V12.08,2013-03-18 18:20:00,
2013-03-18 14:21:00,78.9,64.3,29.95,SW,221,5.0,23.0,61,0.00,,---,0.00,VWS V12.08,2013-03-18 18:21:00,
2013-03-18 14:22:00,78.9,64.3,29.95,SW,214,6.0,23.0,61,0.00,,---,0.00,VWS V12.08,2013-03-18 18:22:00,
2013-03-18 14:23:00,78.9,64.3,29.95,SW,223,5.0,23.0,61,0.00,,---,0.00,VWS V12.08,2013-03-18 18:23:00,
2013-03-18 14:24:00,78.9,64.3,29.95,SW,222,5.0,23.0,61,0.00,,---,0.00,VWS V12.08,2013-03-18 18:24:00,
2013-03-18 14:25:00,78.9,64.8,29.96,SSW,210,9.0,23.0,62,0.00,,---,0.00,VWS V12.08,2013-03-18 18:25:00,
2013-03-18 14:26:00,78.9,64.3,29.95,SW,227,6.0,23.0,61,0.00,,---,0.00,VWS V12.08,2013-03-18 18:26:00,
2013-03-18 14:27:00,78.8,64.2,29.95,SW,235,8.0,23.0,61,0.00,,---,0.00,VWS V12.08,2013-03-18 18:27:00,
2013-03-18 14:28:00,78.7,64.1,29.95,SW,228,6.0,23.0,61,0.00,,---,0.00,VWS V12.08,2013-03-18 18:28:00,
2013-03-18 14:29:00,78.6,64.5,29.95,SW,221,4.0,23.0,62,0.00,,---,0.00,VWS V12.08,2013-03-18 18:29:00,
2013-03-18 14:30:00,78.6,64.5,29.95,SW,220,3.0,23.0,62,0.00,,---,0.00,VWS V12.08,2013-03-18 18:30:00,
2013-03-18 14:31:00,78.5,64.0,29.94,SSW,212,4.0,23.0,61,0.00,,---,0.00,VWS V12.08,2013-03-18 18:31:00,
2013-03-18 14:32:00,78.9,64.3,29.95,SW,223,9.0,23.0,61,0.00,,---,0.00,VWS V12.08,2013-03-18 18:32:00,
2013-03-18 14:37:00,78.8,64.2,29.95,WSW,242,7.0,23.0,61,0.00,,---,0.00,VWS V12.08,2013-03-18 18:37:00,
2013-03-18 14:42:00,78.5,64.0,29.94,SSW,212,3.0,23.0,61,0.00,,---,0.00,VWS V12.08,2013-03-18 18:42:00,
2013-03-18 14:47:00,78.5,64.4,29.94,WSW,256,5.0,23.0,62,0.00,,---,0.00,VWS V12.08,2013-03-18 18:47:00,
2013-03-18 14:50:00,78.2,64.1,29.95,SW,219,8.0,23.0,62,0.00,,---,0.00,VWS V12.08,2013-03-18 18:50:00,
2013-03-18 14:51:00,78.2,64.1,29.94,SW,215,5.0,23.0,62,0.00,,---,0.00,VWS V12.08,2013-03-18 18:51:00,
2013-03-18 14:52:00,78.5,64.4,29.95,SW,222,8.0,23.0,62,0.00,,---,0.00,VWS V12.08,2013-03-18 18:52:00,
2013-03-18 14:54:00,78.1,64.0,29.94,SW,233,8.0,23.0,62,0.00,,---,0.00,VWS V12.08,2013-03-18 18:54:00,
2013-03-18 14:55:00,78.1,64.0,29.94,SW,229,11.0,23.0,62,0.00,,---,0.00,VWS V12.08,2013-03-18 18:55:00,
2013-03-18 14:56:00,78.1,64.0,29.94,SSW,213,8.0,23.0,62,0.00,,---,0.00,VWS V12.08,2013-03-18 18:56:00,
2013-03-18 14:57:00,78.4,64.3,29.95,SW,217,10.0,23.0,62,0.00,,---,0.00,VWS V12.08,2013-03-18 18:57:00,
2013-03-18 14:58:00,78.1,64.0,29.94,SW,217,7.0,23.0,62,0.00,,---,0.00,VWS V12.08,2013-03-18 18:58:00,
2013-03-18 14:59:00,78.1,64.0,29.93,SSW,203,7.0,23.0,62,0.00,,---,0.00,VWS V12.08,2013-03-18 18:59:00,
2013-03-18 15:00:00,78.1,64.0,29.93,SW,215,6.0,23.0,62,0.00,,---,0.00,VWS V12.08,2013-03-18 19:00:00,
2013-03-18 15:01:00,78.1,64.0,29.93,WSW,237,10.0,23.0,62,0.00,,---,0.00,VWS V12.08,2013-03-18 19:01:00,
2013-03-18 15:02:00,78.2,64.1,29.94,SW,221,7.0,23.0,62,0.00,,---,0.00,VWS V12.08,2013-03-18 19:02:00,
2013-03-18 15:03:00,78.1,64.5,29.93,SSW,202,10.0,23.0,63,0.00,,---,0.00,VWS V12.08,2013-03-18 19:03:00,
2013-03-18 15:04:00,78.1,64.0,29.93,SSW,211,6.0,23.0,62,0.00,,---,0.00,VWS V12.08,2013-03-18 19:04:00,
2013-03-18 15:05:00,78.0,64.4,29.93,SW,218,7.0,23.0,63,0.00,,---,0.00,VWS V12.08,2013-03-18 19:05:00,
2013-03-18 15:06:00,78.0,64.4,29.93,SW,215,8.0,23.0,63,0.00,,---,0.00,VWS V12.08,2013-03-18 19:06:00,
2013-03-18 15:07:00,78.0,64.4,29.93,SSW,194,7.0,23.0,63,0.00,,---,0.00,VWS V12.08,2013-03-18 19:07:00,
2013-03-18 15:08:00,78.1,64.0,29.93,SW,215,8.0,23.0,62,0.00,,---,0.00,VWS V12.08,2013-03-18 19:08:00,
2013-03-18 15:09:00,78.0,64.4,29.93,SW,221,5.0,23.0,63,0.00,,---,0.00,VWS V12.08,2013-03-18 19:09:00,
2013-03-18 15:10:00,78.1,64.5,29.93,SW,229,6.0,23.0,63,0.00,,---,0.00,VWS V12.08,2013-03-18 19:10:00,
2013-03-18 15:11:00,78.2,64.6,29.93,SW,225,6.0,23.0,63,0.00,,---,0.00,VWS V12.08,2013-03-18 19:11:00,
2013-03-18 15:12:00,78.3,64.7,29.93,South,187,11.0,23.0,63,0.00,,---,0.00,VWS V12.08,2013-03-18 19:12:00,
2013-03-18 15:13:00,78.1,64.5,29.93,SW,216,9.0,23.0,63,0.00,,---,0.00,VWS V12.08,2013-03-18 19:13:00,
2013-03-18 15:14:00,78.4,64.8,29.93,SW,219,6.0,23.0,63,0.00,,---,0.00,VWS V12.08,2013-03-18 19:14:00,
2013-03-18 15:15:00,78.4,64.8,29.93,SW,227,6.0,23.0,63,0.00,,---,0.00,VWS V12.08,2013-03-18 19:15:00,
2013-03-18 15:16:00,78.5,64.4,29.93,SW,218,7.0,23.0,62,0.00,,---,0.00,VWS V12.08,2013-03-18 19:16:00,
2013-03-18 15:17:00,78.6,64.5,29.93,SW,223,10.0,23.0,62,0.00,,---,0.00,VWS V12.08,2013-03-18 19:17:00,
2013-03-18 15:18:00,78.0,64.4,29.93,SW,223,7.0,23.0,63,0.00,,---,0.00,VWS V12.08,2013-03-18 19:18:00,
2013-03-18 15:19:00,78.6,64.5,29.92,South,179,13.0,23.0,62,0.00,,---,0.00,VWS V12.08,2013-03-18 19:19:00,
2013-03-18 15:20:00,78.5,64.4,29.92,SSW,207,8.0,23.0,62,0.00,,---,0.00,VWS V12.08,2013-03-18 19:20:00,
2013-03-18 15:21:00,78.5,64.4,29.92,SSW,203,7.0,23.0,62,0.00,,---,0.00,VWS V12.08,2013-03-18 19:21:00,
2013-03-18 15:22:00,78.4,64.3,29.92,SSW,200,6.0,23.0,62,0.00,,---,0.00,VWS V12.08,2013-03-18 19:22:00,
2013-03-18 15:23:00,78.4,64.3,29.93,South,188,7.0,23.0,62,0.00,,---,0.00,VWS V12.08,2013-03-18 19:23:00,
2013-03-18 15:24:00,78.3,64.7,29.92,SW,217,10.0,23.0,63,0.00,,---,0.00,VWS V12.08,2013-03-18 19:24:00,
2013-03-18 15:25:00,78.4,64.8,29.92,SW,232,4.0,23.0,63,0.00,,---,0.00,VWS V12.08,2013-03-18 19:25:00,
2013-03-18 15:26:00,78.5,64.9,29.91,South,189,5.0,23.0,63,0.00,,---,0.00,VWS V12.08,2013-03-18 19:26:00,
2013-03-18 15:27:00,78.6,65.0,29.91,SSW,192,8.0,23.0,63,0.00,,---,0.00,VWS V12.08,2013-03-18 19:27:00,
2013-03-18 15:28:00,78.5,64.4,29.93,SSW,207,7.0,23.0,62,0.00,,---,0.00,VWS V12.08,2013-03-18 19:28:00,
2013-03-18 15:29:00,79.0,65.3,29.92,SSW,203,9.0,23.0,63,0.00,,---,0.00,VWS V12.08,2013-03-18 19:29:00,
2013-03-18 15:30:00,79.1,65.0,29.91,SSW,209,6.0,23.0,62,0.00,,---,0.00,VWS V12.08,2013-03-18 19:30:00,
2013-03-18 15:31:00,79.1,65.0,29.91,SSW,205,4.0,23.0,62,0.00,,---,0.00,VWS V12.08,2013-03-18 19:31:00,
2013-03-18 15:32:00,79.1,65.4,29.91,SW,221,5.0,23.0,63,0.00,,---,0.00,VWS V12.08,2013-03-18 19:32:00,
2013-03-18 15:33:00,78.4,64.3,29.92,SW,218,9.0,23.0,62,0.00,,---,0.00,VWS V12.08,2013-03-18 19:33:00,
2013-03-18 15:34:00,79.2,65.1,29.91,WSW,243,6.0,23.0,62,0.00,,---,0.00,VWS V12.08,2013-03-18 19:34:00,
2013-03-18 15:35:00,79.3,65.2,29.91,WSW,237,11.0,23.0,62,0.00,,---,0.00,VWS V12.08,2013-03-18 19:35:00,
2013-03-18 15:36:00,79.3,65.2,29.91,SSW,209,7.0,23.0,62,0.00,,---,0.00,VWS V12.08,2013-03-18 19:36:00,
2013-03-18 15:37:00,79.4,65.3,29.92,SSW,196,7.0,23.0,62,0.00,,---,0.00,VWS V12.08,2013-03-18 19:37:00,
2013-03-18 15:38:00,79.4,64.8,29.92,SSW,213,6.0,23.0,61,0.00,,---,0.00,VWS V12.08,2013-03-18 19:38:00,
2013-03-18 15:39:00,78.8,65.2,29.92,SSW,196,6.0,23.0,63,0.00,,---,0.00,VWS V12.08,2013-03-18 19:39:00,
2013-03-18 15:40:00,79.4,64.8,29.92,SW,227,8.0,23.0,61,0.00,,---,0.00,VWS V12.08,2013-03-18 19:40:00,
2013-03-18 15:41:00,79.4,64.8,29.92,SW,223,5.0,23.0,61,0.00,,---,0.00,VWS V12.08,2013-03-18 19:41:00,
2013-03-18 15:42:00,79.3,64.7,29.92,South,186,9.0,23.0,61,0.00,,---,0.00,VWS V12.08,2013-03-18 19:42:00,
2013-03-18 15:43:00,79.3,64.7,29.92,SSW,198,9.0,23.0,61,0.00,,---,0.00,VWS V12.08,2013-03-18 19:43:00,
2013-03-18 15:44:00,79.2,65.1,29.92,SW,232,5.0,23.0,62,0.00,,---,0.00,VWS V12.08,2013-03-18 19:44:00,
2013-03-18 15:45:00,79.1,64.5,29.91,SSW,203,13.0,23.0,61,0.00,,---,0.00,VWS V12.08,2013-03-18 19:45:00,
2013-03-18 15:46:00,79.0,64.4,29.91,SSW,207,9.0,23.0,61,0.00,,---,0.00,VWS V12.08,2013-03-18 19:46:00,
2013-03-18 15:47:00,78.8,64.2,29.91,SW,233,8.0,23.0,61,0.00,,---,0.00,VWS V12.08,2013-03-18 19:47:00,
2013-03-18 15:48:00,78.8,64.2,29.91,SW,225,11.0,23.0,61,0.00,,---,0.00,VWS V12.08,2013-03-18 19:48:00,
2013-03-18 15:49:00,79.4,64.8,29.92,SW,217,8.0,23.0,61,0.00,,---,0.00,VWS V12.08,2013-03-18 19:49:00,
2013-03-18 15:50:00,78.7,64.6,29.91,SSW,197,8.0,23.0,62,0.00,,---,0.00,VWS V12.08,2013-03-18 19:50:00,
2013-03-18 15:51:00,78.7,64.1,29.91,SSW,194,10.0,23.0,61,0.00,,---,0.00,VWS V12.08,2013-03-18 19:51:00,
2013-03-18 15:52:00,78.7,64.6,29.91,SSW,209,8.0,23.0,62,0.00,,---,0.00,VWS V12.08,2013-03-18 19:52:00,
2013-03-18 15:53:00,78.6,64.5,29.91,SSW,209,7.0,23.0,62,0.00,,---,0.00,VWS V12.08,2013-03-18 19:53:00,
2013-03-18 15:54:00,79.2,64.6,29.92,SSW,206,10.0,23.0,61,0.00,,---,0.00,VWS V12.08,2013-03-18 19:54:00,
2013-03-18 15:55:00,78.6,65.0,29.90,SSW,204,6.0,23.0,63,0.00,,---,0.00,VWS V12.08,2013-03-18 19:55:00,
2013-03-18 15:56:00,78.7,64.6,29.90,South,183,7.0,23.0,62,0.00,,---,0.00,VWS V12.08,2013-03-18 19:56:00,
2013-03-18 15:57:00,78.7,64.6,29.90,SSW,200,7.0,23.0,62,0.00,,---,0.00,VWS V12.08,2013-03-18 19:57:00,
2013-03-18 15:58:00,78.7,64.6,29.90,SSW,204,5.0,23.0,62,0.00,,---,0.00,VWS V12.08,2013-03-18 19:58:00,
2013-03-18 15:59:00,78.7,64.6,29.91,SSW,202,5.0,23.0,62,0.00,,---,0.00,VWS V12.08,2013-03-18 19:59:00,
2013-03-18 16:00:00,78.8,65.2,29.90,SSW,213,6.0,23.0,63,0.00,,---,0.00,VWS V12.08,2013-03-18 20:00:00,
2013-03-18 16:01:00,78.8,64.7,29.90,SW,223,11.0,23.0,62,0.00,,---,0.00,VWS V12.08,2013-03-18 20:01:00,
2013-03-18 16:02:00,78.8,64.7,29.90,SW,221,9.0,23.0,62,0.00,,---,0.00,VWS V12.08,2013-03-18 20:02:00,
2013-03-18 16:03:00,78.8,64.7,29.90,SW,219,6.0,23.0,62,0.00,,---,0.00,VWS V12.08,2013-03-18 20:03:00,
2013-03-18 16:04:00,78.6,64.5,29.91,SSW,205,7.0,23.0,62,0.00,,---,0.00,VWS V12.08,2013-03-18 20:04:00,
2013-03-18 16:05:00,78.8,64.7,29.91,SW,221,5.0,23.0,62,0.00,,---,0.00,VWS V12.08,2013-03-18 20:05:00,
2013-03-18 16:06:00,78.7,64.6,29.90,SSW,211,7.0,23.0,62,0.00,,---,0.00,VWS V12.08,2013-03-18 20:06:00,
2013-03-18 16:07:00,78.7,64.6,29.90,SSW,196,6.0,23.0,62,0.00,,---,0.00,VWS V12.08,2013-03-18 20:07:00,
2013-03-18 16:08:00,78.7,64.6,29.90,SSW,209,3.0,23.0,62,0.00,,---,0.00,VWS V12.08,2013-03-18 20:08:00,
2013-03-18 16:09:00,78.7,64.6,29.90,SSW,201,8.0,23.0,62,0.00,,---,0.00,VWS V12.08,2013-03-18 20:09:00,
2013-03-18 16:10:00,78.7,64.6,29.90,SW,230,11.0,23.0,62,0.00,,---,0.00,VWS V12.08,2013-03-18 20:10:00,
2013-03-18 16:11:00,78.7,64.6,29.91,WSW,244,8.0,23.0,62,0.00,,---,0.00,VWS V12.08,2013-03-18 20:11:00,
2013-03-18 16:12:00,78.7,65.1,29.90,WSW,243,5.0,23.0,63,0.00,,---,0.00,VWS V12.08,2013-03-18 20:12:00,
2013-03-18 16:13:00,78.7,64.6,29.90,WSW,243,7.0,23.0,62,0.00,,---,0.00,VWS V12.08,2013-03-18 20:13:00,
2013-03-18 16:14:00,78.8,64.7,29.91,SSW,213,6.0,23.0,62,0.00,,---,0.00,VWS V12.08,2013-03-18 20:14:00,
2013-03-18 16:15:00,78.7,64.6,29.90,SW,225,10.0,23.0,62,0.00,,---,0.00,VWS V12.08,2013-03-18 20:15:00,
2013-03-18 16:16:00,78.7,64.6,29.90,SSW,204,7.0,23.0,62,0.00,,---,0.00,VWS V12.08,2013-03-18 20:16:00,
2013-03-18 16:17:00,78.6,64.5,29.90,SW,221,8.0,23.0,62,0.00,,---,0.00,VWS V12.08,2013-03-18 20:17:00,
2013-03-18 16:18:00,78.7,64.6,29.90,WSW,242,5.0,23.0,62,0.00,,---,0.00,VWS V12.08,2013-03-18 20:18:00,
2013-03-18 16:19:00,78.7,64.6,29.90,SW,229,8.0,23.0,62,0.00,,---,0.00,VWS V12.08,2013-03-18 20:19:00,
2013-03-18 16:20:00,78.7,65.1,29.90,SW,234,10.0,23.0,63,0.00,,---,0.00,VWS V12.08,2013-03-18 20:20:00,
2013-03-18 16:21:00,78.7,65.1,29.90,SW,218,5.0,23.0,63,0.00,,---,0.00,VWS V12.08,2013-03-18 20:21:00,
2013-03-18 16:22:00,78.6,65.0,29.90,SW,221,7.0,23.0,63,0.00,,---,0.00,VWS V12.08,2013-03-18 20:22:00,
2013-03-18 16:23:00,78.6,64.5,29.90,SW,216,7.0,23.0,62,0.00,,---,0.00,VWS V12.08,2013-03-18 20:23:00,
2013-03-18 16:24:00,78.6,65.0,29.90,SW,219,6.0,23.0,63,0.00,,---,0.00,VWS V12.08,2013-03-18 20:24:00,
2013-03-18 16:25:00,78.7,65.1,29.90,SSW,195,6.0,23.0,63,0.00,,---,0.00,VWS V12.08,2013-03-18 20:25:00,
2013-03-18 16:26:00,78.7,65.1,29.90,SSW,209,7.0,23.0,63,0.00,,---,0.00,VWS V12.08,2013-03-18 20:26:00,
2013-03-18 16:27:00,78.7,65.1,29.90,SSW,205,6.0,23.0,63,0.00,,---,0.00,VWS V12.08,2013-03-18 20:27:00,
2013-03-18 16:28:00,78.7,64.6,29.90,SW,220,5.0,23.0,62,0.00,,---,0.00,VWS V12.08,2013-03-18 20:28:00,
2013-03-18 16:29:00,78.6,65.0,29.90,SW,226,6.0,23.0,63,0.00,,---,0.00,VWS V12.08,2013-03-18 20:29:00,
2013-03-18 16:30:00,78.7,65.1,29.90,SSW,205,11.0,23.0,63,0.00,,---,0.00,VWS V12.08,2013-03-18 20:30:00,
2013-03-18 16:31:00,78.5,64.9,29.90,SW,234,2.0,23.0,63,0.00,,---,0.00,VWS V12.08,2013-03-18 20:31:00,
2013-03-18 16:32:00,78.5,64.9,29.90,SW,234,2.0,23.0,63,0.00,,---,0.00,VWS V12.08,2013-03-18 20:32:00,
2013-03-18 16:33:00,78.5,64.9,29.90,SW,229,5.0,23.0,63,0.00,,---,0.00,VWS V12.08,2013-03-18 20:33:00,
2013-03-18 16:34:00,78.5,65.3,29.90,SW,226,6.0,23.0,64,0.00,,---,0.00,VWS V12.08,2013-03-18 20:34:00,
2013-03-18 16:35:00,78.6,65.0,29.90,SW,219,3.0,23.0,63,0.00,,---,0.00,VWS V12.08,2013-03-18 20:35:00,
2013-03-18 16:36:00,78.5,64.9,29.90,WSW,250,5.0,23.0,63,0.00,,---,0.00,VWS V12.08,2013-03-18 20:36:00,
2013-03-18 16:37:00,78.5,64.9,29.90,WSW,240,7.0,23.0,63,0.00,,---,0.00,VWS V12.08,2013-03-18 20:37:00,
2013-03-18 16:38:00,78.4,64.8,29.90,SW,223,8.0,23.0,63,0.00,,---,0.00,VWS V12.08,2013-03-18 20:38:00,
2013-03-18 16:39:00,78.4,64.8,29.90,SW,236,7.0,23.0,63,0.00,,---,0.00,VWS V12.08,2013-03-18 20:39:00,
2013-03-18 16:40:00,78.6,65.0,29.90,SW,233,7.0,23.0,63,0.00,,---,0.00,VWS V12.08,2013-03-18 20:40:00,
2013-03-18 16:41:00,78.4,64.8,29.90,WSW,239,4.0,23.0,63,0.00,,---,0.00,VWS V12.08,2013-03-18 20:41:00,
2013-03-18 16:42:00,78.4,64.8,29.90,SW,221,11.0,23.0,63,0.00,,---,0.00,VWS V12.08,2013-03-18 20:42:00,
2013-03-18 16:43:00,78.3,64.7,29.90,SSW,211,6.0,23.0,63,0.00,,---,0.00,VWS V12.08,2013-03-18 20:43:00,
2013-03-18 16:44:00,78.3,64.7,29.90,WSW,238,7.0,23.0,63,0.00,,---,0.00,VWS V12.08,2013-03-18 20:44:00,
2013-03-18 16:45:00,78.5,65.3,29.90,WSW,240,7.0,23.0,64,0.00,,---,0.00,VWS V12.08,2013-03-18 20:45:00,
2013-03-18 16:46:00,78.2,65.0,29.90,SW,224,4.0,23.0,64,0.00,,---,0.00,VWS V12.08,2013-03-18 20:46:00,
2013-03-18 16:47:00,78.2,65.0,29.90,SW,227,5.0,23.0,64,0.00,,---,0.00,VWS V12.08,2013-03-18 20:47:00,
2013-03-18 16:48:00,78.1,64.9,29.90,SW,224,7.0,23.0,64,0.00,,---,0.00,VWS V12.08,2013-03-18 20:48:00,
2013-03-18 16:49:00,78.1,64.9,29.90,SW,222,4.0,23.0,64,0.00,,---,0.00,VWS V12.08,2013-03-18 20:49:00,
2013-03-18 16:50:00,78.1,64.9,29.90,SW,223,5.0,23.0,64,0.00,,---,0.00,VWS V12.08,2013-03-18 20:50:00,
2013-03-18 16:51:00,78.4,64.8,29.90,SW,227,8.0,23.0,63,0.00,,---,0.00,VWS V12.08,2013-03-18 20:51:00,
2013-03-18 16:52:00,78.2,65.0,29.90,SW,216,5.0,23.0,64,0.00,,---,0.00,VWS V12.08,2013-03-18 20:52:00,
2013-03-18 16:53:00,78.3,65.1,29.90,SW,216,2.0,23.0,64,0.00,,---,0.00,VWS V12.08,2013-03-18 20:53:00,
2013-03-18 16:54:00,78.3,65.1,29.90,SW,216,2.0,23.0,64,0.00,,---,0.00,VWS V12.08,2013-03-18 20:54:00,
2013-03-18 16:55:00,78.4,65.2,29.90,SW,214,5.0,23.0,64,0.00,,---,0.00,VWS V12.08,2013-03-18 20:55:00,
2013-03-18 16:56:00,78.4,65.2,29.90,SW,222,5.0,23.0,64,0.00,,---,0.00,VWS V12.08,2013-03-18 20:56:00,
2013-03-18 16:57:00,78.2,64.6,29.90,SW,227,5.0,23.0,63,0.00,,---,0.00,VWS V12.08,2013-03-18 20:57:00,
2013-03-18 16:59:00,78.4,64.8,29.90,SSW,209,7.0,23.0,63,0.00,,---,0.00,VWS V12.08,2013-03-18 20:59:00,
2013-03-18 17:00:00,78.4,64.8,29.91,SW,234,8.0,23.0,63,0.00,,---,0.00,VWS V12.08,2013-03-18 21:00:00,
2013-03-18 17:01:00,78.4,65.2,29.91,WSW,243,5.0,23.0,64,0.00,,---,0.00,VWS V12.08,2013-03-18 21:01:00,
2013-03-18 17:02:00,78.4,65.2,29.91,WSW,238,8.0,23.0,64,0.00,,---,0.00,VWS V12.08,2013-03-18 21:02:00,
2013-03-18 17:03:00,78.2,65.0,29.90,SW,216,6.0,23.0,64,0.00,,---,0.00,VWS V12.08,2013-03-18 21:03:00,
2013-03-18 17:04:00,78.3,65.1,29.91,SW,226,4.0,23.0,64,0.00,,---,0.00,VWS V12.08,2013-03-18 21:04:00,
2013-03-18 17:05:00,78.3,65.1,29.91,SSW,193,9.0,23.0,64,0.00,,---,0.00,VWS V12.08,2013-03-18 21:05:00,
2013-03-18 17:06:00,78.4,65.2,29.91,SW,215,8.0,23.0,64,0.00,,---,0.00,VWS V12.08,2013-03-18 21:06:00,
2013-03-18 17:07:00,78.4,65.2,29.91,SW,228,6.0,23.0,64,0.00,,---,0.00,VWS V12.08,2013-03-18 21:07:00,
2013-03-18 17:08:00,78.5,64.9,29.91,SW,218,6.0,23.0,63,0.00,,---,0.00,VWS V12.08,2013-03-18 21:08:00,
2013-03-18 17:09:00,78.5,64.9,29.90,SW,217,10.0,23.0,63,0.00,,---,0.00,VWS V12.08,2013-03-18 21:09:00,
2013-03-18 17:10:00,78.5,65.3,29.91,SW,217,6.0,23.0,64,0.00,,---,0.00,VWS V12.08,2013-03-18 21:10:00,
2013-03-18 17:11:00,78.5,65.3,29.91,SW,225,6.0,23.0,64,0.00,,---,0.00,VWS V12.08,2013-03-18 21:11:00,
2013-03-18 17:13:00,78.5,65.3,29.91,SW,231,7.0,23.0,64,0.00,,---,0.00,VWS V12.08,2013-03-18 21:13:00,
2013-03-18 17:14:00,78.5,65.3,29.91,WSW,243,7.0,23.0,64,0.00,,---,0.00,VWS V12.08,2013-03-18 21:14:00,
2013-03-18 17:16:00,78.6,65.4,29.91,WSW,246,5.0,23.0,64,0.00,,---,0.00,VWS V12.08,2013-03-18 21:16:00,
2013-03-18 17:17:00,78.4,65.2,29.91,SW,229,11.0,23.0,64,0.00,,---,0.00,VWS V12.08,2013-03-18 21:17:00,
2013-03-18 17:18:00,78.6,65.4,29.91,SW,236,8.0,23.0,64,0.00,,---,0.00,VWS V12.08,2013-03-18 21:18:00,
2013-03-18 17:19:00,78.6,65.4,29.91,SW,232,8.0,23.0,64,0.00,,---,0.00,VWS V12.08,2013-03-18 21:19:00,
2013-03-18 17:20:00,78.6,65.0,29.91,WSW,242,8.0,23.0,63,0.00,,---,0.00,VWS V12.08,2013-03-18 21:20:00,
2013-03-18 17:22:00,78.5,65.3,29.91,SW,227,7.0,23.0,64,0.00,,---,0.00,VWS V12.08,2013-03-18 21:22:00,
2013-03-18 17:24:00,78.5,65.3,29.91,SW,234,5.0,23.0,64,0.00,,---,0.00,VWS V12.08,2013-03-18 21:24:00,
2013-03-18 17:25:00,78.4,65.2,29.91,WSW,239,6.0,23.0,64,0.00,,---,0.00,VWS V12.08,2013-03-18 21:25:00,
2013-03-18 17:26:00,78.4,65.2,29.91,SW,236,8.0,23.0,64,0.00,,---,0.00,VWS V12.08,2013-03-18 21:26:00,
2013-03-18 17:27:00,78.6,65.4,29.91,WSW,240,5.0,23.0,64,0.00,,---,0.00,VWS V12.08,2013-03-18 21:27:00,
2013-03-18 17:28:00,78.3,65.1,29.91,SW,235,3.0,23.0,64,0.00,,---,0.00,VWS V12.08,2013-03-18 21:28:00,
2013-03-18 17:29:00,78.2,65.0,29.91,WSW,246,2.0,23.0,64,0.00,,---,0.00,VWS V12.08,2013-03-18 21:29:00,
2013-03-18 17:30:00,78.2,65.5,29.91,WSW,238,6.0,23.0,65,0.00,,---,0.00,VWS V12.08,2013-03-18 21:30:00,
2013-03-18 17:31:00,78.2,65.0,29.91,WSW,240,5.0,23.0,64,0.00,,---,0.00,VWS V12.08,2013-03-18 21:31:00,
2013-03-18 17:32:00,78.2,65.0,29.91,SW,225,5.0,23.0,64,0.00,,---,0.00,VWS V12.08,2013-03-18 21:32:00,
2013-03-18 17:33:00,78.5,65.3,29.91,SW,230,5.0,23.0,64,0.00,,---,0.00,VWS V12.08,2013-03-18 21:33:00,
2013-03-18 17:34:00,78.2,65.5,29.90,SW,223,6.0,23.0,65,0.00,,---,0.00,VWS V12.08,2013-03-18 21:34:00,
2013-03-18 17:35:00,78.2,65.5,29.90,SW,234,10.0,23.0,65,0.00,,---,0.00,VWS V12.08,2013-03-18 21:35:00,
2013-03-18 17:36:00,78.2,65.5,29.90,SW,236,8.0,23.0,65,0.00,,---,0.00,VWS V12.08,2013-03-18 21:36:00,
2013-03-18 17:37:00,78.1,65.4,29.90,WSW,240,6.0,23.0,65,0.00,,---,0.00,VWS V12.08,2013-03-18 21:37:00,
2013-03-18 17:38:00,78.4,65.2,29.91,WSW,246,7.0,23.0,64,0.00,,---,0.00,VWS V12.08,2013-03-18 21:38:00,
2013-03-18 17:39:00,78.2,65.5,29.90,SW,229,5.0,23.0,65,0.00,,---,0.00,VWS V12.08,2013-03-18 21:39:00,
2013-03-18 17:40:00,78.2,65.5,29.90,SW,236,6.0,23.0,65,0.00,,---,0.00,VWS V12.08,2013-03-18 21:40:00,
2013-03-18 17:41:00,78.1,65.4,29.90,WSW,250,7.0,23.0,65,0.00,,---,0.00,VWS V12.08,2013-03-18 21:41:00,
2013-03-18 17:42:00,78.1,65.4,29.90,SW,236,6.0,23.0,65,0.00,,---,0.00,VWS V12.08,2013-03-18 21:42:00,
2013-03-18 17:43:00,78.2,65.5,29.91,SW,229,8.0,23.0,65,0.00,,---,0.00,VWS V12.08,2013-03-18 21:43:00,
2013-03-18 17:44:00,78.0,65.3,29.90,SW,222,6.0,23.0,65,0.00,,---,0.00,VWS V12.08,2013-03-18 21:44:00,
2013-03-18 17:45:00,78.1,65.4,29.90,SW,233,4.0,23.0,65,0.00,,---,0.00,VWS V12.08,2013-03-18 21:45:00,
2013-03-18 17:46:00,78.0,65.3,29.90,WSW,240,4.0,23.0,65,0.00,,---,0.00,VWS V12.08,2013-03-18 21:46:00,
2013-03-18 17:47:00,78.0,65.3,29.90,SW,236,5.0,23.0,65,0.00,,---,0.00,VWS V12.08,2013-03-18 21:47:00,
2013-03-18 17:48:00,78.1,65.4,29.90,WSW,240,7.0,23.0,65,0.00,,---,0.00,VWS V12.08,2013-03-18 21:48:00,
2013-03-18 17:49:00,77.9,65.2,29.89,SW,227,3.0,23.0,65,0.00,,---,0.00,VWS V12.08,2013-03-18 21:49:00,
2013-03-18 17:50:00,77.9,65.2,29.89,SW,228,4.0,23.0,65,0.00,,---,0.00,VWS V12.08,2013-03-18 21:50:00,
2013-03-18 17:51:00,77.8,65.1,29.89,SW,228,2.0,23.0,65,0.00,,---,0.00,VWS V12.08,2013-03-18 21:51:00,
2013-03-18 17:52:00,77.8,65.1,29.89,SW,227,4.0,23.0,65,0.00,,---,0.00,VWS V12.08,2013-03-18 21:52:00,
2013-03-18 17:53:00,78.1,65.4,29.90,SW,236,6.0,23.0,65,0.00,,---,0.00,VWS V12.08,2013-03-18 21:53:00,
2013-03-18 17:56:00,77.6,64.9,29.88,SW,227,6.0,23.0,65,0.00,,---,0.00,VWS V12.08,2013-03-18 21:56:00,
2013-03-18 17:57:00,77.6,64.9,29.89,SW,227,4.0,23.0,65,0.00,,---,0.00,VWS V12.08,2013-03-18 21:57:00,
2013-03-18 17:58:00,77.6,64.9,29.89,SW,227,5.0,23.0,65,0.00,,---,0.00,VWS V12.08,2013-03-18 21:58:00,
2013-03-18 17:59:00,78.0,65.3,29.90,SW,229,5.0,23.0,65,0.00,,---,0.00,VWS V12.08,2013-03-18 21:59:00,
2013-03-18 18:00:00,77.5,64.8,29.89,SW,227,3.0,23.0,65,0.00,,---,0.00,VWS V12.08,2013-03-18 22:00:00,
2013-03-18 18:01:00,77.5,64.8,29.89,SW,227,5.0,23.0,65,0.00,,---,0.00,VWS V12.08,2013-03-18 22:01:00,
2013-03-18 18:02:00,77.5,64.8,29.89,SW,227,4.0,23.0,65,0.00,,---,0.00,VWS V12.08,2013-03-18 22:02:00,
2013-03-18 18:03:00,77.5,64.8,29.89,SW,227,4.0,23.0,65,0.00,,---,0.00,VWS V12.08,2013-03-18 22:03:00,
2013-03-18 18:04:00,77.8,65.1,29.89,SW,229,5.0,23.0,65,0.00,,---,0.00,VWS V12.08,2013-03-18 22:04:00,
2013-03-18 18:05:00,77.4,64.7,29.89,WSW,238,5.0,23.0,65,0.00,,---,0.00,VWS V12.08,2013-03-18 22:05:00,
2013-03-18 18:06:00,77.4,64.7,29.89,WSW,238,4.0,23.0,65,0.00,,---,0.00,VWS V12.08,2013-03-18 22:06:00,
2013-03-18 18:07:00,77.4,64.7,29.89,WSW,238,4.0,23.0,65,0.00,,---,0.00,VWS V12.08,2013-03-18 22:07:00,
2013-03-18 18:08:00,77.4,64.7,29.89,WSW,238,2.0,23.0,65,0.00,,---,0.00,VWS V12.08,2013-03-18 22:08:00,
2013-03-18 18:09:00,77.6,64.9,29.89,SW,227,3.0,23.0,65,0.00,,---,0.00,VWS V12.08,2013-03-18 22:09:00,
2013-03-18 18:10:00,77.3,65.1,29.89,WSW,239,4.0,23.0,66,0.00,,---,0.00,VWS V12.08,2013-03-18 22:10:00,
2013-03-18 18:11:00,77.3,65.1,29.90,WSW,239,4.0,23.0,66,0.00,,---,0.00,VWS V12.08,2013-03-18 22:11:00,
2013-03-18 18:12:00,77.2,65.0,29.90,WSW,239,1.0,23.0,66,0.00,,---,0.00,VWS V12.08,2013-03-18 22:12:00,
2013-03-18 18:13:00,77.2,65.0,29.90,WSW,242,5.0,23.0,66,0.00,,---,0.00,VWS V12.08,2013-03-18 22:13:00,
2013-03-18 18:14:00,77.5,64.8,29.89,SW,227,1.0,23.0,65,0.00,,---,0.00,VWS V12.08,2013-03-18 22:14:00,
2013-03-18 18:15:00,77.2,65.0,29.90,WSW,242,3.0,23.0,66,0.00,,---,0.00,VWS V12.08,2013-03-18 22:15:00,
2013-03-18 18:16:00,77.2,65.0,29.90,WSW,242,4.0,23.0,66,0.00,,---,0.00,VWS V12.08,2013-03-18 22:16:00,
2013-03-18 18:17:00,77.1,64.9,29.90,WSW,242,4.0,23.0,66,0.00,,---,0.00,VWS V12.08,2013-03-18 22:17:00,
2013-03-18 18:18:00,77.1,64.9,29.90,WSW,241,4.0,23.0,66,0.00,,---,0.00,VWS V12.08,2013-03-18 22:18:00,
2013-03-18 18:19:00,77.3,65.1,29.89,WSW,238,3.0,23.0,66,0.00,,---,0.00,VWS V12.08,2013-03-18 22:19:00,
2013-03-18 18:20:00,77.1,64.9,29.90,WSW,241,2.0,23.0,66,0.00,,---,0.00,VWS V12.08,2013-03-18 22:20:00,
2013-03-18 18:21:00,77.1,64.9,29.90,WSW,241,1.0,23.0,66,0.00,,---,0.00,VWS V12.08,2013-03-18 22:21:00,
2013-03-18 18:22:00,77.0,64.8,29.90,WSW,241,2.0,23.0,66,0.00,,---,0.00,VWS V12.08,2013-03-18 22:22:00,
2013-03-18 18:23:00,77.0,65.2,29.90,WSW,241,0.0,23.0,67,0.00,,---,0.00,VWS V12.08,2013-03-18 22:23:00,
2013-03-18 18:24:00,77.0,65.2,29.90,WSW,241,0.0,23.0,67,0.00,,---,0.00,VWS V12.08,2013-03-18 22:24:00,
2013-03-18 18:25:00,77.2,65.0,29.90,WSW,243,4.0,23.0,66,0.00,,---,0.00,VWS V12.08,2013-03-18 22:25:00,
2013-03-18 18:26:00,77.0,65.2,29.89,WSW,241,0.0,23.0,67,0.00,,---,0.00,VWS V12.08,2013-03-18 22:26:00,
2013-03-18 18:27:00,77.0,65.2,29.90,WSW,241,0.0,23.0,67,0.00,,---,0.00,VWS V12.08,2013-03-18 22:27:00,
2013-03-18 18:28:00,77.0,64.8,29.89,WSW,239,3.0,23.0,66,0.00,,---,0.00,VWS V12.08,2013-03-18 22:28:00,
2013-03-18 18:29:00,76.9,65.1,29.89,WSW,239,4.0,23.0,67,0.00,,---,0.00,VWS V12.08,2013-03-18 22:29:00,
2013-03-18 18:30:00,76.9,65.1,29.89,WSW,239,0.0,23.0,67,0.00,,---,0.00,VWS V12.08,2013-03-18 22:30:00,
2013-03-18 18:31:00,76.9,65.1,29.89,WSW,239,0.0,23.0,67,0.00,,---,0.00,VWS V12.08,2013-03-18 22:31:00,
2013-03-18 18:32:00,77.1,64.9,29.90,WSW,241,2.0,23.0,66,0.00,,---,0.00,VWS V12.08,2013-03-18 22:32:00,
2013-03-18 18:33:00,76.8,65.0,29.90,WSW,239,0.0,23.0,67,0.00,,---,0.00,VWS V12.08,2013-03-18 22:33:00,
2013-03-18 18:34:00,76.8,65.0,29.90,WSW,239,0.0,23.0,67,0.00,,---,0.00,VWS V12.08,2013-03-18 22:34:00,
2013-03-18 18:35:00,76.8,65.0,29.90,WSW,239,0.0,23.0,67,0.00,,---,0.00,VWS V12.08,2013-03-18 22:35:00,
2013-03-18 18:36:00,76.8,65.0,29.90,WSW,239,0.0,23.0,67,0.00,,---,0.00,VWS V12.08,2013-03-18 22:36:00,
2013-03-18 18:37:00,77.0,65.2,29.89,WSW,241,1.0,23.0,67,0.00,,---,0.00,VWS V12.08,2013-03-18 22:37:00,
2013-03-18 18:38:00,76.7,64.9,29.89,WSW,239,0.0,23.0,67,0.00,,---,0.00,VWS V12.08,2013-03-18 22:38:00,
2013-03-18 18:39:00,76.7,64.9,29.89,WSW,239,2.0,23.0,67,0.00,,---,0.00,VWS V12.08,2013-03-18 22:39:00,
2013-03-18 18:40:00,76.6,64.8,29.89,WSW,239,2.0,23.0,67,0.00,,---,0.00,VWS V12.08,2013-03-18 22:40:00,
2013-03-18 18:41:00,76.6,64.8,29.90,WSW,239,0.0,23.0,67,0.00,,---,0.00,VWS V12.08,2013-03-18 22:41:00,
2013-03-18 18:42:00,76.9,65.1,29.89,WSW,239,0.0,23.0,67,0.00,,---,0.00,VWS V12.08,2013-03-18 22:42:00,
2013-03-18 18:43:00,76.5,65.2,29.90,WSW,239,0.0,23.0,68,0.00,,---,0.00,VWS V12.08,2013-03-18 22:43:00,
2013-03-18 18:44:00,76.5,65.2,29.90,WSW,239,0.0,23.0,68,0.00,,---,0.00,VWS V12.08,2013-03-18 22:44:00,
2013-03-18 18:45:00,76.4,65.1,29.90,WSW,239,0.0,23.0,68,0.00,,---,0.00,VWS V12.08,2013-03-18 22:45:00,
2013-03-18 18:46:00,76.4,65.1,29.90,WSW,239,0.0,23.0,68,0.00,,---,0.00,VWS V12.08,2013-03-18 22:46:00,
2013-03-18 18:47:00,76.8,65.0,29.90,WSW,239,0.0,23.0,67,0.00,,---,0.00,VWS V12.08,2013-03-18 22:47:00,
2013-03-18 18:48:00,76.3,65.0,29.91,WSW,239,0.0,23.0,68,0.00,,---,0.00,VWS V12.08,2013-03-18 22:48:00,
2013-03-18 18:49:00,76.3,65.0,29.91,WSW,239,0.0,23.0,68,0.00,,---,0.00,VWS V12.08,2013-03-18 22:49:00,
2013-03-18 18:51:00,76.2,65.3,29.91,WSW,239,0.0,23.0,69,0.00,,---,0.00,VWS V12.08,2013-03-18 22:51:00,
2013-03-18 18:52:00,76.6,64.8,29.90,WSW,239,0.0,23.0,67,0.00,,---,0.00,VWS V12.08,2013-03-18 22:52:00,
2013-03-18 18:53:00,76.1,65.2,29.91,WSW,239,0.0,23.0,69,0.00,,---,0.00,VWS V12.08,2013-03-18 22:53:00,
2013-03-18 18:54:00,76.1,65.2,29.91,WSW,239,0.0,23.0,69,0.00,,---,0.00,VWS V12.08,2013-03-18 22:54:00,
2013-03-18 18:56:00,75.9,65.0,29.90,WSW,239,0.0,23.0,69,0.00,,---,0.00,VWS V12.08,2013-03-18 22:56:00,
2013-03-18 18:57:00,76.4,65.1,29.90,WSW,239,0.0,23.0,68,0.00,,---,0.00,VWS V12.08,2013-03-18 22:57:00,
2013-03-18 18:58:00,75.8,64.9,29.90,WSW,239,0.0,23.0,69,0.00,,---,0.00,VWS V12.08,2013-03-18 22:58:00,
2013-03-18 18:59:00,75.8,64.9,29.90,WSW,239,0.0,23.0,69,0.00,,---,0.00,VWS V12.08,2013-03-18 22:59:00,
2013-03-18 19:01:00,75.7,64.8,29.90,WSW,239,0.0,23.0,69,0.00,,---,0.00,VWS V12.08,2013-03-18 23:01:00,
2013-03-18 19:02:00,75.6,64.7,29.90,WSW,239,0.0,23.0,69,0.00,,---,0.00,VWS V12.08,2013-03-18 23:02:00,
2013-03-18 19:03:00,76.2,65.3,29.91,WSW,239,0.0,23.0,69,0.00,,---,0.00,VWS V12.08,2013-03-18 23:03:00,
2013-03-18 19:04:00,75.5,65.0,29.90,WSW,239,0.0,23.0,70,0.00,,---,0.00,VWS V12.08,2013-03-18 23:04:00,
2013-03-18 19:05:00,75.5,65.0,29.90,WSW,239,0.0,23.0,70,0.00,,---,0.00,VWS V12.08,2013-03-18 23:05:00,
2013-03-18 19:06:00,75.4,64.9,29.90,WSW,239,0.0,23.0,70,0.00,,---,0.00,VWS V12.08,2013-03-18 23:06:00,
2013-03-18 19:07:00,75.4,64.9,29.90,WSW,239,0.0,23.0,70,0.00,,---,0.00,VWS V12.08,2013-03-18 23:07:00,
2013-03-18 19:08:00,75.9,65.0,29.90,WSW,239,0.0,23.0,69,0.00,,---,0.00,VWS V12.08,2013-03-18 23:08:00,
2013-03-18 19:09:00,75.3,64.8,29.90,WSW,239,0.0,23.0,70,0.00,,---,0.00,VWS V12.08,2013-03-18 23:09:00,
2013-03-18 19:10:00,75.3,64.8,29.90,WSW,239,0.0,23.0,70,0.00,,---,0.00,VWS V12.08,2013-03-18 23:10:00,
2013-03-18 19:11:00,75.3,64.8,29.90,WSW,239,0.0,23.0,70,0.00,,---,0.00,VWS V12.08,2013-03-18 23:11:00,
2013-03-18 19:12:00,75.2,64.8,29.90,WSW,239,0.0,23.0,70,0.00,,---,0.00,VWS V12.08,2013-03-18 23:12:00,
2013-03-18 19:13:00,75.6,64.7,29.90,WSW,239,0.0,23.0,69,0.00,,---,0.00,VWS V12.08,2013-03-18 23:13:00,
2013-03-18 19:14:00,75.1,64.7,29.91,WSW,239,0.0,23.0,70,0.00,,---,0.00,VWS V12.08,2013-03-18 23:14:00,
2013-03-18 19:15:00,75.0,64.6,29.91,WSW,239,0.0,23.0,70,0.00,,---,0.00,VWS V12.08,2013-03-18 23:15:00,
2013-03-18 19:16:00,74.9,64.5,29.91,WSW,239,0.0,23.0,70,0.00,,---,0.00,VWS V12.08,2013-03-18 23:16:00,
2013-03-18 19:17:00,74.9,64.5,29.91,WSW,239,0.0,23.0,70,0.00,,---,0.00,VWS V12.08,2013-03-18 23:17:00,
2013-03-18 19:18:00,75.4,64.9,29.90,WSW,239,0.0,23.0,70,0.00,,---,0.00,VWS V12.08,2013-03-18 23:18:00,
2013-03-18 19:20:00,74.6,64.6,29.90,WSW,239,0.0,23.0,71,0.00,,---,0.00,VWS V12.08,2013-03-18 23:20:00,
2013-03-18 19:23:00,75.2,64.8,29.91,WSW,239,0.0,23.0,70,0.00,,---,0.00,VWS V12.08,2013-03-18 23:23:00,
2013-03-18 19:24:00,74.3,64.7,29.90,WSW,239,0.0,23.0,72,0.00,,---,0.00,VWS V12.08,2013-03-18 23:24:00,
2013-03-18 19:25:00,74.2,64.6,29.90,WSW,239,0.0,23.0,72,0.00,,---,0.00,VWS V12.08,2013-03-18 23:25:00,
2013-03-18 19:26:00,74.1,64.5,29.90,WSW,239,0.0,23.0,72,0.00,,---,0.00,VWS V12.08,2013-03-18 23:26:00,
2013-03-18 19:27:00,74.1,64.5,29.90,WSW,239,0.0,23.0,72,0.00,,---,0.00,VWS V12.08,2013-03-18 23:27:00,
2013-03-18 19:28:00,74.8,64.4,29.91,WSW,239,0.0,23.0,70,0.00,,---,0.00,VWS V12.08,2013-03-18 23:28:00,
2013-03-18 19:29:00,73.9,64.3,29.90,WSW,239,0.0,23.0,72,0.00,,---,0.00,VWS V12.08,2013-03-18 23:29:00,
2013-03-18 19:31:00,73.7,64.1,29.90,WSW,239,0.0,23.0,72,0.00,,---,0.00,VWS V12.08,2013-03-18 23:31:00,
2013-03-18 19:33:00,74.4,64.8,29.90,WSW,239,0.0,23.0,72,0.00,,---,0.00,VWS V12.08,2013-03-18 23:33:00,
2013-03-18 19:35:00,73.5,64.3,29.90,WSW,239,0.0,23.0,73,0.00,,---,0.00,VWS V12.08,2013-03-18 23:35:00,
2013-03-18 19:37:00,73.5,64.3,29.90,WSW,239,0.0,23.0,73,0.00,,---,0.00,VWS V12.08,2013-03-18 23:37:00,
2013-03-18 19:38:00,74.0,64.4,29.90,WSW,239,0.0,23.0,72,0.00,,---,0.00,VWS V12.08,2013-03-18 23:38:00,
2013-03-18 19:39:00,73.5,64.3,29.90,WSW,239,0.0,23.0,73,0.00,,---,0.00,VWS V12.08,2013-03-18 23:39:00,
2013-03-18 19:40:00,73.4,64.2,29.90,WSW,239,0.0,23.0,73,0.00,,---,0.00,VWS V12.08,2013-03-18 23:40:00,
2013-03-18 19:41:00,73.4,64.6,29.90,WSW,239,0.0,23.0,74,0.00,,---,0.00,VWS V12.08,2013-03-18 23:41:00,
2013-03-18 19:42:00,73.4,64.6,29.90,WSW,239,0.0,23.0,74,0.00,,---,0.00,VWS V12.08,2013-03-18 23:42:00,
2013-03-18 19:43:00,73.7,64.5,29.90,WSW,239,0.0,23.0,73,0.00,,---,0.00,VWS V12.08,2013-03-18 23:43:00,
2013-03-18 19:45:00,73.3,64.5,29.90,WSW,239,0.0,23.0,74,0.00,,---,0.00,VWS V12.08,2013-03-18 23:45:00,
2013-03-18 19:46:00,73.3,64.5,29.90,WSW,239,0.0,23.0,74,0.00,,---,0.00,VWS V12.08,2013-03-18 23:46:00,
2013-03-18 19:47:00,73.2,64.4,29.90,WSW,239,0.0,23.0,74,0.00,,---,0.00,VWS V12.08,2013-03-18 23:47:00,
2013-03-18 19:48:00,73.5,64.3,29.90,WSW,239,0.0,23.0,73,0.00,,---,0.00,VWS V12.08,2013-03-18 23:48:00,
2013-03-18 19:49:00,73.1,64.3,29.90,WSW,239,0.0,23.0,74,0.00,,---,0.00,VWS V12.08,2013-03-18 23:49:00,
2013-03-18 19:50:00,73.1,64.3,29.90,WSW,239,2.0,23.0,74,0.00,,---,0.00,VWS V12.08,2013-03-18 23:50:00,
2013-03-18 19:51:00,73.1,64.7,29.90,WSW,239,0.0,23.0,75,0.00,,---,0.00,VWS V12.08,2013-03-18 23:51:00,
2013-03-18 19:52:00,73.1,64.7,29.91,WSW,239,0.0,23.0,75,0.00,,---,0.00,VWS V12.08,2013-03-18 23:52:00,
2013-03-18 19:53:00,73.1,64.7,29.91,WSW,239,0.0,23.0,75,0.00,,---,0.00,VWS V12.08,2013-03-18 23:53:00,
2013-03-18 19:54:00,73.4,64.6,29.90,WSW,239,0.0,23.0,74,0.00,,---,0.00,VWS V12.08,2013-03-18 23:54:00,
2013-03-18 19:55:00,73.1,64.7,29.91,WSW,239,0.0,23.0,75,0.00,,---,0.00,VWS V12.08,2013-03-18 23:55:00,
2013-03-18 19:56:00,73.1,64.7,29.91,WSW,239,0.0,23.0,75,0.00,,---,0.00,VWS V12.08,2013-03-18 23:56:00,
2013-03-18 19:57:00,73.1,64.7,29.91,WSW,239,0.0,23.0,75,0.00,,---,0.00,VWS V12.08,2013-03-18 23:57:00,
2013-03-18 19:58:00,73.1,64.7,29.92,WSW,239,0.0,23.0,75,0.00,,---,0.00,VWS V12.08,2013-03-18 23:58:00,
2013-03-18 19:59:00,73.1,64.7,29.92,WSW,239,0.0,23.0,75,0.00,,---,0.00,VWS V12.08,2013-03-18 23:59:00,
2013-03-18 20:00:00,73.1,64.7,29.92,WSW,239,4.0,23.0,75,0.00,,---,0.00,VWS V12.08,2013-03-19 00:00:00,
2013-03-18 20:01:00,73.1,64.7,29.92,WSW,239,0.0,23.0,75,0.00,,---,0.00,VWS V12.08,2013-03-19 00:01:00,
2013-03-18 20:02:00,73.1,64.7,29.92,WSW,239,0.0,23.0,75,0.00,,---,0.00,VWS V12.08,2013-03-19 00:02:00,
2013-03-18 20:03:00,73.1,64.7,29.92,WSW,238,2.0,23.0,75,0.00,,---,0.00,VWS V12.08,2013-03-19 00:03:00,
2013-03-18 20:04:00,73.2,65.2,29.92,SW,236,5.0,23.0,76,0.00,,---,0.00,VWS V12.08,2013-03-19 00:04:00,
2013-03-18 20:05:00,73.2,65.2,29.91,SW,227,6.0,23.0,76,0.00,,---,0.00,VWS V12.08,2013-03-19 00:05:00,
2013-03-18 20:06:00,73.3,65.3,29.91,SSW,210,5.0,23.0,76,0.00,,---,0.00,VWS V12.08,2013-03-19 00:06:00,
2013-03-18 20:07:00,73.4,65.4,29.92,SSW,210,4.0,23.0,76,0.00,,---,0.00,VWS V12.08,2013-03-19 00:07:00,
2013-03-18 20:08:00,73.1,64.7,29.92,WSW,239,0.0,23.0,75,0.00,,---,0.00,VWS V12.08,2013-03-19 00:08:00,
2013-03-18 20:10:00,73.6,65.6,29.92,SSW,213,3.0,23.0,76,0.00,,---,0.00,VWS V12.08,2013-03-19 00:10:00,
2013-03-18 20:11:00,73.6,65.6,29.92,SSW,213,4.0,23.0,76,0.00,,---,0.00,VWS V12.08,2013-03-19 00:11:00,
2013-03-18 20:12:00,73.6,65.6,29.92,SW,214,5.0,23.0,76,0.00,,---,0.00,VWS V12.08,2013-03-19 00:12:00,
2013-03-18 20:13:00,73.6,65.6,29.92,SW,214,6.0,23.0,76,0.00,,---,0.00,VWS V12.08,2013-03-19 00:13:00,
2013-03-18 20:14:00,73.1,65.1,29.91,SW,232,5.0,23.0,76,0.00,,---,0.00,VWS V12.08,2013-03-19 00:14:00,
2013-03-18 20:15:00,73.7,65.7,29.92,SW,214,4.0,23.0,76,0.00,,---,0.00,VWS V12.08,2013-03-19 00:15:00,
2013-03-18 20:16:00,73.7,65.7,29.92,SSW,209,5.0,23.0,76,0.00,,---,0.00,VWS V12.08,2013-03-19 00:16:00,
2013-03-18 20:17:00,73.7,65.7,29.92,SSW,213,4.0,23.0,76,0.00,,---,0.00,VWS V12.08,2013-03-19 00:17:00,
2013-03-18 20:18:00,73.7,65.7,29.92,SSW,213,3.0,23.0,76,0.00,,---,0.00,VWS V12.08,2013-03-19 00:18:00,
2013-03-18 20:19:00,73.5,65.5,29.92,SSW,213,3.0,23.0,76,0.00,,---,0.00,VWS V12.08,2013-03-19 00:19:00,
2013-03-18 20:21:00,73.7,65.7,29.92,SSW,211,5.0,23.0,76,0.00,,---,0.00,VWS V12.08,2013-03-19 00:21:00,
2013-03-18 20:22:00,73.7,65.7,29.92,SSW,211,4.0,23.0,76,0.00,,---,0.00,VWS V12.08,2013-03-19 00:22:00,
2013-03-18 20:23:00,73.7,65.7,29.91,SSW,211,3.0,23.0,76,0.00,,---,0.00,VWS V12.08,2013-03-19 00:23:00,
2013-03-18 20:24:00,73.6,65.6,29.91,SSW,211,5.0,23.0,76,0.00,,---,0.00,VWS V12.08,2013-03-19 00:24:00,
2013-03-18 20:25:00,73.7,65.7,29.92,SW,214,3.0,23.0,76,0.00,,---,0.00,VWS V12.08,2013-03-19 00:25:00,
2013-03-18 20:26:00,73.7,65.7,29.91,SSW,204,6.0,23.0,76,0.00,,---,0.00,VWS V12.08,2013-03-19 00:26:00,
2013-03-18 20:27:00,73.7,65.7,29.91,South,185,5.0,23.0,76,0.00,,---,0.00,VWS V12.08,2013-03-19 00:27:00,
2013-03-18 20:28:00,73.7,65.7,29.91,South,187,4.0,23.0,76,0.00,,---,0.00,VWS V12.08,2013-03-19 00:28:00,
2013-03-18 20:29:00,73.6,65.6,29.91,South,185,5.0,23.0,76,0.00,,---,0.00,VWS V12.08,2013-03-19 00:29:00,
2013-03-18 20:30:00,73.7,65.7,29.92,SSW,212,2.0,23.0,76,0.00,,---,0.00,VWS V12.08,2013-03-19 00:30:00,
2013-03-18 20:31:00,73.6,65.6,29.90,South,183,5.0,23.0,76,0.00,,---,0.00,VWS V12.08,2013-03-19 00:31:00,
2013-03-18 20:32:00,73.5,65.5,29.90,South,189,6.0,23.0,76,0.00,,---,0.00,VWS V12.08,2013-03-19 00:32:00,
2013-03-18 20:33:00,73.5,65.5,29.90,South,187,5.0,23.0,76,0.00,,---,0.00,VWS V12.08,2013-03-19 00:33:00,
2013-03-18 20:34:00,73.5,65.5,29.90,South,187,3.0,23.0,76,0.00,,---,0.00,VWS V12.08,2013-03-19 00:34:00,
2013-03-18 20:35:00,73.7,65.7,29.91,SSW,205,7.0,23.0,76,0.00,,---,0.00,VWS V12.08,2013-03-19 00:35:00,
2013-03-18 20:36:00,73.4,65.4,29.90,SSW,194,6.0,23.0,76,0.00,,---,0.00,VWS V12.08,2013-03-19 00:36:00,
2013-03-18 20:38:00,73.4,65.4,29.90,South,190,3.0,23.0,76,0.00,,---,0.00,VWS V12.08,2013-03-19 00:38:00,
2013-03-18 20:39:00,73.3,65.3,29.91,South,190,0.0,23.0,76,0.00,,---,0.00,VWS V12.08,2013-03-19 00:39:00,
2013-03-18 20:40:00,73.3,65.3,29.91,South,190,0.0,23.0,76,0.00,,---,0.00,VWS V12.08,2013-03-19 00:40:00,
2013-03-18 20:41:00,73.6,65.6,29.90,South,183,3.0,23.0,76,0.00,,---,0.00,VWS V12.08,2013-03-19 00:41:00,
2013-03-18 20:42:00,73.3,65.3,29.90,South,190,6.0,23.0,76,0.00,,---,0.00,VWS V12.08,2013-03-19 00:42:00,
2013-03-18 20:44:00,73.2,65.2,29.91,South,188,6.0,23.0,76,0.00,,---,0.00,VWS V12.08,2013-03-19 00:44:00,
2013-03-18 20:45:00,73.1,65.1,29.90,South,190,6.0,23.0,76,0.00,,---,0.00,VWS V12.08,2013-03-19 00:45:00,
2013-03-18 20:46:00,73.4,65.4,29.90,South,190,6.0,23.0,76,0.00,,---,0.00,VWS V12.08,2013-03-19 00:46:00,
2013-03-18 20:49:00,73.0,65.4,29.91,SSW,203,10.0,23.0,77,0.00,,---,0.00,VWS V12.08,2013-03-19 00:49:00,
2013-03-18 20:50:00,73.0,65.4,29.91,SSW,206,4.0,23.0,77,0.00,,---,0.00,VWS V12.08,2013-03-19 00:50:00,
2013-03-18 20:51:00,73.3,65.3,29.91,SSW,192,3.0,23.0,76,0.00,,---,0.00,VWS V12.08,2013-03-19 00:51:00,
2013-03-18 20:52:00,73.0,65.4,29.91,SSW,198,4.0,23.0,77,0.00,,---,0.00,VWS V12.08,2013-03-19 00:52:00,
2013-03-18 20:53:00,72.9,65.3,29.91,SSW,205,5.0,23.0,77,0.00,,---,0.00,VWS V12.08,2013-03-19 00:53:00,
2013-03-18 20:54:00,72.9,65.3,29.91,SSW,196,3.0,23.0,77,0.00,,---,0.00,VWS V12.08,2013-03-19 00:54:00,
2013-03-18 20:55:00,72.9,65.3,29.91,SSW,196,6.0,23.0,77,0.00,,---,0.00,VWS V12.08,2013-03-19 00:55:00,
2013-03-18 20:56:00,73.1,65.5,29.90,South,186,6.0,23.0,77,0.00,,---,0.00,VWS V12.08,2013-03-19 00:56:00,
2013-03-18 20:57:00,72.8,65.2,29.91,SSW,196,7.0,23.0,77,0.00,,---,0.00,VWS V12.08,2013-03-19 00:57:00,
2013-03-18 20:58:00,72.8,65.2,29.90,South,190,8.0,23.0,77,0.00,,---,0.00,VWS V12.08,2013-03-19 00:58:00,
2013-03-18 20:59:00,72.8,65.6,29.90,SSW,192,5.0,23.0,78,0.00,,---,0.00,VWS V12.08,2013-03-19 00:59:00,
2013-03-18 21:00:00,72.8,65.6,29.91,SSW,192,5.0,23.0,78,0.00,,---,0.00,VWS V12.08,2013-03-19 01:00:00,
2013-03-18 21:01:00,72.7,65.4,29.91,SSW,192,3.0,23.0,78,0.00,,---,0.00,VWS V12.08,2013-03-19 01:01:00,
2013-03-18 21:02:00,73.0,65.4,29.91,SSW,197,5.0,23.0,77,0.00,,---,0.00,VWS V12.08,2013-03-19 01:02:00,
2013-03-18 21:03:00,72.7,65.4,29.91,SSW,192,4.0,23.0,78,0.00,,---,0.00,VWS V12.08,2013-03-19 01:03:00,
2013-03-18 21:04:00,72.6,65.3,29.91,SSW,192,4.0,23.0,78,0.00,,---,0.00,VWS V12.08,2013-03-19 01:04:00,
2013-03-18 21:05:00,72.6,65.3,29.91,SSW,192,2.0,23.0,78,0.00,,---,0.00,VWS V12.08,2013-03-19 01:05:00,
2013-03-18 21:06:00,72.5,65.3,29.91,South,190,5.0,23.0,78,0.00,,---,0.00,VWS V12.08,2013-03-19 01:06:00,
2013-03-18 21:07:00,72.8,65.2,29.91,South,188,4.0,23.0,77,0.00,,---,0.00,VWS V12.08,2013-03-19 01:07:00,
2013-03-18 21:08:00,72.5,65.3,29.90,South,191,4.0,23.0,78,0.00,,---,0.00,VWS V12.08,2013-03-19 01:08:00,
2013-03-18 21:09:00,72.4,65.2,29.90,South,183,5.0,23.0,78,0.00,,---,0.00,VWS V12.08,2013-03-19 01:09:00,
2013-03-18 21:10:00,72.4,65.2,29.90,South,185,5.0,23.0,78,0.00,,---,0.00,VWS V12.08,2013-03-19 01:10:00,
2013-03-18 21:11:00,72.3,65.1,29.90,South,183,7.0,23.0,78,0.00,,---,0.00,VWS V12.08,2013-03-19 01:11:00,
2013-03-18 21:12:00,72.7,65.4,29.91,SSW,192,3.0,23.0,78,0.00,,---,0.00,VWS V12.08,2013-03-19 01:12:00,
2013-03-18 21:15:00,72.2,65.3,29.90,South,186,5.0,23.0,79,0.00,,---,0.00,VWS V12.08,2013-03-19 01:15:00,
2013-03-18 21:16:00,72.1,65.2,29.90,SSW,211,9.0,23.0,79,0.00,,---,0.00,VWS V12.08,2013-03-19 01:16:00,
2013-03-18 21:17:00,72.1,65.2,29.90,SSW,201,7.0,23.0,79,0.00,,---,0.00,VWS V12.08,2013-03-19 01:17:00,
2013-03-18 21:18:00,72.5,65.3,29.90,South,191,4.0,23.0,78,0.00,,---,0.00,VWS V12.08,2013-03-19 01:18:00,
2013-03-18 21:20:00,72.1,65.2,29.90,SSW,196,4.0,23.0,79,0.00,,---,0.00,VWS V12.08,2013-03-19 01:20:00,
2013-03-18 21:21:00,72.1,65.2,29.90,SSW,193,3.0,23.0,79,0.00,,---,0.00,VWS V12.08,2013-03-19 01:21:00,
2013-03-18 21:22:00,72.0,65.1,29.90,SSW,200,4.0,23.0,79,0.00,,---,0.00,VWS V12.08,2013-03-19 01:22:00,
2013-03-18 21:23:00,72.3,65.1,29.90,SSW,193,5.0,23.0,78,0.00,,---,0.00,VWS V12.08,2013-03-19 01:23:00,
2013-03-18 21:24:00,72.0,65.1,29.90,SSW,197,6.0,23.0,79,0.00,,---,0.00,VWS V12.08,2013-03-19 01:24:00,
2013-03-18 21:25:00,72.0,65.1,29.90,SSW,192,9.0,23.0,79,0.00,,---,0.00,VWS V12.08,2013-03-19 01:25:00,
2013-03-18 21:26:00,72.0,65.5,29.90,SSW,192,5.0,23.0,80,0.00,,---,0.00,VWS V12.08,2013-03-19 01:26:00,
2013-03-18 21:27:00,72.0,65.5,29.90,SSW,193,5.0,23.0,80,0.00,,---,0.00,VWS V12.08,2013-03-19 01:27:00,
2013-03-18 21:28:00,72.1,65.2,29.90,SSW,194,4.0,23.0,79,0.00,,---,0.00,VWS V12.08,2013-03-19 01:28:00,
2013-03-18 21:29:00,71.9,65.4,29.90,South,188,4.0,23.0,80,0.00,,---,0.00,VWS V12.08,2013-03-19 01:29:00,
2013-03-18 21:30:00,71.9,65.4,29.89,South,190,5.0,23.0,80,0.00,,---,0.00,VWS V12.08,2013-03-19 01:30:00,
2013-03-18 21:31:00,71.9,65.4,29.89,South,189,6.0,23.0,80,0.00,,---,0.00,VWS V12.08,2013-03-19 01:31:00,
2013-03-18 21:32:00,71.9,65.4,29.89,South,180,9.0,23.0,80,0.00,,---,0.00,VWS V12.08,2013-03-19 01:32:00,
2013-03-18 21:33:00,72.0,65.1,29.90,SSW,192,6.0,23.0,79,0.00,,---,0.00,VWS V12.08,2013-03-19 01:33:00,
2013-03-18 21:34:00,71.8,65.3,29.89,South,186,9.0,23.0,80,0.00,,---,0.00,VWS V12.08,2013-03-19 01:34:00,
2013-03-18 21:35:00,71.8,65.3,29.89,South,181,7.0,23.0,80,0.00,,---,0.00,VWS V12.08,2013-03-19 01:35:00,
2013-03-18 21:36:00,71.8,65.3,29.88,South,181,9.0,23.0,80,0.00,,---,0.00,VWS V12.08,2013-03-19 01:36:00,
2013-03-18 21:37:00,71.8,65.3,29.88,SSW,192,7.0,23.0,80,0.00,,---,0.00,VWS V12.08,2013-03-19 01:37:00,
2013-03-18 21:38:00,71.8,65.3,29.89,South,186,4.0,23.0,80,0.00,,---,0.00,VWS V12.08,2013-03-19 01:38:00,
2013-03-18 21:39:00,71.9,65.4,29.90,South,190,7.0,23.0,80,0.00,,---,0.00,VWS V12.08,2013-03-19 01:39:00,
2013-03-18 21:40:00,71.7,65.2,29.89,South,190,5.0,23.0,80,0.00,,---,0.00,VWS V12.08,2013-03-19 01:40:00,
2013-03-18 21:41:00,71.7,65.2,29.89,SSW,205,5.0,23.0,80,0.00,,---,0.00,VWS V12.08,2013-03-19 01:41:00,
2013-03-18 21:42:00,71.6,65.1,29.90,SSW,201,5.0,23.0,80,0.00,,---,0.00,VWS V12.08,2013-03-19 01:42:00,
2013-03-18 21:43:00,71.6,65.1,29.90,SSW,200,6.0,23.0,80,0.00,,---,0.00,VWS V12.08,2013-03-19 01:43:00,
2013-03-18 21:44:00,71.6,65.1,29.90,SSW,197,6.0,23.0,80,0.00,,---,0.00,VWS V12.08,2013-03-19 01:44:00,
2013-03-18 21:45:00,71.8,65.3,29.89,South,182,6.0,23.0,80,0.00,,---,0.00,VWS V12.08,2013-03-19 01:45:00,
2013-03-18 21:46:00,71.6,65.1,29.90,SSW,208,6.0,23.0,80,0.00,,---,0.00,VWS V12.08,2013-03-19 01:46:00,
2013-03-18 21:47:00,71.6,65.1,29.89,SSW,202,5.0,23.0,80,0.00,,---,0.00,VWS V12.08,2013-03-19 01:47:00,
2013-03-18 21:48:00,71.5,65.0,29.89,SSW,200,4.0,23.0,80,0.00,,---,0.00,VWS V12.08,2013-03-19 01:48:00,
2013-03-18 21:49:00,71.5,65.4,29.89,South,185,8.0,23.0,81,0.00,,---,0.00,VWS V12.08,2013-03-19 01:49:00,
2013-03-18 21:50:00,71.5,65.4,29.89,SSW,200,5.0,23.0,81,0.00,,---,0.00,VWS V12.08,2013-03-19 01:50:00,
2013-03-18 21:51:00,71.5,65.4,29.88,SSW,197,6.0,23.0,81,0.00,,---,0.00,VWS V12.08,2013-03-19 01:51:00,
2013-03-18 21:52:00,71.7,65.2,29.89,SSW,205,3.0,23.0,80,0.00,,---,0.00,VWS V12.08,2013-03-19 01:52:00,
2013-03-18 21:53:00,71.5,65.4,29.88,SSW,193,5.0,23.0,81,0.00,,---,0.00,VWS V12.08,2013-03-19 01:53:00,
2013-03-18 21:54:00,71.5,65.4,29.88,SSW,196,6.0,23.0,81,0.00,,---,0.00,VWS V12.08,2013-03-19 01:54:00,
2013-03-18 21:55:00,71.5,65.4,29.89,SW,221,10.0,23.0,81,0.00,,---,0.00,VWS V12.08,2013-03-19 01:55:00,
2013-03-18 21:56:00,71.4,65.3,29.89,South,188,8.0,23.0,81,0.00,,---,0.00,VWS V12.08,2013-03-19 01:56:00,
2013-03-18 21:57:00,71.6,65.1,29.90,SSW,202,5.0,23.0,80,0.00,,---,0.00,VWS V12.08,2013-03-19 01:57:00,
2013-03-18 21:58:00,71.5,65.4,29.89,SSW,196,6.0,23.0,81,0.00,,---,0.00,VWS V12.08,2013-03-19 01:58:00,
2013-03-18 21:59:00,71.4,65.3,29.89,SSW,207,7.0,23.0,81,0.00,,---,0.00,VWS V12.08,2013-03-19 01:59:00,
2013-03-18 22:00:00,71.4,65.3,29.89,SSW,200,13.0,23.0,81,0.00,,---,0.00,VWS V12.08,2013-03-19 02:00:00,
2013-03-18 22:01:00,71.4,65.3,29.88,SSW,193,8.0,23.0,81,0.00,,---,0.00,VWS V12.08,2013-03-19 02:01:00,
2013-03-18 22:02:00,71.4,65.3,29.88,South,182,9.0,23.0,81,0.00,,---,0.00,VWS V12.08,2013-03-19 02:02:00,
2013-03-18 22:03:00,71.5,65.4,29.88,SSW,200,7.0,23.0,81,0.00,,---,0.00,VWS V12.08,2013-03-19 02:03:00,
2013-03-18 22:04:00,71.3,65.2,29.88,SSW,209,10.0,23.0,81,0.00,,---,0.00,VWS V12.08,2013-03-19 02:04:00,
2013-03-18 22:05:00,71.3,65.5,29.88,SSW,192,5.0,23.0,82,0.00,,---,0.00,VWS V12.08,2013-03-19 02:05:00,
2013-03-18 22:06:00,71.3,65.5,29.88,SSW,198,9.0,23.0,82,0.00,,---,0.00,VWS V12.08,2013-03-19 02:06:00,
2013-03-18 22:07:00,71.3,65.5,29.89,SSW,205,9.0,23.0,82,0.00,,---,0.00,VWS V12.08,2013-03-19 02:07:00,
2013-03-18 22:08:00,71.5,65.4,29.89,SSW,198,7.0,23.0,81,0.00,,---,0.00,VWS V12.08,2013-03-19 02:08:00,
2013-03-18 22:09:00,71.3,65.9,29.88,SSW,194,5.0,23.0,83,0.00,,---,0.00,VWS V12.08,2013-03-19 02:09:00,
2013-03-18 22:10:00,71.2,65.4,29.88,SSW,198,7.0,23.0,82,0.00,,---,0.00,VWS V12.08,2013-03-19 02:10:00,
2013-03-18 22:11:00,71.2,65.4,29.88,SSW,205,10.0,23.0,82,0.00,,---,0.00,VWS V12.08,2013-03-19 02:11:00,
2013-03-18 22:12:00,71.2,65.4,29.88,SSE,157,9.0,23.0,82,0.00,,---,0.00,VWS V12.08,2013-03-19 02:12:00,
2013-03-18 22:13:00,71.1,65.3,29.88,SSW,201,10.0,23.0,82,0.00,,---,0.00,VWS V12.08,2013-03-19 02:13:00,
2013-03-18 22:14:00,71.1,65.3,29.88,SSW,200,6.0,23.0,82,0.00,,---,0.00,VWS V12.08,2013-03-19 02:14:00,
2013-03-18 22:15:00,71.4,65.6,29.88,SSW,201,6.0,23.0,82,0.00,,---,0.00,VWS V12.08,2013-03-19 02:15:00,
2013-03-18 22:17:00,71.1,65.7,29.88,SSW,194,8.0,23.0,83,0.00,,---,0.00,VWS V12.08,2013-03-19 02:17:00,
2013-03-18 22:18:00,71.0,65.6,29.88,South,184,7.0,23.0,83,0.00,,---,0.00,VWS V12.08,2013-03-19 02:18:00,
2013-03-18 22:19:00,71.0,65.6,29.88,SSW,195,6.0,23.0,83,0.00,,---,0.00,VWS V12.08,2013-03-19 02:19:00,
2013-03-18 22:20:00,71.2,65.4,29.88,SSW,211,7.0,23.0,82,0.00,,---,0.00,VWS V12.08,2013-03-19 02:20:00,
2013-03-18 22:25:00,70.9,65.5,29.88,SSW,197,14.0,23.0,83,0.00,,---,0.00,VWS V12.08,2013-03-19 02:25:00,
2013-03-18 22:26:00,71.1,65.3,29.88,SSW,200,6.0,23.0,82,0.00,,---,0.00,VWS V12.08,2013-03-19 02:26:00,
2013-03-18 22:27:00,70.8,65.7,29.89,SW,223,11.0,23.0,84,0.00,,---,0.00,VWS V12.08,2013-03-19 02:27:00,
2013-03-18 22:28:00,70.8,65.7,29.89,SW,221,10.0,23.0,84,0.00,,---,0.00,VWS V12.08,2013-03-19 02:28:00,
2013-03-18 22:29:00,70.8,65.7,29.89,SW,217,4.0,23.0,84,0.00,,---,0.00,VWS V12.08,2013-03-19 02:29:00,
2013-03-18 22:30:00,70.7,65.6,29.89,SSW,206,10.0,23.0,84,0.00,,---,0.00,VWS V12.08,2013-03-19 02:30:00,
2013-03-18 22:31:00,71.0,65.6,29.88,SSW,205,5.0,23.0,83,0.00,,---,0.00,VWS V12.08,2013-03-19 02:31:00,
2013-03-18 22:33:00,70.6,65.5,29.89,South,189,9.0,23.0,84,0.00,,---,0.00,VWS V12.08,2013-03-19 02:33:00,
2013-03-18 22:34:00,70.6,65.5,29.89,SSW,211,4.0,23.0,84,0.00,,---,0.00,VWS V12.08,2013-03-19 02:34:00,
2013-03-18 22:37:00,70.8,65.7,29.89,SSW,194,9.0,23.0,84,0.00,,---,0.00,VWS V12.08,2013-03-19 02:37:00,
2013-03-18 22:40:00,70.5,65.4,29.90,SSW,197,11.0,23.0,84,0.00,,---,0.00,VWS V12.08,2013-03-19 02:40:00,
2013-03-18 22:41:00,70.5,65.4,29.90,SSW,209,6.0,23.0,84,0.00,,---,0.00,VWS V12.08,2013-03-19 02:41:00,
2013-03-18 22:42:00,70.7,65.6,29.89,SSW,198,9.0,23.0,84,0.00,,---,0.00,VWS V12.08,2013-03-19 02:42:00,
2013-03-18 22:43:00,70.4,65.3,29.90,SSW,213,9.0,23.0,84,0.00,,---,0.00,VWS V12.08,2013-03-19 02:43:00,
2013-03-18 22:44:00,70.4,65.3,29.90,SW,219,7.0,23.0,84,0.00,,---,0.00,VWS V12.08,2013-03-19 02:44:00,
2013-03-18 22:45:00,70.4,65.3,29.90,SSW,199,7.0,23.0,84,0.00,,---,0.00,VWS V12.08,2013-03-19 02:45:00,
2013-03-18 22:46:00,70.4,65.3,29.90,South,184,9.0,23.0,84,0.00,,---,0.00,VWS V12.08,2013-03-19 02:46:00,
2013-03-18 22:47:00,70.6,65.5,29.89,SW,215,9.0,23.0,84,0.00,,---,0.00,VWS V12.08,2013-03-19 02:47:00,
2013-03-18 22:48:00,70.3,65.6,29.90,SSW,192,8.0,23.0,85,0.00,,---,0.00,VWS V12.08,2013-03-19 02:48:00,
2013-03-18 22:49:00,70.4,65.7,29.90,SSW,201,10.0,23.0,85,0.00,,---,0.00,VWS V12.08,2013-03-19 02:49:00,
2013-03-18 22:50:00,70.3,65.6,29.90,SSW,202,10.0,23.0,85,0.00,,---,0.00,VWS V12.08,2013-03-19 02:50:00,
2013-03-18 22:51:00,70.3,65.6,29.90,SSW,209,6.0,23.0,85,0.00,,---,0.00,VWS V12.08,2013-03-19 02:51:00,
2013-03-18 22:52:00,70.5,65.4,29.90,SSW,209,6.0,23.0,84,0.00,,---,0.00,VWS V12.08,2013-03-19 02:52:00,
2013-03-18 22:53:00,70.3,65.6,29.90,SSW,201,9.0,23.0,85,0.00,,---,0.00,VWS V12.08,2013-03-19 02:53:00,
2013-03-18 22:54:00,70.3,65.6,29.90,SW,232,13.0,23.0,85,0.00,,---,0.00,VWS V12.08,2013-03-19 02:54:00,
2013-03-18 22:55:00,70.3,65.6,29.90,SSW,192,8.0,23.0,85,0.00,,---,0.00,VWS V12.08,2013-03-19 02:55:00,
2013-03-18 22:56:00,70.2,65.5,29.90,SSW,203,7.0,23.0,85,0.00,,---,0.00,VWS V12.08,2013-03-19 02:56:00,
2013-03-18 22:57:00,70.4,65.3,29.90,South,187,7.0,23.0,84,0.00,,---,0.00,VWS V12.08,2013-03-19 02:57:00,
2013-03-18 22:58:00,70.2,65.5,29.90,SSW,194,8.0,23.0,85,0.00,,---,0.00,VWS V12.08,2013-03-19 02:58:00,
2013-03-18 22:59:00,70.2,65.5,29.90,SSW,213,6.0,23.0,85,0.00,,---,0.00,VWS V12.08,2013-03-19 02:59:00,
2013-03-18 23:00:00,70.1,65.4,29.90,SSW,202,10.0,23.0,85,0.00,,---,0.00,VWS V12.08,2013-03-19 03:00:00,
2013-03-18 23:01:00,70.1,65.4,29.89,SSW,202,11.0,23.0,85,0.00,,---,0.00,VWS V12.08,2013-03-19 03:01:00,
2013-03-18 23:05:00,70.3,65.6,29.90,SSW,198,11.0,23.0,85,0.00,,---,0.00,VWS V12.08,2013-03-19 03:05:00,
2013-03-18 23:11:00,70.1,65.4,29.90,SSW,198,13.0,23.0,85,0.00,,---,0.00,VWS V12.08,2013-03-19 03:11:00,
2013-03-18 23:14:00,69.8,65.4,29.89,SSW,211,7.0,23.0,86,0.00,,---,0.00,VWS V12.08,2013-03-19 03:14:00,
2013-03-18 23:15:00,69.8,65.4,29.89,SSW,210,5.0,23.0,86,0.00,,---,0.00,VWS V12.08,2013-03-19 03:15:00,
2013-03-18 23:16:00,70.0,65.3,29.90,SSW,198,5.0,23.0,85,0.00,,---,0.00,VWS V12.08,2013-03-19 03:16:00,
2013-03-18 23:17:00,69.7,65.3,29.90,SSW,200,7.0,23.0,86,0.00,,---,0.00,VWS V12.08,2013-03-19 03:17:00,
2013-03-18 23:20:00,69.7,65.3,29.90,SSW,209,7.0,23.0,86,0.00,,---,0.00,VWS V12.08,2013-03-19 03:20:00,
2013-03-18 23:21:00,69.9,65.2,29.90,SSW,209,6.0,23.0,85,0.00,,---,0.00,VWS V12.08,2013-03-19 03:21:00,
2013-03-18 23:22:00,69.6,65.2,29.90,SSW,204,6.0,23.0,86,0.00,,---,0.00,VWS V12.08,2013-03-19 03:22:00,
2013-03-18 23:23:00,69.6,65.2,29.90,SSW,199,6.0,23.0,86,0.00,,---,0.00,VWS V12.08,2013-03-19 03:23:00,
2013-03-18 23:24:00,69.6,65.2,29.90,SSW,197,4.0,23.0,86,0.00,,---,0.00,VWS V12.08,2013-03-19 03:24:00,
2013-03-18 23:25:00,69.6,65.2,29.90,SSW,202,5.0,23.0,86,0.00,,---,0.00,VWS V12.08,2013-03-19 03:25:00,
2013-03-18 23:26:00,69.6,65.2,29.90,SSW,202,3.0,23.0,86,0.00,,---,0.00,VWS V12.08,2013-03-19 03:26:00,
2013-03-18 23:27:00,69.7,65.3,29.90,SW,219,7.0,23.0,86,0.00,,---,0.00,VWS V12.08,2013-03-19 03:27:00,
2013-03-18 23:28:00,69.5,65.1,29.90,SSW,200,4.0,23.0,86,0.00,,---,0.00,VWS V12.08,2013-03-19 03:28:00,
2013-03-18 23:29:00,69.5,65.1,29.91,SW,217,8.0,23.0,86,0.00,,---,0.00,VWS V12.08,2013-03-19 03:29:00,
2013-03-18 23:30:00,69.5,65.1,29.90,SSW,205,5.0,23.0,86,0.00,,---,0.00,VWS V12.08,2013-03-19 03:30:00,
2013-03-18 23:31:00,69.5,65.1,29.90,SSW,209,6.0,23.0,86,0.00,,---,0.00,VWS V12.08,2013-03-19 03:31:00,
2013-03-18 23:32:00,69.7,65.3,29.90,SSW,202,4.0,23.0,86,0.00,,---,0.00,VWS V12.08,2013-03-19 03:32:00,
2013-03-18 23:33:00,69.5,65.5,29.90,SW,217,6.0,23.0,87,0.00,,---,0.00,VWS V12.08,2013-03-19 03:33:00,
2013-03-18 23:34:00,69.5,65.5,29.91,SSW,213,4.0,23.0,87,0.00,,---,0.00,VWS V12.08,2013-03-19 03:34:00,
2013-03-18 23:35:00,69.5,65.1,29.91,SSW,213,5.0,23.0,86,0.00,,---,0.00,VWS V12.08,2013-03-19 03:35:00,
2013-03-18 23:36:00,69.4,65.0,29.91,SW,217,7.0,23.0,86,0.00,,---,0.00,VWS V12.08,2013-03-19 03:36:00,
2013-03-18 23:37:00,69.6,65.2,29.90,SSW,202,4.0,23.0,86,0.00,,---,0.00,VWS V12.08,2013-03-19 03:37:00,
2013-03-18 23:38:00,69.4,65.4,29.91,SW,226,8.0,23.0,87,0.00,,---,0.00,VWS V12.08,2013-03-19 03:38:00,
2013-03-18 23:39:00,69.4,65.4,29.91,SW,223,4.0,23.0,87,0.00,,---,0.00,VWS V12.08,2013-03-19 03:39:00,
2013-03-18 23:40:00,69.4,65.4,29.91,SW,221,5.0,23.0,87,0.00,,---,0.00,VWS V12.08,2013-03-19 03:40:00,
2013-03-18 23:41:00,69.4,65.4,29.91,SW,219,3.0,23.0,87,0.00,,---,0.00,VWS V12.08,2013-03-19 03:41:00,
2013-03-18 23:42:00,69.5,65.1,29.90,SSW,207,5.0,23.0,86,0.00,,---,0.00,VWS V12.08,2013-03-19 03:42:00,
2013-03-18 23:43:00,69.3,65.3,29.91,SW,219,3.0,23.0,87,0.00,,---,0.00,VWS V12.08,2013-03-19 03:43:00,
2013-03-18 23:44:00,69.3,64.9,29.91,SW,219,4.0,23.0,86,0.00,,---,0.00,VWS V12.08,2013-03-19 03:44:00,
2013-03-18 23:47:00,69.4,65.0,29.91,SSW,212,7.0,23.0,86,0.00,,---,0.00,VWS V12.08,2013-03-19 03:47:00,
2013-03-18 23:48:00,69.2,65.2,29.91,SW,218,4.0,23.0,87,0.00,,---,0.00,VWS V12.08,2013-03-19 03:48:00,
2013-03-18 23:49:00,69.2,65.2,29.91,SW,217,5.0,23.0,87,0.00,,---,0.00,VWS V12.08,2013-03-19 03:49:00,
2013-03-18 23:50:00,69.2,65.2,29.91,SW,217,4.0,23.0,87,0.00,,---,0.00,VWS V12.08,2013-03-19 03:50:00,
2013-03-18 23:51:00,69.2,65.2,29.91,SW,217,3.0,23.0,87,0.00,,---,0.00,VWS V12.08,2013-03-19 03:51:00,
2013-03-18 23:52:00,69.4,65.4,29.91,SW,217,4.0,23.0,87,0.00,,---,0.00,VWS V12.08,2013-03-19 03:52:00,
2013-03-18 23:53:00,69.1,65.1,29.91,SW,217,0.0,23.0,87,0.00,,---,0.00,VWS V12.08,2013-03-19 03:53:00,
2013-03-18 23:54:00,69.1,64.7,29.91,SW,217,2.0,23.0,86,0.00,,---,0.00,VWS V12.08,2013-03-19 03:54:00,
2013-03-18 23:55:00,69.0,64.6,29.91,SW,217,6.0,23.0,86,0.00,,---,0.00,VWS V12.08,2013-03-19 03:55:00,
2013-03-18 23:56:00,69.0,65.0,29.91,SW,217,4.0,23.0,87,0.00,,---,0.00,VWS V12.08,2013-03-19 03:56:00,
2013-03-18 23:57:00,69.2,64.8,29.91,SW,218,5.0,23.0,86,0.00,,---,0.00,VWS V12.08,2013-03-19 03:57:00,
2013-03-18 23:58:00,69.0,65.0,29.91,SW,217,4.0,23.0,87,0.00,,---,0.00,VWS V12.08,2013-03-19 03:58:00,
2013-03-18 23:59:00,69.0,65.0,29.92,SW,217,0.0,23.0,87,0.00,,---,0.00,VWS V12.08,2013-03-19 03:59:00,